<?xml version="1.0" encoding="UTF-8" standalone="no" ?>
<gpx xmlns="http://www.topografix.com/GPX/1/1" xmlns:xsi="http://www.w3.org/2001/XMLSchema-instance" xsi:schemaLocation="http://www.topografix.com/GPX/1/1 http://www.topografix.com/GPX/1/1/gpx.xsd" version="1.1" creator="VisuGPX - https://www.visugpx.com">
  <metadata>
    <name>Pointe des Carmélites (descente couloir NW)</name>
    <desc><![CDATA[                                                             ]]></desc>
  </metadata>
  <trk>
    <name><![CDATA[20190323200822-xwYVh]]></name>
    <trkseg>
      <trkpt lat="45.99028" lon="6.54182">
        <ele>1139.78</ele>
        <time>2019-03-18T10:22:00Z</time>
      </trkpt>
      <trkpt lat="45.99034" lon="6.54174">
        <ele>1140.26</ele>
        <time>2019-03-18T10:22:02Z</time>
      </trkpt>
      <trkpt lat="45.99074" lon="6.54116">
        <ele>1140.26</ele>
        <time>2019-03-18T10:22:03Z</time>
      </trkpt>
      <trkpt lat="45.99174" lon="6.538">
        <ele>1141.22</ele>
        <time>2019-03-18T10:22:06Z</time>
      </trkpt>
      <trkpt lat="45.99176" lon="6.53788">
        <ele>1141.22</ele>
        <time>2019-03-18T10:22:08Z</time>
      </trkpt>
      <trkpt lat="45.99116" lon="6.53998">
        <ele>1141.7</ele>
        <time>2019-03-18T10:22:12Z</time>
      </trkpt>
      <trkpt lat="45.99162" lon="6.53896">
        <ele>1142.18</ele>
        <time>2019-03-18T10:22:14Z</time>
      </trkpt>
      <trkpt lat="45.99178" lon="6.53868">
        <ele>1142.66</ele>
        <time>2019-03-18T10:22:15Z</time>
      </trkpt>
      <trkpt lat="45.99187" lon="6.53848">
        <ele>1142.66</ele>
        <time>2019-03-18T10:22:16Z</time>
      </trkpt>
      <trkpt lat="45.99193" lon="6.53854">
        <ele>1143.14</ele>
        <time>2019-03-18T10:22:17Z</time>
      </trkpt>
      <trkpt lat="45.99226" lon="6.53934">
        <ele>1143.63</ele>
        <time>2019-03-18T10:22:19Z</time>
      </trkpt>
      <trkpt lat="45.99226" lon="6.53935">
        <ele>1143.63</ele>
        <time>2019-03-18T10:22:20Z</time>
      </trkpt>
      <trkpt lat="45.99233" lon="6.53947">
        <ele>1143.63</ele>
        <time>2019-03-18T10:22:21Z</time>
      </trkpt>
      <trkpt lat="45.99245" lon="6.5394">
        <ele>1144.11</ele>
        <time>2019-03-18T10:22:23Z</time>
      </trkpt>
      <trkpt lat="45.99251" lon="6.53939">
        <ele>1144.59</ele>
        <time>2019-03-18T10:22:24Z</time>
      </trkpt>
      <trkpt lat="45.9926" lon="6.53932">
        <ele>1144.59</ele>
        <time>2019-03-18T10:22:26Z</time>
      </trkpt>
      <trkpt lat="45.99261" lon="6.53931">
        <ele>1144.59</ele>
        <time>2019-03-18T10:22:27Z</time>
      </trkpt>
      <trkpt lat="45.99285" lon="6.5395">
        <ele>1146.03</ele>
        <time>2019-03-18T10:22:33Z</time>
      </trkpt>
      <trkpt lat="45.99287" lon="6.5395">
        <ele>1146.51</ele>
        <time>2019-03-18T10:22:34Z</time>
      </trkpt>
      <trkpt lat="45.99289" lon="6.5395">
        <ele>1146.99</ele>
        <time>2019-03-18T10:22:35Z</time>
      </trkpt>
      <trkpt lat="45.99303" lon="6.53965">
        <ele>1147.47</ele>
        <time>2019-03-18T10:22:38Z</time>
      </trkpt>
      <trkpt lat="45.99315" lon="6.53969">
        <ele>1148.43</ele>
        <time>2019-03-18T10:22:43Z</time>
      </trkpt>
      <trkpt lat="45.99326" lon="6.53963">
        <ele>1151.8</ele>
        <time>2019-03-18T10:22:59Z</time>
      </trkpt>
      <trkpt lat="45.99323" lon="6.5396">
        <ele>1154.68</ele>
        <time>2019-03-18T10:23:16Z</time>
      </trkpt>
      <trkpt lat="45.99321" lon="6.53952">
        <ele>1157.56</ele>
        <time>2019-03-18T10:23:30Z</time>
      </trkpt>
      <trkpt lat="45.99323" lon="6.53955">
        <ele>1160.93</ele>
        <time>2019-03-18T10:23:46Z</time>
      </trkpt>
      <trkpt lat="45.9932" lon="6.53953">
        <ele>1163.81</ele>
        <time>2019-03-18T10:24:03Z</time>
      </trkpt>
      <trkpt lat="45.99314" lon="6.53971">
        <ele>1166.22</ele>
        <time>2019-03-18T10:24:13Z</time>
      </trkpt>
      <trkpt lat="45.99314" lon="6.53971">
        <ele>1166.22</ele>
        <time>2019-03-18T10:24:14Z</time>
      </trkpt>
      <trkpt lat="45.99313" lon="6.53973">
        <ele>1166.22</ele>
        <time>2019-03-18T10:24:15Z</time>
      </trkpt>
      <trkpt lat="45.99302" lon="6.53993">
        <ele>1169.58</ele>
        <time>2019-03-18T10:24:33Z</time>
      </trkpt>
      <trkpt lat="45.99292" lon="6.54009">
        <ele>1172.47</ele>
        <time>2019-03-18T10:24:56Z</time>
      </trkpt>
      <trkpt lat="45.99281" lon="6.54028">
        <ele>1175.83</ele>
        <time>2019-03-18T10:25:12Z</time>
      </trkpt>
      <trkpt lat="45.99274" lon="6.54041">
        <ele>1178.71</ele>
        <time>2019-03-18T10:25:26Z</time>
      </trkpt>
      <trkpt lat="45.99267" lon="6.54045">
        <ele>1181.6</ele>
        <time>2019-03-18T10:25:39Z</time>
      </trkpt>
      <trkpt lat="45.99252" lon="6.54064">
        <ele>1184.96</ele>
        <time>2019-03-18T10:26:02Z</time>
      </trkpt>
      <trkpt lat="45.99236" lon="6.54081">
        <ele>1187.85</ele>
        <time>2019-03-18T10:26:22Z</time>
      </trkpt>
      <trkpt lat="45.99218" lon="6.54099">
        <ele>1191.21</ele>
        <time>2019-03-18T10:26:42Z</time>
      </trkpt>
      <trkpt lat="45.99205" lon="6.54116">
        <ele>1194.09</ele>
        <time>2019-03-18T10:27:00Z</time>
      </trkpt>
      <trkpt lat="45.99195" lon="6.54119">
        <ele>1197.46</ele>
        <time>2019-03-18T10:27:14Z</time>
      </trkpt>
      <trkpt lat="45.99183" lon="6.54136">
        <ele>1198.42</ele>
        <time>2019-03-18T10:27:30Z</time>
      </trkpt>
      <trkpt lat="45.99182" lon="6.54138">
        <ele>1198.42</ele>
        <time>2019-03-18T10:27:31Z</time>
      </trkpt>
      <trkpt lat="45.99178" lon="6.54138">
        <ele>1197.46</ele>
        <time>2019-03-18T10:27:39Z</time>
      </trkpt>
      <trkpt lat="45.99177" lon="6.5414">
        <ele>1198.42</ele>
        <time>2019-03-18T10:27:52Z</time>
      </trkpt>
      <trkpt lat="45.9918" lon="6.5414">
        <ele>1198.42</ele>
        <time>2019-03-18T10:27:57Z</time>
      </trkpt>
      <trkpt lat="45.99179" lon="6.5414">
        <ele>1198.42</ele>
        <time>2019-03-18T10:27:59Z</time>
      </trkpt>
      <trkpt lat="45.99171" lon="6.54147">
        <ele>1201.3</ele>
        <time>2019-03-18T10:28:15Z</time>
      </trkpt>
      <trkpt lat="45.9916" lon="6.54158">
        <ele>1204.19</ele>
        <time>2019-03-18T10:28:33Z</time>
      </trkpt>
      <trkpt lat="45.99158" lon="6.54162">
        <ele>1204.19</ele>
        <time>2019-03-18T10:28:36Z</time>
      </trkpt>
      <trkpt lat="45.9915" lon="6.54189">
        <ele>1207.55</ele>
        <time>2019-03-18T10:28:59Z</time>
      </trkpt>
      <trkpt lat="45.99139" lon="6.54207">
        <ele>1210.44</ele>
        <time>2019-03-18T10:29:15Z</time>
      </trkpt>
      <trkpt lat="45.9914" lon="6.54222">
        <ele>1212.84</ele>
        <time>2019-03-18T10:29:26Z</time>
      </trkpt>
      <trkpt lat="45.99137" lon="6.54239">
        <ele>1216.21</ele>
        <time>2019-03-18T10:29:42Z</time>
      </trkpt>
      <trkpt lat="45.99133" lon="6.54247">
        <ele>1217.65</ele>
        <time>2019-03-18T10:29:50Z</time>
      </trkpt>
      <trkpt lat="45.99131" lon="6.54249">
        <ele>1218.13</ele>
        <time>2019-03-18T10:29:51Z</time>
      </trkpt>
      <trkpt lat="45.99128" lon="6.54252">
        <ele>1218.61</ele>
        <time>2019-03-18T10:29:54Z</time>
      </trkpt>
      <trkpt lat="45.99127" lon="6.54257">
        <ele>1219.57</ele>
        <time>2019-03-18T10:29:58Z</time>
      </trkpt>
      <trkpt lat="45.99125" lon="6.54265">
        <ele>1221.01</ele>
        <time>2019-03-18T10:30:05Z</time>
      </trkpt>
      <trkpt lat="45.99125" lon="6.54267">
        <ele>1221.01</ele>
        <time>2019-03-18T10:30:06Z</time>
      </trkpt>
      <trkpt lat="45.99123" lon="6.54276">
        <ele>1224.38</ele>
        <time>2019-03-18T10:30:19Z</time>
      </trkpt>
      <trkpt lat="45.99121" lon="6.54278">
        <ele>1224.38</ele>
        <time>2019-03-18T10:30:21Z</time>
      </trkpt>
      <trkpt lat="45.99116" lon="6.54283">
        <ele>1227.74</ele>
        <time>2019-03-18T10:30:34Z</time>
      </trkpt>
      <trkpt lat="45.9911" lon="6.54295">
        <ele>1229.66</ele>
        <time>2019-03-18T10:30:44Z</time>
      </trkpt>
      <trkpt lat="45.99108" lon="6.54297">
        <ele>1230.14</ele>
        <time>2019-03-18T10:30:46Z</time>
      </trkpt>
      <trkpt lat="45.99107" lon="6.54298">
        <ele>1230.14</ele>
        <time>2019-03-18T10:30:47Z</time>
      </trkpt>
      <trkpt lat="45.99104" lon="6.54302">
        <ele>1231.11</ele>
        <time>2019-03-18T10:30:50Z</time>
      </trkpt>
      <trkpt lat="45.99102" lon="6.54304">
        <ele>1231.59</ele>
        <time>2019-03-18T10:30:52Z</time>
      </trkpt>
      <trkpt lat="45.99099" lon="6.54305">
        <ele>1232.55</ele>
        <time>2019-03-18T10:30:57Z</time>
      </trkpt>
      <trkpt lat="45.99096" lon="6.54312">
        <ele>1234.95</ele>
        <time>2019-03-18T10:31:06Z</time>
      </trkpt>
      <trkpt lat="45.99096" lon="6.54313">
        <ele>1235.43</ele>
        <time>2019-03-18T10:31:07Z</time>
      </trkpt>
      <trkpt lat="45.99096" lon="6.54314">
        <ele>1235.91</ele>
        <time>2019-03-18T10:31:10Z</time>
      </trkpt>
      <trkpt lat="45.99094" lon="6.54316">
        <ele>1236.87</ele>
        <time>2019-03-18T10:31:14Z</time>
      </trkpt>
      <trkpt lat="45.99089" lon="6.54327">
        <ele>1240.24</ele>
        <time>2019-03-18T10:31:27Z</time>
      </trkpt>
      <trkpt lat="45.99089" lon="6.54332">
        <ele>1240.72</ele>
        <time>2019-03-18T10:31:32Z</time>
      </trkpt>
      <trkpt lat="45.99085" lon="6.54337">
        <ele>1244.08</ele>
        <time>2019-03-18T10:31:44Z</time>
      </trkpt>
      <trkpt lat="45.99081" lon="6.54345">
        <ele>1246.01</ele>
        <time>2019-03-18T10:31:52Z</time>
      </trkpt>
      <trkpt lat="45.99079" lon="6.54348">
        <ele>1246.01</ele>
        <time>2019-03-18T10:31:54Z</time>
      </trkpt>
      <trkpt lat="45.99077" lon="6.54348">
        <ele>1246.49</ele>
        <time>2019-03-18T10:31:55Z</time>
      </trkpt>
      <trkpt lat="45.99076" lon="6.54349">
        <ele>1246.49</ele>
        <time>2019-03-18T10:31:56Z</time>
      </trkpt>
      <trkpt lat="45.99075" lon="6.5435">
        <ele>1246.49</ele>
        <time>2019-03-18T10:31:57Z</time>
      </trkpt>
      <trkpt lat="45.99074" lon="6.54351">
        <ele>1246.49</ele>
        <time>2019-03-18T10:31:58Z</time>
      </trkpt>
      <trkpt lat="45.99073" lon="6.54351">
        <ele>1246.49</ele>
        <time>2019-03-18T10:31:59Z</time>
      </trkpt>
      <trkpt lat="45.99072" lon="6.54352">
        <ele>1246.49</ele>
        <time>2019-03-18T10:32:01Z</time>
      </trkpt>
      <trkpt lat="45.99064" lon="6.54366">
        <ele>1249.85</ele>
        <time>2019-03-18T10:32:18Z</time>
      </trkpt>
      <trkpt lat="45.99057" lon="6.5437">
        <ele>1251.29</ele>
        <time>2019-03-18T10:32:26Z</time>
      </trkpt>
      <trkpt lat="45.99057" lon="6.54372">
        <ele>1251.77</ele>
        <time>2019-03-18T10:32:27Z</time>
      </trkpt>
      <trkpt lat="45.99056" lon="6.54373">
        <ele>1251.77</ele>
        <time>2019-03-18T10:32:28Z</time>
      </trkpt>
      <trkpt lat="45.99047" lon="6.5438">
        <ele>1255.14</ele>
        <time>2019-03-18T10:32:43Z</time>
      </trkpt>
      <trkpt lat="45.99046" lon="6.5438">
        <ele>1255.62</ele>
        <time>2019-03-18T10:32:45Z</time>
      </trkpt>
      <trkpt lat="45.9904" lon="6.5438">
        <ele>1257.06</ele>
        <time>2019-03-18T10:32:53Z</time>
      </trkpt>
      <trkpt lat="45.99033" lon="6.54382">
        <ele>1258.5</ele>
        <time>2019-03-18T10:32:59Z</time>
      </trkpt>
      <trkpt lat="45.99031" lon="6.54383">
        <ele>1258.98</ele>
        <time>2019-03-18T10:33:02Z</time>
      </trkpt>
      <trkpt lat="45.9903" lon="6.54383">
        <ele>1259.46</ele>
        <time>2019-03-18T10:33:03Z</time>
      </trkpt>
      <trkpt lat="45.99028" lon="6.54384">
        <ele>1259.94</ele>
        <time>2019-03-18T10:33:05Z</time>
      </trkpt>
      <trkpt lat="45.99027" lon="6.54385">
        <ele>1260.43</ele>
        <time>2019-03-18T10:33:06Z</time>
      </trkpt>
      <trkpt lat="45.99022" lon="6.54388">
        <ele>1263.31</ele>
        <time>2019-03-18T10:33:20Z</time>
      </trkpt>
      <trkpt lat="45.99021" lon="6.54389">
        <ele>1263.79</ele>
        <time>2019-03-18T10:33:22Z</time>
      </trkpt>
      <trkpt lat="45.99012" lon="6.54389">
        <ele>1266.19</ele>
        <time>2019-03-18T10:33:36Z</time>
      </trkpt>
      <trkpt lat="45.99011" lon="6.54389">
        <ele>1266.19</ele>
        <time>2019-03-18T10:33:37Z</time>
      </trkpt>
      <trkpt lat="45.99002" lon="6.54393">
        <ele>1268.6</ele>
        <time>2019-03-18T10:33:47Z</time>
      </trkpt>
      <trkpt lat="45.99" lon="6.54394">
        <ele>1269.08</ele>
        <time>2019-03-18T10:33:48Z</time>
      </trkpt>
      <trkpt lat="45.99" lon="6.54393">
        <ele>1269.08</ele>
        <time>2019-03-18T10:33:49Z</time>
      </trkpt>
      <trkpt lat="45.98998" lon="6.54393">
        <ele>1269.56</ele>
        <time>2019-03-18T10:33:51Z</time>
      </trkpt>
      <trkpt lat="45.98993" lon="6.54395">
        <ele>1271</ele>
        <time>2019-03-18T10:33:57Z</time>
      </trkpt>
      <trkpt lat="45.98992" lon="6.54396">
        <ele>1271</ele>
        <time>2019-03-18T10:33:58Z</time>
      </trkpt>
      <trkpt lat="45.98984" lon="6.54394">
        <ele>1273.88</ele>
        <time>2019-03-18T10:34:12Z</time>
      </trkpt>
      <trkpt lat="45.98976" lon="6.54396">
        <ele>1276.29</ele>
        <time>2019-03-18T10:34:23Z</time>
      </trkpt>
      <trkpt lat="45.98974" lon="6.54397">
        <ele>1277.73</ele>
        <time>2019-03-18T10:34:28Z</time>
      </trkpt>
      <trkpt lat="45.98973" lon="6.544">
        <ele>1278.21</ele>
        <time>2019-03-18T10:34:31Z</time>
      </trkpt>
      <trkpt lat="45.98971" lon="6.54401">
        <ele>1278.69</ele>
        <time>2019-03-18T10:34:33Z</time>
      </trkpt>
      <trkpt lat="45.98968" lon="6.54403">
        <ele>1279.17</ele>
        <time>2019-03-18T10:34:36Z</time>
      </trkpt>
      <trkpt lat="45.98967" lon="6.54404">
        <ele>1279.65</ele>
        <time>2019-03-18T10:34:38Z</time>
      </trkpt>
      <trkpt lat="45.98965" lon="6.54406">
        <ele>1280.13</ele>
        <time>2019-03-18T10:34:40Z</time>
      </trkpt>
      <trkpt lat="45.98957" lon="6.54407">
        <ele>1283.02</ele>
        <time>2019-03-18T10:34:53Z</time>
      </trkpt>
      <trkpt lat="45.98956" lon="6.54408">
        <ele>1283.02</ele>
        <time>2019-03-18T10:34:54Z</time>
      </trkpt>
      <trkpt lat="45.98949" lon="6.54405">
        <ele>1285.42</ele>
        <time>2019-03-18T10:35:03Z</time>
      </trkpt>
      <trkpt lat="45.98947" lon="6.54403">
        <ele>1285.9</ele>
        <time>2019-03-18T10:35:07Z</time>
      </trkpt>
      <trkpt lat="45.98939" lon="6.54408">
        <ele>1288.78</ele>
        <time>2019-03-18T10:35:18Z</time>
      </trkpt>
      <trkpt lat="45.98937" lon="6.54409">
        <ele>1288.78</ele>
        <time>2019-03-18T10:35:20Z</time>
      </trkpt>
      <trkpt lat="45.98928" lon="6.54418">
        <ele>1292.15</ele>
        <time>2019-03-18T10:35:34Z</time>
      </trkpt>
      <trkpt lat="45.98924" lon="6.5442">
        <ele>1293.11</ele>
        <time>2019-03-18T10:35:41Z</time>
      </trkpt>
      <trkpt lat="45.98911" lon="6.54423">
        <ele>1295.99</ele>
        <time>2019-03-18T10:35:55Z</time>
      </trkpt>
      <trkpt lat="45.98902" lon="6.54424">
        <ele>1297.44</ele>
        <time>2019-03-18T10:36:06Z</time>
      </trkpt>
      <trkpt lat="45.98898" lon="6.54425">
        <ele>1298.4</ele>
        <time>2019-03-18T10:36:11Z</time>
      </trkpt>
      <trkpt lat="45.98897" lon="6.54425">
        <ele>1298.4</ele>
        <time>2019-03-18T10:36:12Z</time>
      </trkpt>
      <trkpt lat="45.98896" lon="6.54425">
        <ele>1298.4</ele>
        <time>2019-03-18T10:36:13Z</time>
      </trkpt>
      <trkpt lat="45.9889" lon="6.54429">
        <ele>1299.36</ele>
        <time>2019-03-18T10:36:19Z</time>
      </trkpt>
      <trkpt lat="45.98888" lon="6.5443">
        <ele>1299.84</ele>
        <time>2019-03-18T10:36:21Z</time>
      </trkpt>
      <trkpt lat="45.98886" lon="6.54429">
        <ele>1299.84</ele>
        <time>2019-03-18T10:36:23Z</time>
      </trkpt>
      <trkpt lat="45.98886" lon="6.54429">
        <ele>1300.32</ele>
        <time>2019-03-18T10:36:24Z</time>
      </trkpt>
      <trkpt lat="45.98885" lon="6.54429">
        <ele>1300.32</ele>
        <time>2019-03-18T10:36:25Z</time>
      </trkpt>
      <trkpt lat="45.98881" lon="6.54428">
        <ele>1300.8</ele>
        <time>2019-03-18T10:36:29Z</time>
      </trkpt>
      <trkpt lat="45.98878" lon="6.54428">
        <ele>1300.8</ele>
        <time>2019-03-18T10:36:32Z</time>
      </trkpt>
      <trkpt lat="45.9887" lon="6.5443">
        <ele>1301.76</ele>
        <time>2019-03-18T10:36:40Z</time>
      </trkpt>
      <trkpt lat="45.98868" lon="6.54431">
        <ele>1302.24</ele>
        <time>2019-03-18T10:36:42Z</time>
      </trkpt>
      <trkpt lat="45.98866" lon="6.5443">
        <ele>1302.72</ele>
        <time>2019-03-18T10:36:46Z</time>
      </trkpt>
      <trkpt lat="45.98863" lon="6.54431">
        <ele>1303.2</ele>
        <time>2019-03-18T10:36:50Z</time>
      </trkpt>
      <trkpt lat="45.98862" lon="6.54431">
        <ele>1303.69</ele>
        <time>2019-03-18T10:36:51Z</time>
      </trkpt>
      <trkpt lat="45.98859" lon="6.54429">
        <ele>1304.65</ele>
        <time>2019-03-18T10:36:56Z</time>
      </trkpt>
      <trkpt lat="45.98858" lon="6.54429">
        <ele>1304.65</ele>
        <time>2019-03-18T10:36:57Z</time>
      </trkpt>
      <trkpt lat="45.98857" lon="6.54429">
        <ele>1305.13</ele>
        <time>2019-03-18T10:36:58Z</time>
      </trkpt>
      <trkpt lat="45.98857" lon="6.54428">
        <ele>1305.13</ele>
        <time>2019-03-18T10:36:59Z</time>
      </trkpt>
      <trkpt lat="45.9885" lon="6.54424">
        <ele>1306.57</ele>
        <time>2019-03-18T10:37:08Z</time>
      </trkpt>
      <trkpt lat="45.98849" lon="6.54423">
        <ele>1306.57</ele>
        <time>2019-03-18T10:37:09Z</time>
      </trkpt>
      <trkpt lat="45.98848" lon="6.54422">
        <ele>1306.57</ele>
        <time>2019-03-18T10:37:10Z</time>
      </trkpt>
      <trkpt lat="45.98844" lon="6.54423">
        <ele>1307.53</ele>
        <time>2019-03-18T10:37:15Z</time>
      </trkpt>
      <trkpt lat="45.98843" lon="6.54423">
        <ele>1307.53</ele>
        <time>2019-03-18T10:37:16Z</time>
      </trkpt>
      <trkpt lat="45.98839" lon="6.54423">
        <ele>1307.53</ele>
        <time>2019-03-18T10:37:19Z</time>
      </trkpt>
      <trkpt lat="45.98838" lon="6.54423">
        <ele>1308.01</ele>
        <time>2019-03-18T10:37:20Z</time>
      </trkpt>
      <trkpt lat="45.98836" lon="6.54424">
        <ele>1308.49</ele>
        <time>2019-03-18T10:37:23Z</time>
      </trkpt>
      <trkpt lat="45.98833" lon="6.54425">
        <ele>1308.97</ele>
        <time>2019-03-18T10:37:27Z</time>
      </trkpt>
      <trkpt lat="45.98832" lon="6.54426">
        <ele>1308.97</ele>
        <time>2019-03-18T10:37:28Z</time>
      </trkpt>
      <trkpt lat="45.98831" lon="6.54427">
        <ele>1308.97</ele>
        <time>2019-03-18T10:37:29Z</time>
      </trkpt>
      <trkpt lat="45.9883" lon="6.54427">
        <ele>1308.97</ele>
        <time>2019-03-18T10:37:30Z</time>
      </trkpt>
      <trkpt lat="45.98819" lon="6.54425">
        <ele>1310.9</ele>
        <time>2019-03-18T10:37:41Z</time>
      </trkpt>
      <trkpt lat="45.98817" lon="6.54425">
        <ele>1311.38</ele>
        <time>2019-03-18T10:37:43Z</time>
      </trkpt>
      <trkpt lat="45.98813" lon="6.54425">
        <ele>1311.86</ele>
        <time>2019-03-18T10:37:48Z</time>
      </trkpt>
      <trkpt lat="45.98811" lon="6.54425">
        <ele>1312.34</ele>
        <time>2019-03-18T10:37:50Z</time>
      </trkpt>
      <trkpt lat="45.9881" lon="6.54425">
        <ele>1312.34</ele>
        <time>2019-03-18T10:37:51Z</time>
      </trkpt>
      <trkpt lat="45.98809" lon="6.54425">
        <ele>1312.34</ele>
        <time>2019-03-18T10:37:52Z</time>
      </trkpt>
      <trkpt lat="45.98807" lon="6.54424">
        <ele>1312.34</ele>
        <time>2019-03-18T10:37:54Z</time>
      </trkpt>
      <trkpt lat="45.98806" lon="6.54423">
        <ele>1312.82</ele>
        <time>2019-03-18T10:37:55Z</time>
      </trkpt>
      <trkpt lat="45.98805" lon="6.54423">
        <ele>1312.82</ele>
        <time>2019-03-18T10:37:56Z</time>
      </trkpt>
      <trkpt lat="45.98804" lon="6.54423">
        <ele>1312.82</ele>
        <time>2019-03-18T10:37:57Z</time>
      </trkpt>
      <trkpt lat="45.98803" lon="6.54423">
        <ele>1312.82</ele>
        <time>2019-03-18T10:37:58Z</time>
      </trkpt>
      <trkpt lat="45.98797" lon="6.54423">
        <ele>1313.78</ele>
        <time>2019-03-18T10:38:05Z</time>
      </trkpt>
      <trkpt lat="45.98795" lon="6.54423">
        <ele>1313.78</ele>
        <time>2019-03-18T10:38:07Z</time>
      </trkpt>
      <trkpt lat="45.98779" lon="6.54415">
        <ele>1316.18</ele>
        <time>2019-03-18T10:38:24Z</time>
      </trkpt>
      <trkpt lat="45.98778" lon="6.54414">
        <ele>1316.18</ele>
        <time>2019-03-18T10:38:25Z</time>
      </trkpt>
      <trkpt lat="45.98774" lon="6.54412">
        <ele>1316.18</ele>
        <time>2019-03-18T10:38:29Z</time>
      </trkpt>
      <trkpt lat="45.98768" lon="6.5441">
        <ele>1316.18</ele>
        <time>2019-03-18T10:38:34Z</time>
      </trkpt>
      <trkpt lat="45.98767" lon="6.5441">
        <ele>1316.18</ele>
        <time>2019-03-18T10:38:35Z</time>
      </trkpt>
      <trkpt lat="45.98766" lon="6.5441">
        <ele>1316.18</ele>
        <time>2019-03-18T10:38:36Z</time>
      </trkpt>
      <trkpt lat="45.98758" lon="6.54408">
        <ele>1317.14</ele>
        <time>2019-03-18T10:38:45Z</time>
      </trkpt>
      <trkpt lat="45.98757" lon="6.54408">
        <ele>1317.14</ele>
        <time>2019-03-18T10:38:46Z</time>
      </trkpt>
      <trkpt lat="45.98755" lon="6.54408">
        <ele>1317.14</ele>
        <time>2019-03-18T10:38:47Z</time>
      </trkpt>
      <trkpt lat="45.98754" lon="6.54408">
        <ele>1317.14</ele>
        <time>2019-03-18T10:38:48Z</time>
      </trkpt>
      <trkpt lat="45.98753" lon="6.54408">
        <ele>1317.14</ele>
        <time>2019-03-18T10:38:49Z</time>
      </trkpt>
      <trkpt lat="45.98752" lon="6.54408">
        <ele>1317.62</ele>
        <time>2019-03-18T10:38:50Z</time>
      </trkpt>
      <trkpt lat="45.98751" lon="6.54408">
        <ele>1317.62</ele>
        <time>2019-03-18T10:38:51Z</time>
      </trkpt>
      <trkpt lat="45.98743" lon="6.54402">
        <ele>1318.59</ele>
        <time>2019-03-18T10:38:59Z</time>
      </trkpt>
      <trkpt lat="45.98743" lon="6.54402">
        <ele>1318.59</ele>
        <time>2019-03-18T10:39:00Z</time>
      </trkpt>
      <trkpt lat="45.98731" lon="6.54396">
        <ele>1318.59</ele>
        <time>2019-03-18T10:39:10Z</time>
      </trkpt>
      <trkpt lat="45.98729" lon="6.54395">
        <ele>1319.07</ele>
        <time>2019-03-18T10:39:11Z</time>
      </trkpt>
      <trkpt lat="45.98723" lon="6.54393">
        <ele>1320.03</ele>
        <time>2019-03-18T10:39:18Z</time>
      </trkpt>
      <trkpt lat="45.98716" lon="6.54391">
        <ele>1321.47</ele>
        <time>2019-03-18T10:39:29Z</time>
      </trkpt>
      <trkpt lat="45.98715" lon="6.54391">
        <ele>1321.47</ele>
        <time>2019-03-18T10:39:30Z</time>
      </trkpt>
      <trkpt lat="45.98687" lon="6.54391">
        <ele>1323.87</ele>
        <time>2019-03-18T10:39:52Z</time>
      </trkpt>
      <trkpt lat="45.98668" lon="6.54378">
        <ele>1325.31</ele>
        <time>2019-03-18T10:40:11Z</time>
      </trkpt>
      <trkpt lat="45.98667" lon="6.54378">
        <ele>1325.8</ele>
        <time>2019-03-18T10:40:12Z</time>
      </trkpt>
      <trkpt lat="45.98666" lon="6.54378">
        <ele>1325.8</ele>
        <time>2019-03-18T10:40:13Z</time>
      </trkpt>
      <trkpt lat="45.98658" lon="6.54377">
        <ele>1327.24</ele>
        <time>2019-03-18T10:40:23Z</time>
      </trkpt>
      <trkpt lat="45.98653" lon="6.54377">
        <ele>1328.2</ele>
        <time>2019-03-18T10:40:28Z</time>
      </trkpt>
      <trkpt lat="45.98652" lon="6.54377">
        <ele>1328.2</ele>
        <time>2019-03-18T10:40:30Z</time>
      </trkpt>
      <trkpt lat="45.98651" lon="6.54376">
        <ele>1328.2</ele>
        <time>2019-03-18T10:40:31Z</time>
      </trkpt>
      <trkpt lat="45.9863" lon="6.54379">
        <ele>1330.12</ele>
        <time>2019-03-18T10:40:53Z</time>
      </trkpt>
      <trkpt lat="45.98629" lon="6.54379">
        <ele>1330.6</ele>
        <time>2019-03-18T10:40:54Z</time>
      </trkpt>
      <trkpt lat="45.98618" lon="6.54384">
        <ele>1333.49</ele>
        <time>2019-03-18T10:41:07Z</time>
      </trkpt>
      <trkpt lat="45.98616" lon="6.54385">
        <ele>1334.45</ele>
        <time>2019-03-18T10:41:11Z</time>
      </trkpt>
      <trkpt lat="45.986" lon="6.54382">
        <ele>1337.33</ele>
        <time>2019-03-18T10:41:29Z</time>
      </trkpt>
      <trkpt lat="45.98586" lon="6.54378">
        <ele>1338.77</ele>
        <time>2019-03-18T10:41:44Z</time>
      </trkpt>
      <trkpt lat="45.98579" lon="6.54374">
        <ele>1339.73</ele>
        <time>2019-03-18T10:41:53Z</time>
      </trkpt>
      <trkpt lat="45.98577" lon="6.54372">
        <ele>1339.73</ele>
        <time>2019-03-18T10:41:54Z</time>
      </trkpt>
      <trkpt lat="45.98575" lon="6.54372">
        <ele>1340.22</ele>
        <time>2019-03-18T10:41:56Z</time>
      </trkpt>
      <trkpt lat="45.98572" lon="6.54371">
        <ele>1340.7</ele>
        <time>2019-03-18T10:42:00Z</time>
      </trkpt>
      <trkpt lat="45.98548" lon="6.54365">
        <ele>1341.66</ele>
        <time>2019-03-18T10:42:17Z</time>
      </trkpt>
      <trkpt lat="45.98546" lon="6.54364">
        <ele>1341.66</ele>
        <time>2019-03-18T10:42:18Z</time>
      </trkpt>
      <trkpt lat="45.98545" lon="6.54363">
        <ele>1341.66</ele>
        <time>2019-03-18T10:42:19Z</time>
      </trkpt>
      <trkpt lat="45.98544" lon="6.54363">
        <ele>1341.66</ele>
        <time>2019-03-18T10:42:20Z</time>
      </trkpt>
      <trkpt lat="45.98543" lon="6.54362">
        <ele>1341.66</ele>
        <time>2019-03-18T10:42:21Z</time>
      </trkpt>
      <trkpt lat="45.98543" lon="6.54362">
        <ele>1341.66</ele>
        <time>2019-03-18T10:42:22Z</time>
      </trkpt>
      <trkpt lat="45.98541" lon="6.54362">
        <ele>1341.66</ele>
        <time>2019-03-18T10:42:23Z</time>
      </trkpt>
      <trkpt lat="45.98541" lon="6.54362">
        <ele>1342.14</ele>
        <time>2019-03-18T10:42:24Z</time>
      </trkpt>
      <trkpt lat="45.9854" lon="6.54362">
        <ele>1342.14</ele>
        <time>2019-03-18T10:42:25Z</time>
      </trkpt>
      <trkpt lat="45.98532" lon="6.5436">
        <ele>1342.62</ele>
        <time>2019-03-18T10:42:32Z</time>
      </trkpt>
      <trkpt lat="45.98531" lon="6.5436">
        <ele>1342.62</ele>
        <time>2019-03-18T10:42:33Z</time>
      </trkpt>
      <trkpt lat="45.9853" lon="6.5436">
        <ele>1342.62</ele>
        <time>2019-03-18T10:42:34Z</time>
      </trkpt>
      <trkpt lat="45.98487" lon="6.54342">
        <ele>1341.18</ele>
        <time>2019-03-18T10:43:11Z</time>
      </trkpt>
      <trkpt lat="45.98477" lon="6.54328">
        <ele>1340.7</ele>
        <time>2019-03-18T10:43:20Z</time>
      </trkpt>
      <trkpt lat="45.98476" lon="6.54326">
        <ele>1340.7</ele>
        <time>2019-03-18T10:43:21Z</time>
      </trkpt>
      <trkpt lat="45.98475" lon="6.54325">
        <ele>1340.7</ele>
        <time>2019-03-18T10:43:22Z</time>
      </trkpt>
      <trkpt lat="45.98474" lon="6.54323">
        <ele>1340.22</ele>
        <time>2019-03-18T10:43:23Z</time>
      </trkpt>
      <trkpt lat="45.98473" lon="6.54322">
        <ele>1340.22</ele>
        <time>2019-03-18T10:43:24Z</time>
      </trkpt>
      <trkpt lat="45.98473" lon="6.54321">
        <ele>1340.22</ele>
        <time>2019-03-18T10:43:25Z</time>
      </trkpt>
      <trkpt lat="45.98471" lon="6.54319">
        <ele>1340.22</ele>
        <time>2019-03-18T10:43:26Z</time>
      </trkpt>
      <trkpt lat="45.9847" lon="6.54318">
        <ele>1340.22</ele>
        <time>2019-03-18T10:43:27Z</time>
      </trkpt>
      <trkpt lat="45.98463" lon="6.54308">
        <ele>1340.22</ele>
        <time>2019-03-18T10:43:35Z</time>
      </trkpt>
      <trkpt lat="45.98463" lon="6.54308">
        <ele>1340.22</ele>
        <time>2019-03-18T10:43:36Z</time>
      </trkpt>
      <trkpt lat="45.98439" lon="6.54283">
        <ele>1343.1</ele>
        <time>2019-03-18T10:44:07Z</time>
      </trkpt>
      <trkpt lat="45.98418" lon="6.54286">
        <ele>1345.98</ele>
        <time>2019-03-18T10:44:34Z</time>
      </trkpt>
      <trkpt lat="45.98386" lon="6.54287">
        <ele>1348.39</ele>
        <time>2019-03-18T10:45:05Z</time>
      </trkpt>
      <trkpt lat="45.98385" lon="6.54287">
        <ele>1348.39</ele>
        <time>2019-03-18T10:45:06Z</time>
      </trkpt>
      <trkpt lat="45.98355" lon="6.54285">
        <ele>1351.75</ele>
        <time>2019-03-18T10:45:39Z</time>
      </trkpt>
      <trkpt lat="45.98319" lon="6.54292">
        <ele>1353.67</ele>
        <time>2019-03-18T10:46:20Z</time>
      </trkpt>
      <trkpt lat="45.98316" lon="6.54285">
        <ele>1354.15</ele>
        <time>2019-03-18T10:46:28Z</time>
      </trkpt>
      <trkpt lat="45.98314" lon="6.54283">
        <ele>1354.63</ele>
        <time>2019-03-18T10:46:32Z</time>
      </trkpt>
      <trkpt lat="45.98313" lon="6.54282">
        <ele>1354.63</ele>
        <time>2019-03-18T10:46:33Z</time>
      </trkpt>
      <trkpt lat="45.98313" lon="6.54281">
        <ele>1354.63</ele>
        <time>2019-03-18T10:46:34Z</time>
      </trkpt>
      <trkpt lat="45.98312" lon="6.54281">
        <ele>1354.63</ele>
        <time>2019-03-18T10:46:35Z</time>
      </trkpt>
      <trkpt lat="45.98311" lon="6.54281">
        <ele>1355.12</ele>
        <time>2019-03-18T10:46:36Z</time>
      </trkpt>
      <trkpt lat="45.98304" lon="6.54279">
        <ele>1355.6</ele>
        <time>2019-03-18T10:46:46Z</time>
      </trkpt>
      <trkpt lat="45.98261" lon="6.54259">
        <ele>1358</ele>
        <time>2019-03-18T10:47:38Z</time>
      </trkpt>
      <trkpt lat="45.98215" lon="6.54241">
        <ele>1360.4</ele>
        <time>2019-03-18T10:48:22Z</time>
      </trkpt>
      <trkpt lat="45.98168" lon="6.54224">
        <ele>1363.29</ele>
        <time>2019-03-18T10:49:06Z</time>
      </trkpt>
      <trkpt lat="45.98127" lon="6.54201">
        <ele>1366.17</ele>
        <time>2019-03-18T10:49:49Z</time>
      </trkpt>
      <trkpt lat="45.98122" lon="6.54195">
        <ele>1366.65</ele>
        <time>2019-03-18T10:49:56Z</time>
      </trkpt>
      <trkpt lat="45.98121" lon="6.54194">
        <ele>1367.13</ele>
        <time>2019-03-18T10:49:57Z</time>
      </trkpt>
      <trkpt lat="45.9812" lon="6.54193">
        <ele>1367.13</ele>
        <time>2019-03-18T10:49:58Z</time>
      </trkpt>
      <trkpt lat="45.98112" lon="6.54185">
        <ele>1368.57</ele>
        <time>2019-03-18T10:50:08Z</time>
      </trkpt>
      <trkpt lat="45.98111" lon="6.54183">
        <ele>1368.57</ele>
        <time>2019-03-18T10:50:09Z</time>
      </trkpt>
      <trkpt lat="45.98089" lon="6.54163">
        <ele>1371.46</ele>
        <time>2019-03-18T10:50:36Z</time>
      </trkpt>
      <trkpt lat="45.98088" lon="6.54162">
        <ele>1371.46</ele>
        <time>2019-03-18T10:50:37Z</time>
      </trkpt>
      <trkpt lat="45.98087" lon="6.54161">
        <ele>1371.46</ele>
        <time>2019-03-18T10:50:38Z</time>
      </trkpt>
      <trkpt lat="45.98085" lon="6.54159">
        <ele>1371.94</ele>
        <time>2019-03-18T10:50:41Z</time>
      </trkpt>
      <trkpt lat="45.98085" lon="6.54157">
        <ele>1371.94</ele>
        <time>2019-03-18T10:50:42Z</time>
      </trkpt>
      <trkpt lat="45.98074" lon="6.54144">
        <ele>1372.42</ele>
        <time>2019-03-18T10:50:55Z</time>
      </trkpt>
      <trkpt lat="45.98074" lon="6.54143">
        <ele>1372.42</ele>
        <time>2019-03-18T10:50:56Z</time>
      </trkpt>
      <trkpt lat="45.98073" lon="6.54142">
        <ele>1372.42</ele>
        <time>2019-03-18T10:50:57Z</time>
      </trkpt>
      <trkpt lat="45.98063" lon="6.54122">
        <ele>1374.82</ele>
        <time>2019-03-18T10:51:16Z</time>
      </trkpt>
      <trkpt lat="45.98054" lon="6.5411">
        <ele>1377.71</ele>
        <time>2019-03-18T10:51:33Z</time>
      </trkpt>
      <trkpt lat="45.98047" lon="6.54105">
        <ele>1380.59</ele>
        <time>2019-03-18T10:51:51Z</time>
      </trkpt>
      <trkpt lat="45.98039" lon="6.54102">
        <ele>1383.96</ele>
        <time>2019-03-18T10:52:06Z</time>
      </trkpt>
      <trkpt lat="45.98029" lon="6.54107">
        <ele>1386.84</ele>
        <time>2019-03-18T10:52:22Z</time>
      </trkpt>
      <trkpt lat="45.98021" lon="6.54106">
        <ele>1388.76</ele>
        <time>2019-03-18T10:52:30Z</time>
      </trkpt>
      <trkpt lat="45.9801" lon="6.541">
        <ele>1392.13</ele>
        <time>2019-03-18T10:52:44Z</time>
      </trkpt>
      <trkpt lat="45.98004" lon="6.54093">
        <ele>1394.53</ele>
        <time>2019-03-18T10:52:57Z</time>
      </trkpt>
      <trkpt lat="45.98005" lon="6.54081">
        <ele>1397.41</ele>
        <time>2019-03-18T10:53:10Z</time>
      </trkpt>
      <trkpt lat="45.97999" lon="6.54075">
        <ele>1399.82</ele>
        <time>2019-03-18T10:53:22Z</time>
      </trkpt>
      <trkpt lat="45.97991" lon="6.54075">
        <ele>1402.7</ele>
        <time>2019-03-18T10:53:35Z</time>
      </trkpt>
      <trkpt lat="45.97991" lon="6.54075">
        <ele>1402.7</ele>
        <time>2019-03-18T10:53:36Z</time>
      </trkpt>
      <trkpt lat="45.97989" lon="6.54072">
        <ele>1403.18</ele>
        <time>2019-03-18T10:53:40Z</time>
      </trkpt>
      <trkpt lat="45.97988" lon="6.54071">
        <ele>1403.66</ele>
        <time>2019-03-18T10:53:42Z</time>
      </trkpt>
      <trkpt lat="45.97983" lon="6.54059">
        <ele>1406.07</ele>
        <time>2019-03-18T10:53:55Z</time>
      </trkpt>
      <trkpt lat="45.97989" lon="6.54049">
        <ele>1409.43</ele>
        <time>2019-03-18T10:54:15Z</time>
      </trkpt>
      <trkpt lat="45.97993" lon="6.54045">
        <ele>1410.39</ele>
        <time>2019-03-18T10:54:22Z</time>
      </trkpt>
      <trkpt lat="45.97998" lon="6.5404">
        <ele>1411.83</ele>
        <time>2019-03-18T10:54:29Z</time>
      </trkpt>
      <trkpt lat="45.98" lon="6.54038">
        <ele>1412.31</ele>
        <time>2019-03-18T10:54:31Z</time>
      </trkpt>
      <trkpt lat="45.98001" lon="6.54038">
        <ele>1412.79</ele>
        <time>2019-03-18T10:54:32Z</time>
      </trkpt>
      <trkpt lat="45.98002" lon="6.54037">
        <ele>1412.79</ele>
        <time>2019-03-18T10:54:33Z</time>
      </trkpt>
      <trkpt lat="45.98001" lon="6.54027">
        <ele>1415.2</ele>
        <time>2019-03-18T10:55:26Z</time>
      </trkpt>
      <trkpt lat="45.97994" lon="6.54023">
        <ele>1416.64</ele>
        <time>2019-03-18T10:55:37Z</time>
      </trkpt>
      <trkpt lat="45.97993" lon="6.54023">
        <ele>1416.64</ele>
        <time>2019-03-18T10:55:38Z</time>
      </trkpt>
      <trkpt lat="45.97979" lon="6.54014">
        <ele>1420</ele>
        <time>2019-03-18T10:55:59Z</time>
      </trkpt>
      <trkpt lat="45.97975" lon="6.54013">
        <ele>1420.49</ele>
        <time>2019-03-18T10:56:03Z</time>
      </trkpt>
      <trkpt lat="45.97974" lon="6.54012">
        <ele>1420.97</ele>
        <time>2019-03-18T10:56:04Z</time>
      </trkpt>
      <trkpt lat="45.97973" lon="6.54012">
        <ele>1420.97</ele>
        <time>2019-03-18T10:56:05Z</time>
      </trkpt>
      <trkpt lat="45.97961" lon="6.54007">
        <ele>1424.33</ele>
        <time>2019-03-18T10:56:22Z</time>
      </trkpt>
      <trkpt lat="45.97961" lon="6.54006">
        <ele>1424.33</ele>
        <time>2019-03-18T10:56:23Z</time>
      </trkpt>
      <trkpt lat="45.97959" lon="6.54005">
        <ele>1424.81</ele>
        <time>2019-03-18T10:56:25Z</time>
      </trkpt>
      <trkpt lat="45.97947" lon="6.53995">
        <ele>1427.21</ele>
        <time>2019-03-18T10:56:43Z</time>
      </trkpt>
      <trkpt lat="45.97945" lon="6.53995">
        <ele>1427.21</ele>
        <time>2019-03-18T10:56:45Z</time>
      </trkpt>
      <trkpt lat="45.97941" lon="6.53992">
        <ele>1428.18</ele>
        <time>2019-03-18T10:56:52Z</time>
      </trkpt>
      <trkpt lat="45.97938" lon="6.53991">
        <ele>1429.14</ele>
        <time>2019-03-18T10:56:56Z</time>
      </trkpt>
      <trkpt lat="45.9793" lon="6.53989">
        <ele>1430.58</ele>
        <time>2019-03-18T10:57:07Z</time>
      </trkpt>
      <trkpt lat="45.97927" lon="6.53988">
        <ele>1431.06</ele>
        <time>2019-03-18T10:57:10Z</time>
      </trkpt>
      <trkpt lat="45.97923" lon="6.53985">
        <ele>1431.54</ele>
        <time>2019-03-18T10:57:16Z</time>
      </trkpt>
      <trkpt lat="45.9792" lon="6.53982">
        <ele>1432.02</ele>
        <time>2019-03-18T10:57:21Z</time>
      </trkpt>
      <trkpt lat="45.97913" lon="6.53978">
        <ele>1432.98</ele>
        <time>2019-03-18T10:57:30Z</time>
      </trkpt>
      <trkpt lat="45.97912" lon="6.53978">
        <ele>1432.98</ele>
        <time>2019-03-18T10:57:31Z</time>
      </trkpt>
      <trkpt lat="45.97908" lon="6.53976">
        <ele>1432.98</ele>
        <time>2019-03-18T10:57:56Z</time>
      </trkpt>
      <trkpt lat="45.97909" lon="6.53975">
        <ele>1432.98</ele>
        <time>2019-03-18T10:58:10Z</time>
      </trkpt>
      <trkpt lat="45.97909" lon="6.53976">
        <ele>1432.98</ele>
        <time>2019-03-18T10:58:23Z</time>
      </trkpt>
      <trkpt lat="45.9791" lon="6.53976">
        <ele>1432.98</ele>
        <time>2019-03-18T10:58:36Z</time>
      </trkpt>
      <trkpt lat="45.97908" lon="6.53977">
        <ele>1432.98</ele>
        <time>2019-03-18T10:58:50Z</time>
      </trkpt>
      <trkpt lat="45.97906" lon="6.53976">
        <ele>1432.98</ele>
        <time>2019-03-18T10:59:04Z</time>
      </trkpt>
      <trkpt lat="45.97906" lon="6.53976">
        <ele>1432.98</ele>
        <time>2019-03-18T10:59:23Z</time>
      </trkpt>
      <trkpt lat="45.97908" lon="6.53977">
        <ele>1433.46</ele>
        <time>2019-03-18T10:59:39Z</time>
      </trkpt>
      <trkpt lat="45.97905" lon="6.53975">
        <ele>1433.46</ele>
        <time>2019-03-18T10:59:49Z</time>
      </trkpt>
      <trkpt lat="45.97905" lon="6.53975">
        <ele>1433.46</ele>
        <time>2019-03-18T10:59:50Z</time>
      </trkpt>
      <trkpt lat="45.97886" lon="6.53966">
        <ele>1435.39</ele>
        <time>2019-03-18T11:00:11Z</time>
      </trkpt>
      <trkpt lat="45.97885" lon="6.53966">
        <ele>1435.39</ele>
        <time>2019-03-18T11:00:13Z</time>
      </trkpt>
      <trkpt lat="45.97883" lon="6.53965">
        <ele>1435.87</ele>
        <time>2019-03-18T11:00:15Z</time>
      </trkpt>
      <trkpt lat="45.97879" lon="6.53965">
        <ele>1436.35</ele>
        <time>2019-03-18T11:00:20Z</time>
      </trkpt>
      <trkpt lat="45.9785" lon="6.53956">
        <ele>1439.23</ele>
        <time>2019-03-18T11:00:52Z</time>
      </trkpt>
      <trkpt lat="45.97813" lon="6.53933">
        <ele>1442.6</ele>
        <time>2019-03-18T11:01:32Z</time>
      </trkpt>
      <trkpt lat="45.97794" lon="6.5392">
        <ele>1444.04</ele>
        <time>2019-03-18T11:01:52Z</time>
      </trkpt>
      <trkpt lat="45.97793" lon="6.53919">
        <ele>1444.52</ele>
        <time>2019-03-18T11:01:53Z</time>
      </trkpt>
      <trkpt lat="45.97792" lon="6.53918">
        <ele>1444.52</ele>
        <time>2019-03-18T11:01:54Z</time>
      </trkpt>
      <trkpt lat="45.97756" lon="6.53881">
        <ele>1446.92</ele>
        <time>2019-03-18T11:02:39Z</time>
      </trkpt>
      <trkpt lat="45.97754" lon="6.53881">
        <ele>1446.92</ele>
        <time>2019-03-18T11:02:40Z</time>
      </trkpt>
      <trkpt lat="45.97753" lon="6.5388">
        <ele>1446.92</ele>
        <time>2019-03-18T11:02:41Z</time>
      </trkpt>
      <trkpt lat="45.97752" lon="6.53879">
        <ele>1447.4</ele>
        <time>2019-03-18T11:02:42Z</time>
      </trkpt>
      <trkpt lat="45.9775" lon="6.53877">
        <ele>1447.4</ele>
        <time>2019-03-18T11:02:45Z</time>
      </trkpt>
      <trkpt lat="45.97749" lon="6.53876">
        <ele>1447.4</ele>
        <time>2019-03-18T11:02:46Z</time>
      </trkpt>
      <trkpt lat="45.97746" lon="6.53875">
        <ele>1447.4</ele>
        <time>2019-03-18T11:02:48Z</time>
      </trkpt>
      <trkpt lat="45.97746" lon="6.53874">
        <ele>1447.4</ele>
        <time>2019-03-18T11:02:49Z</time>
      </trkpt>
      <trkpt lat="45.97745" lon="6.53873">
        <ele>1447.4</ele>
        <time>2019-03-18T11:02:50Z</time>
      </trkpt>
      <trkpt lat="45.97744" lon="6.53872">
        <ele>1447.4</ele>
        <time>2019-03-18T11:02:51Z</time>
      </trkpt>
      <trkpt lat="45.97743" lon="6.53871">
        <ele>1447.4</ele>
        <time>2019-03-18T11:02:52Z</time>
      </trkpt>
      <trkpt lat="45.97742" lon="6.5387">
        <ele>1447.4</ele>
        <time>2019-03-18T11:02:53Z</time>
      </trkpt>
      <trkpt lat="45.97716" lon="6.53847">
        <ele>1448.84</ele>
        <time>2019-03-18T11:03:23Z</time>
      </trkpt>
      <trkpt lat="45.9769" lon="6.53829">
        <ele>1450.29</ele>
        <time>2019-03-18T11:03:52Z</time>
      </trkpt>
      <trkpt lat="45.97689" lon="6.53828">
        <ele>1450.77</ele>
        <time>2019-03-18T11:03:53Z</time>
      </trkpt>
      <trkpt lat="45.97672" lon="6.53819">
        <ele>1451.25</ele>
        <time>2019-03-18T11:04:10Z</time>
      </trkpt>
      <trkpt lat="45.97671" lon="6.53818">
        <ele>1451.73</ele>
        <time>2019-03-18T11:04:12Z</time>
      </trkpt>
      <trkpt lat="45.9767" lon="6.53817">
        <ele>1451.73</ele>
        <time>2019-03-18T11:04:13Z</time>
      </trkpt>
      <trkpt lat="45.9766" lon="6.53808">
        <ele>1453.17</ele>
        <time>2019-03-18T11:04:26Z</time>
      </trkpt>
      <trkpt lat="45.97653" lon="6.53802">
        <ele>1454.13</ele>
        <time>2019-03-18T11:04:36Z</time>
      </trkpt>
      <trkpt lat="45.97652" lon="6.53801">
        <ele>1454.61</ele>
        <time>2019-03-18T11:04:37Z</time>
      </trkpt>
      <trkpt lat="45.97634" lon="6.53783">
        <ele>1457.5</ele>
        <time>2019-03-18T11:05:01Z</time>
      </trkpt>
      <trkpt lat="45.97633" lon="6.53782">
        <ele>1457.98</ele>
        <time>2019-03-18T11:05:02Z</time>
      </trkpt>
      <trkpt lat="45.97619" lon="6.53773">
        <ele>1460.86</ele>
        <time>2019-03-18T11:05:22Z</time>
      </trkpt>
      <trkpt lat="45.976" lon="6.53764">
        <ele>1464.23</ele>
        <time>2019-03-18T11:05:44Z</time>
      </trkpt>
      <trkpt lat="45.97588" lon="6.53755">
        <ele>1467.11</ele>
        <time>2019-03-18T11:06:02Z</time>
      </trkpt>
      <trkpt lat="45.97576" lon="6.53748">
        <ele>1469.99</ele>
        <time>2019-03-18T11:06:19Z</time>
      </trkpt>
      <trkpt lat="45.97574" lon="6.53746">
        <ele>1469.99</ele>
        <time>2019-03-18T11:06:22Z</time>
      </trkpt>
      <trkpt lat="45.97572" lon="6.53746">
        <ele>1470.47</ele>
        <time>2019-03-18T11:06:24Z</time>
      </trkpt>
      <trkpt lat="45.97571" lon="6.53746">
        <ele>1470.47</ele>
        <time>2019-03-18T11:06:25Z</time>
      </trkpt>
      <trkpt lat="45.9757" lon="6.53745">
        <ele>1470.47</ele>
        <time>2019-03-18T11:06:26Z</time>
      </trkpt>
      <trkpt lat="45.9757" lon="6.53745">
        <ele>1470.95</ele>
        <time>2019-03-18T11:06:27Z</time>
      </trkpt>
      <trkpt lat="45.97569" lon="6.53744">
        <ele>1471.44</ele>
        <time>2019-03-18T11:06:28Z</time>
      </trkpt>
      <trkpt lat="45.97539" lon="6.53737">
        <ele>1473.84</ele>
        <time>2019-03-18T11:07:00Z</time>
      </trkpt>
      <trkpt lat="45.9752" lon="6.53718">
        <ele>1472.88</ele>
        <time>2019-03-18T11:07:15Z</time>
      </trkpt>
      <trkpt lat="45.97519" lon="6.53717">
        <ele>1472.88</ele>
        <time>2019-03-18T11:07:16Z</time>
      </trkpt>
      <trkpt lat="45.97518" lon="6.53717">
        <ele>1472.88</ele>
        <time>2019-03-18T11:07:17Z</time>
      </trkpt>
      <trkpt lat="45.9751" lon="6.53708">
        <ele>1473.84</ele>
        <time>2019-03-18T11:07:27Z</time>
      </trkpt>
      <trkpt lat="45.97509" lon="6.53707">
        <ele>1473.84</ele>
        <time>2019-03-18T11:07:28Z</time>
      </trkpt>
      <trkpt lat="45.97508" lon="6.53706">
        <ele>1473.84</ele>
        <time>2019-03-18T11:07:29Z</time>
      </trkpt>
      <trkpt lat="45.97508" lon="6.53705">
        <ele>1473.84</ele>
        <time>2019-03-18T11:07:30Z</time>
      </trkpt>
      <trkpt lat="45.97507" lon="6.53704">
        <ele>1473.84</ele>
        <time>2019-03-18T11:07:31Z</time>
      </trkpt>
      <trkpt lat="45.97507" lon="6.53702">
        <ele>1473.84</ele>
        <time>2019-03-18T11:07:32Z</time>
      </trkpt>
      <trkpt lat="45.97507" lon="6.53701">
        <ele>1473.84</ele>
        <time>2019-03-18T11:07:33Z</time>
      </trkpt>
      <trkpt lat="45.97506" lon="6.537">
        <ele>1473.84</ele>
        <time>2019-03-18T11:07:34Z</time>
      </trkpt>
      <trkpt lat="45.97506" lon="6.53698">
        <ele>1473.84</ele>
        <time>2019-03-18T11:07:35Z</time>
      </trkpt>
      <trkpt lat="45.97496" lon="6.5366">
        <ele>1477.2</ele>
        <time>2019-03-18T11:08:07Z</time>
      </trkpt>
      <trkpt lat="45.97471" lon="6.53646">
        <ele>1477.68</ele>
        <time>2019-03-18T11:08:41Z</time>
      </trkpt>
      <trkpt lat="45.97471" lon="6.53648">
        <ele>1477.2</ele>
        <time>2019-03-18T11:08:42Z</time>
      </trkpt>
      <trkpt lat="45.97449" lon="6.53664">
        <ele>1475.76</ele>
        <time>2019-03-18T11:09:09Z</time>
      </trkpt>
      <trkpt lat="45.97446" lon="6.53665">
        <ele>1475.76</ele>
        <time>2019-03-18T11:09:12Z</time>
      </trkpt>
      <trkpt lat="45.97445" lon="6.53666">
        <ele>1475.76</ele>
        <time>2019-03-18T11:09:13Z</time>
      </trkpt>
      <trkpt lat="45.97443" lon="6.53666">
        <ele>1476.24</ele>
        <time>2019-03-18T11:09:14Z</time>
      </trkpt>
      <trkpt lat="45.9742" lon="6.53668">
        <ele>1474.32</ele>
        <time>2019-03-18T11:09:35Z</time>
      </trkpt>
      <trkpt lat="45.97415" lon="6.53672">
        <ele>1474.8</ele>
        <time>2019-03-18T11:09:40Z</time>
      </trkpt>
      <trkpt lat="45.97414" lon="6.53673">
        <ele>1474.8</ele>
        <time>2019-03-18T11:09:41Z</time>
      </trkpt>
      <trkpt lat="45.97413" lon="6.53673">
        <ele>1474.8</ele>
        <time>2019-03-18T11:09:42Z</time>
      </trkpt>
      <trkpt lat="45.97411" lon="6.53674">
        <ele>1475.28</ele>
        <time>2019-03-18T11:09:44Z</time>
      </trkpt>
      <trkpt lat="45.9741" lon="6.53675">
        <ele>1475.28</ele>
        <time>2019-03-18T11:09:45Z</time>
      </trkpt>
      <trkpt lat="45.9741" lon="6.53676">
        <ele>1475.28</ele>
        <time>2019-03-18T11:09:46Z</time>
      </trkpt>
      <trkpt lat="45.97409" lon="6.53677">
        <ele>1475.76</ele>
        <time>2019-03-18T11:09:47Z</time>
      </trkpt>
      <trkpt lat="45.97408" lon="6.53678">
        <ele>1475.76</ele>
        <time>2019-03-18T11:09:48Z</time>
      </trkpt>
      <trkpt lat="45.97394" lon="6.5369">
        <ele>1478.16</ele>
        <time>2019-03-18T11:10:08Z</time>
      </trkpt>
      <trkpt lat="45.97381" lon="6.53697">
        <ele>1481.53</ele>
        <time>2019-03-18T11:10:28Z</time>
      </trkpt>
      <trkpt lat="45.97376" lon="6.537">
        <ele>1482.97</ele>
        <time>2019-03-18T11:10:34Z</time>
      </trkpt>
      <trkpt lat="45.97368" lon="6.53707">
        <ele>1484.89</ele>
        <time>2019-03-18T11:10:46Z</time>
      </trkpt>
      <trkpt lat="45.97355" lon="6.53711">
        <ele>1487.78</ele>
        <time>2019-03-18T11:11:03Z</time>
      </trkpt>
      <trkpt lat="45.97343" lon="6.53709">
        <ele>1491.14</ele>
        <time>2019-03-18T11:11:21Z</time>
      </trkpt>
      <trkpt lat="45.97328" lon="6.53711">
        <ele>1494.03</ele>
        <time>2019-03-18T11:11:40Z</time>
      </trkpt>
      <trkpt lat="45.97317" lon="6.53709">
        <ele>1496.91</ele>
        <time>2019-03-18T11:11:56Z</time>
      </trkpt>
      <trkpt lat="45.97315" lon="6.53709">
        <ele>1497.39</ele>
        <time>2019-03-18T11:11:58Z</time>
      </trkpt>
      <trkpt lat="45.97301" lon="6.53707">
        <ele>1500.27</ele>
        <time>2019-03-18T11:12:17Z</time>
      </trkpt>
      <trkpt lat="45.973" lon="6.5371">
        <ele>1501.72</ele>
        <time>2019-03-18T11:12:22Z</time>
      </trkpt>
      <trkpt lat="45.97292" lon="6.53715">
        <ele>1504.6</ele>
        <time>2019-03-18T11:12:39Z</time>
      </trkpt>
      <trkpt lat="45.97285" lon="6.53711">
        <ele>1506.52</ele>
        <time>2019-03-18T11:12:49Z</time>
      </trkpt>
      <trkpt lat="45.97285" lon="6.53711">
        <ele>1506.52</ele>
        <time>2019-03-18T11:12:50Z</time>
      </trkpt>
      <trkpt lat="45.97277" lon="6.53713">
        <ele>1508.45</ele>
        <time>2019-03-18T11:13:02Z</time>
      </trkpt>
      <trkpt lat="45.97264" lon="6.53716">
        <ele>1511.81</ele>
        <time>2019-03-18T11:13:20Z</time>
      </trkpt>
      <trkpt lat="45.97261" lon="6.53713">
        <ele>1512.77</ele>
        <time>2019-03-18T11:13:24Z</time>
      </trkpt>
      <trkpt lat="45.97253" lon="6.5371">
        <ele>1515.18</ele>
        <time>2019-03-18T11:13:37Z</time>
      </trkpt>
      <trkpt lat="45.9725" lon="6.53711">
        <ele>1515.66</ele>
        <time>2019-03-18T11:13:41Z</time>
      </trkpt>
      <trkpt lat="45.97244" lon="6.53724">
        <ele>1518.54</ele>
        <time>2019-03-18T11:13:57Z</time>
      </trkpt>
      <trkpt lat="45.97235" lon="6.53725">
        <ele>1520.46</ele>
        <time>2019-03-18T11:14:11Z</time>
      </trkpt>
      <trkpt lat="45.97234" lon="6.53725">
        <ele>1520.94</ele>
        <time>2019-03-18T11:14:12Z</time>
      </trkpt>
      <trkpt lat="45.97228" lon="6.53732">
        <ele>1523.35</ele>
        <time>2019-03-18T11:14:23Z</time>
      </trkpt>
      <trkpt lat="45.97217" lon="6.53737">
        <ele>1526.23</ele>
        <time>2019-03-18T11:14:40Z</time>
      </trkpt>
      <trkpt lat="45.97207" lon="6.53737">
        <ele>1529.59</ele>
        <time>2019-03-18T11:14:57Z</time>
      </trkpt>
      <trkpt lat="45.97197" lon="6.5374">
        <ele>1532.48</ele>
        <time>2019-03-18T11:15:13Z</time>
      </trkpt>
      <trkpt lat="45.97187" lon="6.53746">
        <ele>1534.88</ele>
        <time>2019-03-18T11:15:27Z</time>
      </trkpt>
      <trkpt lat="45.97181" lon="6.53751">
        <ele>1538.25</ele>
        <time>2019-03-18T11:15:41Z</time>
      </trkpt>
      <trkpt lat="45.97174" lon="6.53763">
        <ele>1540.65</ele>
        <time>2019-03-18T11:15:58Z</time>
      </trkpt>
      <trkpt lat="45.97173" lon="6.53765">
        <ele>1540.65</ele>
        <time>2019-03-18T11:15:59Z</time>
      </trkpt>
      <trkpt lat="45.97173" lon="6.53766">
        <ele>1540.65</ele>
        <time>2019-03-18T11:16:00Z</time>
      </trkpt>
      <trkpt lat="45.97177" lon="6.53772">
        <ele>1542.09</ele>
        <time>2019-03-18T11:16:10Z</time>
      </trkpt>
      <trkpt lat="45.97183" lon="6.53788">
        <ele>1545.46</ele>
        <time>2019-03-18T11:16:31Z</time>
      </trkpt>
      <trkpt lat="45.97185" lon="6.53806">
        <ele>1548.34</ele>
        <time>2019-03-18T11:16:49Z</time>
      </trkpt>
      <trkpt lat="45.97183" lon="6.53819">
        <ele>1551.71</ele>
        <time>2019-03-18T11:17:06Z</time>
      </trkpt>
      <trkpt lat="45.97182" lon="6.53818">
        <ele>1552.19</ele>
        <time>2019-03-18T11:18:09Z</time>
      </trkpt>
      <trkpt lat="45.97181" lon="6.5382">
        <ele>1551.71</ele>
        <time>2019-03-18T11:19:01Z</time>
      </trkpt>
      <trkpt lat="45.97183" lon="6.53822">
        <ele>1552.19</ele>
        <time>2019-03-18T11:19:44Z</time>
      </trkpt>
      <trkpt lat="45.97177" lon="6.53823">
        <ele>1552.19</ele>
        <time>2019-03-18T11:19:56Z</time>
      </trkpt>
      <trkpt lat="45.97176" lon="6.53823">
        <ele>1552.19</ele>
        <time>2019-03-18T11:19:57Z</time>
      </trkpt>
      <trkpt lat="45.97171" lon="6.53819">
        <ele>1553.63</ele>
        <time>2019-03-18T11:20:04Z</time>
      </trkpt>
      <trkpt lat="45.97163" lon="6.53813">
        <ele>1556.03</ele>
        <time>2019-03-18T11:20:17Z</time>
      </trkpt>
      <trkpt lat="45.97152" lon="6.53808">
        <ele>1559.4</ele>
        <time>2019-03-18T11:20:33Z</time>
      </trkpt>
      <trkpt lat="45.97142" lon="6.53807">
        <ele>1562.76</ele>
        <time>2019-03-18T11:20:49Z</time>
      </trkpt>
      <trkpt lat="45.97134" lon="6.53809">
        <ele>1565.64</ele>
        <time>2019-03-18T11:21:05Z</time>
      </trkpt>
      <trkpt lat="45.97129" lon="6.53813">
        <ele>1569.01</ele>
        <time>2019-03-18T11:21:23Z</time>
      </trkpt>
      <trkpt lat="45.97128" lon="6.53825">
        <ele>1570.93</ele>
        <time>2019-03-18T11:21:36Z</time>
      </trkpt>
      <trkpt lat="45.97123" lon="6.53833">
        <ele>1574.3</ele>
        <time>2019-03-18T11:21:57Z</time>
      </trkpt>
      <trkpt lat="45.97112" lon="6.53826">
        <ele>1577.18</ele>
        <time>2019-03-18T11:22:14Z</time>
      </trkpt>
      <trkpt lat="45.97104" lon="6.53819">
        <ele>1580.54</ele>
        <time>2019-03-18T11:22:29Z</time>
      </trkpt>
      <trkpt lat="45.97094" lon="6.53813">
        <ele>1583.43</ele>
        <time>2019-03-18T11:22:46Z</time>
      </trkpt>
      <trkpt lat="45.97086" lon="6.53812">
        <ele>1586.31</ele>
        <time>2019-03-18T11:23:00Z</time>
      </trkpt>
      <trkpt lat="45.97075" lon="6.53811">
        <ele>1589.2</ele>
        <time>2019-03-18T11:23:16Z</time>
      </trkpt>
      <trkpt lat="45.97067" lon="6.53811">
        <ele>1592.56</ele>
        <time>2019-03-18T11:23:35Z</time>
      </trkpt>
      <trkpt lat="45.97072" lon="6.53818">
        <ele>1593.52</ele>
        <time>2019-03-18T11:23:42Z</time>
      </trkpt>
      <trkpt lat="45.97076" lon="6.53834">
        <ele>1596.41</ele>
        <time>2019-03-18T11:24:01Z</time>
      </trkpt>
      <trkpt lat="45.97068" lon="6.53834">
        <ele>1599.77</ele>
        <time>2019-03-18T11:24:24Z</time>
      </trkpt>
      <trkpt lat="45.97058" lon="6.53832">
        <ele>1602.66</ele>
        <time>2019-03-18T11:24:40Z</time>
      </trkpt>
      <trkpt lat="45.97048" lon="6.53828">
        <ele>1606.02</ele>
        <time>2019-03-18T11:24:57Z</time>
      </trkpt>
      <trkpt lat="45.97039" lon="6.53824">
        <ele>1608.9</ele>
        <time>2019-03-18T11:25:12Z</time>
      </trkpt>
      <trkpt lat="45.97031" lon="6.53821">
        <ele>1611.79</ele>
        <time>2019-03-18T11:25:26Z</time>
      </trkpt>
      <trkpt lat="45.97023" lon="6.53818">
        <ele>1615.15</ele>
        <time>2019-03-18T11:25:41Z</time>
      </trkpt>
      <trkpt lat="45.9702" lon="6.53822">
        <ele>1618.04</ele>
        <time>2019-03-18T11:25:58Z</time>
      </trkpt>
      <trkpt lat="45.97021" lon="6.53826">
        <ele>1618.52</ele>
        <time>2019-03-18T11:26:01Z</time>
      </trkpt>
      <trkpt lat="45.97025" lon="6.53841">
        <ele>1621.4</ele>
        <time>2019-03-18T11:26:19Z</time>
      </trkpt>
      <trkpt lat="45.97031" lon="6.53853">
        <ele>1624.77</ele>
        <time>2019-03-18T11:26:36Z</time>
      </trkpt>
      <trkpt lat="45.97034" lon="6.53869">
        <ele>1627.65</ele>
        <time>2019-03-18T11:26:54Z</time>
      </trkpt>
      <trkpt lat="45.97036" lon="6.53884">
        <ele>1631.01</ele>
        <time>2019-03-18T11:27:11Z</time>
      </trkpt>
      <trkpt lat="45.97038" lon="6.5389">
        <ele>1631.98</ele>
        <time>2019-03-18T11:27:18Z</time>
      </trkpt>
      <trkpt lat="45.9704" lon="6.53899">
        <ele>1633.9</ele>
        <time>2019-03-18T11:27:28Z</time>
      </trkpt>
      <trkpt lat="45.97041" lon="6.53901">
        <ele>1634.38</ele>
        <time>2019-03-18T11:27:30Z</time>
      </trkpt>
      <trkpt lat="45.97035" lon="6.539">
        <ele>1635.82</ele>
        <time>2019-03-18T11:27:43Z</time>
      </trkpt>
      <trkpt lat="45.97026" lon="6.53894">
        <ele>1638.7</ele>
        <time>2019-03-18T11:27:58Z</time>
      </trkpt>
      <trkpt lat="45.97019" lon="6.53892">
        <ele>1641.59</ele>
        <time>2019-03-18T11:28:12Z</time>
      </trkpt>
      <trkpt lat="45.97013" lon="6.53887">
        <ele>1644.95</ele>
        <time>2019-03-18T11:28:26Z</time>
      </trkpt>
      <trkpt lat="45.97008" lon="6.53884">
        <ele>1646.4</ele>
        <time>2019-03-18T11:28:34Z</time>
      </trkpt>
      <trkpt lat="45.96999" lon="6.53882">
        <ele>1649.28</ele>
        <time>2019-03-18T11:28:47Z</time>
      </trkpt>
      <trkpt lat="45.9699" lon="6.5388">
        <ele>1652.16</ele>
        <time>2019-03-18T11:29:03Z</time>
      </trkpt>
      <trkpt lat="45.96989" lon="6.5388">
        <ele>1652.64</ele>
        <time>2019-03-18T11:29:04Z</time>
      </trkpt>
      <trkpt lat="45.96979" lon="6.5388">
        <ele>1655.53</ele>
        <time>2019-03-18T11:29:30Z</time>
      </trkpt>
      <trkpt lat="45.96979" lon="6.5388">
        <ele>1656.01</ele>
        <time>2019-03-18T11:29:31Z</time>
      </trkpt>
      <trkpt lat="45.96969" lon="6.53882">
        <ele>1658.89</ele>
        <time>2019-03-18T11:29:48Z</time>
      </trkpt>
      <trkpt lat="45.9696" lon="6.53885">
        <ele>1661.78</ele>
        <time>2019-03-18T11:30:05Z</time>
      </trkpt>
      <trkpt lat="45.96966" lon="6.53892">
        <ele>1665.14</ele>
        <time>2019-03-18T11:30:28Z</time>
      </trkpt>
      <trkpt lat="45.96973" lon="6.53901">
        <ele>1668.02</ele>
        <time>2019-03-18T11:30:46Z</time>
      </trkpt>
      <trkpt lat="45.96977" lon="6.53908">
        <ele>1670.43</ele>
        <time>2019-03-18T11:30:58Z</time>
      </trkpt>
      <trkpt lat="45.96978" lon="6.53927">
        <ele>1673.31</ele>
        <time>2019-03-18T11:31:18Z</time>
      </trkpt>
      <trkpt lat="45.96974" lon="6.53926">
        <ele>1675.23</ele>
        <time>2019-03-18T11:31:30Z</time>
      </trkpt>
      <trkpt lat="45.96966" lon="6.53921">
        <ele>1678.12</ele>
        <time>2019-03-18T11:31:46Z</time>
      </trkpt>
      <trkpt lat="45.96957" lon="6.53922">
        <ele>1681.48</ele>
        <time>2019-03-18T11:32:02Z</time>
      </trkpt>
      <trkpt lat="45.96952" lon="6.53923">
        <ele>1682.93</ele>
        <time>2019-03-18T11:32:10Z</time>
      </trkpt>
      <trkpt lat="45.96951" lon="6.53924">
        <ele>1683.41</ele>
        <time>2019-03-18T11:32:11Z</time>
      </trkpt>
      <trkpt lat="45.96943" lon="6.53925">
        <ele>1686.29</ele>
        <time>2019-03-18T11:32:33Z</time>
      </trkpt>
      <trkpt lat="45.96933" lon="6.53928">
        <ele>1689.65</ele>
        <time>2019-03-18T11:32:52Z</time>
      </trkpt>
      <trkpt lat="45.96924" lon="6.53928">
        <ele>1692.54</ele>
        <time>2019-03-18T11:33:12Z</time>
      </trkpt>
      <trkpt lat="45.96925" lon="6.53931">
        <ele>1694.46</ele>
        <time>2019-03-18T11:33:24Z</time>
      </trkpt>
      <trkpt lat="45.96932" lon="6.53942">
        <ele>1697.83</ele>
        <time>2019-03-18T11:33:43Z</time>
      </trkpt>
      <trkpt lat="45.9694" lon="6.53952">
        <ele>1700.71</ele>
        <time>2019-03-18T11:34:02Z</time>
      </trkpt>
      <trkpt lat="45.96949" lon="6.53966">
        <ele>1704.07</ele>
        <time>2019-03-18T11:34:24Z</time>
      </trkpt>
      <trkpt lat="45.96951" lon="6.53976">
        <ele>1706.96</ele>
        <time>2019-03-18T11:35:00Z</time>
      </trkpt>
      <trkpt lat="45.96939" lon="6.53974">
        <ele>1710.32</ele>
        <time>2019-03-18T11:35:19Z</time>
      </trkpt>
      <trkpt lat="45.96931" lon="6.53976">
        <ele>1713.21</ele>
        <time>2019-03-18T11:35:36Z</time>
      </trkpt>
      <trkpt lat="45.96928" lon="6.53976">
        <ele>1714.17</ele>
        <time>2019-03-18T11:35:55Z</time>
      </trkpt>
      <trkpt lat="45.96934" lon="6.53984">
        <ele>1716.57</ele>
        <time>2019-03-18T11:36:14Z</time>
      </trkpt>
      <trkpt lat="45.96942" lon="6.53994">
        <ele>1719.94</ele>
        <time>2019-03-18T11:36:33Z</time>
      </trkpt>
      <trkpt lat="45.96939" lon="6.53999">
        <ele>1722.82</ele>
        <time>2019-03-18T11:37:07Z</time>
      </trkpt>
      <trkpt lat="45.96929" lon="6.53999">
        <ele>1726.18</ele>
        <time>2019-03-18T11:37:24Z</time>
      </trkpt>
      <trkpt lat="45.96924" lon="6.54">
        <ele>1729.55</ele>
        <time>2019-03-18T11:37:46Z</time>
      </trkpt>
      <trkpt lat="45.96929" lon="6.5401">
        <ele>1732.43</ele>
        <time>2019-03-18T11:38:06Z</time>
      </trkpt>
      <trkpt lat="45.96934" lon="6.5402">
        <ele>1735.32</ele>
        <time>2019-03-18T11:38:34Z</time>
      </trkpt>
      <trkpt lat="45.9693" lon="6.54021">
        <ele>1737.24</ele>
        <time>2019-03-18T11:38:54Z</time>
      </trkpt>
      <trkpt lat="45.96925" lon="6.54019">
        <ele>1739.16</ele>
        <time>2019-03-18T11:39:24Z</time>
      </trkpt>
      <trkpt lat="45.96914" lon="6.5402">
        <ele>1742.05</ele>
        <time>2019-03-18T11:39:48Z</time>
      </trkpt>
      <trkpt lat="45.96905" lon="6.5402">
        <ele>1745.41</ele>
        <time>2019-03-18T11:40:10Z</time>
      </trkpt>
      <trkpt lat="45.96896" lon="6.54019">
        <ele>1748.78</ele>
        <time>2019-03-18T11:40:47Z</time>
      </trkpt>
      <trkpt lat="45.96887" lon="6.54021">
        <ele>1751.66</ele>
        <time>2019-03-18T11:41:15Z</time>
      </trkpt>
      <trkpt lat="45.96895" lon="6.54029">
        <ele>1754.54</ele>
        <time>2019-03-18T11:41:39Z</time>
      </trkpt>
      <trkpt lat="45.969" lon="6.54038">
        <ele>1757.43</ele>
        <time>2019-03-18T11:41:54Z</time>
      </trkpt>
      <trkpt lat="45.969" lon="6.54038">
        <ele>1757.91</ele>
        <time>2019-03-18T11:42:09Z</time>
      </trkpt>
      <trkpt lat="45.96896" lon="6.54038">
        <ele>1758.87</ele>
        <time>2019-03-18T11:42:42Z</time>
      </trkpt>
      <trkpt lat="45.96887" lon="6.54039">
        <ele>1761.75</ele>
        <time>2019-03-18T11:43:31Z</time>
      </trkpt>
      <trkpt lat="45.96879" lon="6.54042">
        <ele>1764.64</ele>
        <time>2019-03-18T11:43:58Z</time>
      </trkpt>
      <trkpt lat="45.96888" lon="6.54048">
        <ele>1768</ele>
        <time>2019-03-18T11:44:37Z</time>
      </trkpt>
      <trkpt lat="45.96893" lon="6.54056">
        <ele>1768.48</ele>
        <time>2019-03-18T11:45:08Z</time>
      </trkpt>
      <trkpt lat="45.96899" lon="6.54065">
        <ele>1771.85</ele>
        <time>2019-03-18T11:45:34Z</time>
      </trkpt>
      <trkpt lat="45.96904" lon="6.54073">
        <ele>1774.73</ele>
        <time>2019-03-18T11:45:49Z</time>
      </trkpt>
      <trkpt lat="45.96905" lon="6.54075">
        <ele>1775.21</ele>
        <time>2019-03-18T11:45:51Z</time>
      </trkpt>
      <trkpt lat="45.96908" lon="6.54078">
        <ele>1776.17</ele>
        <time>2019-03-18T11:45:56Z</time>
      </trkpt>
      <trkpt lat="45.96911" lon="6.54084">
        <ele>1777.61</ele>
        <time>2019-03-18T11:46:03Z</time>
      </trkpt>
      <trkpt lat="45.96905" lon="6.54085">
        <ele>1780.98</ele>
        <time>2019-03-18T11:46:51Z</time>
      </trkpt>
      <trkpt lat="45.96901" lon="6.54086">
        <ele>1782.42</ele>
        <time>2019-03-18T11:46:58Z</time>
      </trkpt>
      <trkpt lat="45.96898" lon="6.54086">
        <ele>1783.38</ele>
        <time>2019-03-18T11:47:01Z</time>
      </trkpt>
      <trkpt lat="45.96897" lon="6.54086">
        <ele>1783.86</ele>
        <time>2019-03-18T11:47:03Z</time>
      </trkpt>
      <trkpt lat="45.96893" lon="6.54086">
        <ele>1784.82</ele>
        <time>2019-03-18T11:47:08Z</time>
      </trkpt>
      <trkpt lat="45.96892" lon="6.54087">
        <ele>1785.31</ele>
        <time>2019-03-18T11:47:10Z</time>
      </trkpt>
      <trkpt lat="45.9689" lon="6.54087">
        <ele>1785.79</ele>
        <time>2019-03-18T11:47:12Z</time>
      </trkpt>
      <trkpt lat="45.96889" lon="6.54087">
        <ele>1785.79</ele>
        <time>2019-03-18T11:47:13Z</time>
      </trkpt>
      <trkpt lat="45.96887" lon="6.54087">
        <ele>1786.27</ele>
        <time>2019-03-18T11:47:15Z</time>
      </trkpt>
      <trkpt lat="45.96884" lon="6.54087">
        <ele>1787.23</ele>
        <time>2019-03-18T11:47:18Z</time>
      </trkpt>
      <trkpt lat="45.9687" lon="6.5409">
        <ele>1790.11</ele>
        <time>2019-03-18T11:47:34Z</time>
      </trkpt>
      <trkpt lat="45.96869" lon="6.54091">
        <ele>1790.11</ele>
        <time>2019-03-18T11:47:35Z</time>
      </trkpt>
      <trkpt lat="45.96868" lon="6.54091">
        <ele>1790.11</ele>
        <time>2019-03-18T11:47:36Z</time>
      </trkpt>
      <trkpt lat="45.96845" lon="6.54091">
        <ele>1792.03</ele>
        <time>2019-03-18T11:48:01Z</time>
      </trkpt>
      <trkpt lat="45.96844" lon="6.54091">
        <ele>1792.03</ele>
        <time>2019-03-18T11:48:02Z</time>
      </trkpt>
      <trkpt lat="45.96843" lon="6.54091">
        <ele>1792.03</ele>
        <time>2019-03-18T11:48:03Z</time>
      </trkpt>
      <trkpt lat="45.96842" lon="6.54091">
        <ele>1792.03</ele>
        <time>2019-03-18T11:48:04Z</time>
      </trkpt>
      <trkpt lat="45.9684" lon="6.54091">
        <ele>1792.03</ele>
        <time>2019-03-18T11:48:05Z</time>
      </trkpt>
      <trkpt lat="45.96839" lon="6.54091">
        <ele>1792.03</ele>
        <time>2019-03-18T11:48:06Z</time>
      </trkpt>
      <trkpt lat="45.96838" lon="6.54091">
        <ele>1792.03</ele>
        <time>2019-03-18T11:48:07Z</time>
      </trkpt>
      <trkpt lat="45.96837" lon="6.54092">
        <ele>1792.03</ele>
        <time>2019-03-18T11:48:08Z</time>
      </trkpt>
      <trkpt lat="45.96836" lon="6.54092">
        <ele>1792.03</ele>
        <time>2019-03-18T11:48:09Z</time>
      </trkpt>
      <trkpt lat="45.96835" lon="6.54093">
        <ele>1792.03</ele>
        <time>2019-03-18T11:48:10Z</time>
      </trkpt>
      <trkpt lat="45.96834" lon="6.54093">
        <ele>1792.52</ele>
        <time>2019-03-18T11:48:11Z</time>
      </trkpt>
      <trkpt lat="45.96833" lon="6.54093">
        <ele>1792.52</ele>
        <time>2019-03-18T11:48:12Z</time>
      </trkpt>
      <trkpt lat="45.96832" lon="6.54093">
        <ele>1792.52</ele>
        <time>2019-03-18T11:48:13Z</time>
      </trkpt>
      <trkpt lat="45.9683" lon="6.54093">
        <ele>1792.52</ele>
        <time>2019-03-18T11:48:14Z</time>
      </trkpt>
      <trkpt lat="45.96829" lon="6.54094">
        <ele>1792.52</ele>
        <time>2019-03-18T11:48:15Z</time>
      </trkpt>
      <trkpt lat="45.96809" lon="6.54093">
        <ele>1794.92</ele>
        <time>2019-03-18T11:48:35Z</time>
      </trkpt>
      <trkpt lat="45.96808" lon="6.54092">
        <ele>1795.4</ele>
        <time>2019-03-18T11:48:36Z</time>
      </trkpt>
      <trkpt lat="45.96807" lon="6.54092">
        <ele>1795.4</ele>
        <time>2019-03-18T11:48:37Z</time>
      </trkpt>
      <trkpt lat="45.96805" lon="6.54092">
        <ele>1795.88</ele>
        <time>2019-03-18T11:48:39Z</time>
      </trkpt>
      <trkpt lat="45.96804" lon="6.54091">
        <ele>1795.88</ele>
        <time>2019-03-18T11:48:40Z</time>
      </trkpt>
      <trkpt lat="45.96793" lon="6.54087">
        <ele>1799.24</ele>
        <time>2019-03-18T11:48:54Z</time>
      </trkpt>
      <trkpt lat="45.96777" lon="6.54084">
        <ele>1802.61</ele>
        <time>2019-03-18T11:49:12Z</time>
      </trkpt>
      <trkpt lat="45.96769" lon="6.5408">
        <ele>1804.53</ele>
        <time>2019-03-18T11:49:23Z</time>
      </trkpt>
      <trkpt lat="45.96768" lon="6.5408">
        <ele>1805.01</ele>
        <time>2019-03-18T11:49:24Z</time>
      </trkpt>
      <trkpt lat="45.96757" lon="6.54075">
        <ele>1808.38</ele>
        <time>2019-03-18T11:49:40Z</time>
      </trkpt>
      <trkpt lat="45.96756" lon="6.54075">
        <ele>1808.38</ele>
        <time>2019-03-18T11:49:41Z</time>
      </trkpt>
      <trkpt lat="45.96752" lon="6.54078">
        <ele>1810.3</ele>
        <time>2019-03-18T11:49:48Z</time>
      </trkpt>
      <trkpt lat="45.96751" lon="6.54079">
        <ele>1810.3</ele>
        <time>2019-03-18T11:49:49Z</time>
      </trkpt>
      <trkpt lat="45.96749" lon="6.54094">
        <ele>1813.18</ele>
        <time>2019-03-18T11:50:03Z</time>
      </trkpt>
      <trkpt lat="45.96747" lon="6.54093">
        <ele>1813.66</ele>
        <time>2019-03-18T11:50:06Z</time>
      </trkpt>
      <trkpt lat="45.96745" lon="6.54092">
        <ele>1814.15</ele>
        <time>2019-03-18T11:50:09Z</time>
      </trkpt>
      <trkpt lat="45.96733" lon="6.54082">
        <ele>1817.51</ele>
        <time>2019-03-18T11:50:26Z</time>
      </trkpt>
      <trkpt lat="45.96725" lon="6.54074">
        <ele>1820.39</ele>
        <time>2019-03-18T11:50:38Z</time>
      </trkpt>
      <trkpt lat="45.96723" lon="6.54072">
        <ele>1820.87</ele>
        <time>2019-03-18T11:50:41Z</time>
      </trkpt>
      <trkpt lat="45.96722" lon="6.54072">
        <ele>1821.35</ele>
        <time>2019-03-18T11:50:43Z</time>
      </trkpt>
      <trkpt lat="45.96719" lon="6.54072">
        <ele>1821.84</ele>
        <time>2019-03-18T11:50:46Z</time>
      </trkpt>
      <trkpt lat="45.96718" lon="6.54072">
        <ele>1822.32</ele>
        <time>2019-03-18T11:50:47Z</time>
      </trkpt>
      <trkpt lat="45.96718" lon="6.54072">
        <ele>1822.32</ele>
        <time>2019-03-18T11:50:48Z</time>
      </trkpt>
      <trkpt lat="45.96717" lon="6.54072">
        <ele>1822.8</ele>
        <time>2019-03-18T11:50:49Z</time>
      </trkpt>
      <trkpt lat="45.96704" lon="6.54069">
        <ele>1825.68</ele>
        <time>2019-03-18T11:51:04Z</time>
      </trkpt>
      <trkpt lat="45.967" lon="6.54067">
        <ele>1827.12</ele>
        <time>2019-03-18T11:51:09Z</time>
      </trkpt>
      <trkpt lat="45.96699" lon="6.54066">
        <ele>1827.6</ele>
        <time>2019-03-18T11:51:12Z</time>
      </trkpt>
      <trkpt lat="45.96697" lon="6.54065">
        <ele>1828.08</ele>
        <time>2019-03-18T11:51:14Z</time>
      </trkpt>
      <trkpt lat="45.96696" lon="6.54065">
        <ele>1828.56</ele>
        <time>2019-03-18T11:51:15Z</time>
      </trkpt>
      <trkpt lat="45.96695" lon="6.54064">
        <ele>1829.05</ele>
        <time>2019-03-18T11:51:17Z</time>
      </trkpt>
      <trkpt lat="45.96694" lon="6.54063">
        <ele>1830.01</ele>
        <time>2019-03-18T11:51:20Z</time>
      </trkpt>
      <trkpt lat="45.96692" lon="6.54063">
        <ele>1830.01</ele>
        <time>2019-03-18T11:51:22Z</time>
      </trkpt>
      <trkpt lat="45.96691" lon="6.54063">
        <ele>1830.49</ele>
        <time>2019-03-18T11:51:23Z</time>
      </trkpt>
      <trkpt lat="45.96686" lon="6.54063">
        <ele>1830.97</ele>
        <time>2019-03-18T11:51:30Z</time>
      </trkpt>
      <trkpt lat="45.96682" lon="6.54063">
        <ele>1831.45</ele>
        <time>2019-03-18T11:51:34Z</time>
      </trkpt>
      <trkpt lat="45.96681" lon="6.54063">
        <ele>1831.45</ele>
        <time>2019-03-18T11:51:35Z</time>
      </trkpt>
      <trkpt lat="45.96678" lon="6.54063">
        <ele>1832.41</ele>
        <time>2019-03-18T11:51:39Z</time>
      </trkpt>
      <trkpt lat="45.96677" lon="6.54063">
        <ele>1832.41</ele>
        <time>2019-03-18T11:51:40Z</time>
      </trkpt>
      <trkpt lat="45.96675" lon="6.54063">
        <ele>1833.37</ele>
        <time>2019-03-18T11:51:42Z</time>
      </trkpt>
      <trkpt lat="45.96674" lon="6.54063">
        <ele>1833.37</ele>
        <time>2019-03-18T11:51:43Z</time>
      </trkpt>
      <trkpt lat="45.9666" lon="6.5406">
        <ele>1836.74</ele>
        <time>2019-03-18T11:51:59Z</time>
      </trkpt>
      <trkpt lat="45.9665" lon="6.54051">
        <ele>1839.62</ele>
        <time>2019-03-18T11:52:14Z</time>
      </trkpt>
      <trkpt lat="45.96649" lon="6.54049">
        <ele>1841.54</ele>
        <time>2019-03-18T11:52:27Z</time>
      </trkpt>
      <trkpt lat="45.96649" lon="6.5405">
        <ele>1842.02</ele>
        <time>2019-03-18T11:52:29Z</time>
      </trkpt>
      <trkpt lat="45.96647" lon="6.54065">
        <ele>1844.91</ele>
        <time>2019-03-18T11:54:46Z</time>
      </trkpt>
      <trkpt lat="45.96647" lon="6.5407">
        <ele>1845.87</ele>
        <time>2019-03-18T11:54:51Z</time>
      </trkpt>
      <trkpt lat="45.9665" lon="6.54078">
        <ele>1847.79</ele>
        <time>2019-03-18T11:55:00Z</time>
      </trkpt>
      <trkpt lat="45.96653" lon="6.54086">
        <ele>1849.71</ele>
        <time>2019-03-18T11:55:09Z</time>
      </trkpt>
      <trkpt lat="45.96653" lon="6.54088">
        <ele>1849.71</ele>
        <time>2019-03-18T11:55:11Z</time>
      </trkpt>
      <trkpt lat="45.96657" lon="6.54099">
        <ele>1853.08</ele>
        <time>2019-03-18T11:55:26Z</time>
      </trkpt>
      <trkpt lat="45.96651" lon="6.54101">
        <ele>1855.96</ele>
        <time>2019-03-18T11:55:45Z</time>
      </trkpt>
      <trkpt lat="45.96642" lon="6.541">
        <ele>1858.85</ele>
        <time>2019-03-18T11:56:00Z</time>
      </trkpt>
      <trkpt lat="45.96635" lon="6.541">
        <ele>1862.21</ele>
        <time>2019-03-18T11:56:15Z</time>
      </trkpt>
      <trkpt lat="45.96631" lon="6.54098">
        <ele>1863.65</ele>
        <time>2019-03-18T11:56:22Z</time>
      </trkpt>
      <trkpt lat="45.96624" lon="6.54097">
        <ele>1866.54</ele>
        <time>2019-03-18T11:56:36Z</time>
      </trkpt>
      <trkpt lat="45.96619" lon="6.54098">
        <ele>1867.98</ele>
        <time>2019-03-18T11:56:42Z</time>
      </trkpt>
      <trkpt lat="45.96616" lon="6.54099">
        <ele>1868.94</ele>
        <time>2019-03-18T11:56:46Z</time>
      </trkpt>
      <trkpt lat="45.96614" lon="6.541">
        <ele>1869.42</ele>
        <time>2019-03-18T11:56:48Z</time>
      </trkpt>
      <trkpt lat="45.96611" lon="6.541">
        <ele>1870.38</ele>
        <time>2019-03-18T11:56:53Z</time>
      </trkpt>
      <trkpt lat="45.96607" lon="6.54101">
        <ele>1871.34</ele>
        <time>2019-03-18T11:56:58Z</time>
      </trkpt>
      <trkpt lat="45.96601" lon="6.541">
        <ele>1872.79</ele>
        <time>2019-03-18T11:57:07Z</time>
      </trkpt>
      <trkpt lat="45.96597" lon="6.541">
        <ele>1874.23</ele>
        <time>2019-03-18T11:57:14Z</time>
      </trkpt>
      <trkpt lat="45.96588" lon="6.54099">
        <ele>1877.59</ele>
        <time>2019-03-18T11:57:29Z</time>
      </trkpt>
      <trkpt lat="45.96584" lon="6.54103">
        <ele>1880.48</ele>
        <time>2019-03-18T11:57:47Z</time>
      </trkpt>
      <trkpt lat="45.96584" lon="6.54105">
        <ele>1880.96</ele>
        <time>2019-03-18T11:57:49Z</time>
      </trkpt>
      <trkpt lat="45.96586" lon="6.54117">
        <ele>1883.84</ele>
        <time>2019-03-18T11:58:04Z</time>
      </trkpt>
      <trkpt lat="45.96591" lon="6.54128">
        <ele>1887.21</ele>
        <time>2019-03-18T11:58:19Z</time>
      </trkpt>
      <trkpt lat="45.96593" lon="6.54139">
        <ele>1890.09</ele>
        <time>2019-03-18T11:58:34Z</time>
      </trkpt>
      <trkpt lat="45.96594" lon="6.54152">
        <ele>1892.97</ele>
        <time>2019-03-18T11:58:54Z</time>
      </trkpt>
      <trkpt lat="45.96585" lon="6.54148">
        <ele>1896.34</ele>
        <time>2019-03-18T11:59:11Z</time>
      </trkpt>
      <trkpt lat="45.96575" lon="6.54144">
        <ele>1899.22</ele>
        <time>2019-03-18T11:59:30Z</time>
      </trkpt>
      <trkpt lat="45.96567" lon="6.54141">
        <ele>1902.59</ele>
        <time>2019-03-18T11:59:44Z</time>
      </trkpt>
      <trkpt lat="45.96561" lon="6.54137">
        <ele>1904.99</ele>
        <time>2019-03-18T11:59:54Z</time>
      </trkpt>
      <trkpt lat="45.96557" lon="6.54136">
        <ele>1905.47</ele>
        <time>2019-03-18T12:00:00Z</time>
      </trkpt>
      <trkpt lat="45.9655" lon="6.54135">
        <ele>1908.83</ele>
        <time>2019-03-18T12:00:16Z</time>
      </trkpt>
      <trkpt lat="45.9655" lon="6.54137">
        <ele>1908.83</ele>
        <time>2019-03-18T12:00:17Z</time>
      </trkpt>
      <trkpt lat="45.96551" lon="6.54152">
        <ele>1911.72</ele>
        <time>2019-03-18T12:00:34Z</time>
      </trkpt>
      <trkpt lat="45.96554" lon="6.54165">
        <ele>1914.6</ele>
        <time>2019-03-18T12:00:49Z</time>
      </trkpt>
      <trkpt lat="45.96553" lon="6.54169">
        <ele>1917.97</ele>
        <time>2019-03-18T12:01:24Z</time>
      </trkpt>
      <trkpt lat="45.96543" lon="6.54164">
        <ele>1920.85</ele>
        <time>2019-03-18T12:01:41Z</time>
      </trkpt>
      <trkpt lat="45.96534" lon="6.54159">
        <ele>1924.22</ele>
        <time>2019-03-18T12:02:01Z</time>
      </trkpt>
      <trkpt lat="45.9653" lon="6.54153">
        <ele>1927.1</ele>
        <time>2019-03-18T12:02:17Z</time>
      </trkpt>
      <trkpt lat="45.96526" lon="6.5417">
        <ele>1929.98</ele>
        <time>2019-03-18T12:02:40Z</time>
      </trkpt>
      <trkpt lat="45.9652" lon="6.54161">
        <ele>1933.35</ele>
        <time>2019-03-18T12:02:57Z</time>
      </trkpt>
      <trkpt lat="45.96512" lon="6.54171">
        <ele>1936.23</ele>
        <time>2019-03-18T12:03:17Z</time>
      </trkpt>
      <trkpt lat="45.96508" lon="6.54187">
        <ele>1939.12</ele>
        <time>2019-03-18T12:03:35Z</time>
      </trkpt>
      <trkpt lat="45.965" lon="6.54201">
        <ele>1942</ele>
        <time>2019-03-18T12:03:53Z</time>
      </trkpt>
      <trkpt lat="45.96495" lon="6.54211">
        <ele>1945.36</ele>
        <time>2019-03-18T12:04:09Z</time>
      </trkpt>
      <trkpt lat="45.96492" lon="6.54222">
        <ele>1948.25</ele>
        <time>2019-03-18T12:04:27Z</time>
      </trkpt>
      <trkpt lat="45.96492" lon="6.54235">
        <ele>1951.61</ele>
        <time>2019-03-18T12:04:46Z</time>
      </trkpt>
      <trkpt lat="45.96494" lon="6.5425">
        <ele>1954.5</ele>
        <time>2019-03-18T12:05:06Z</time>
      </trkpt>
      <trkpt lat="45.96494" lon="6.54262">
        <ele>1957.38</ele>
        <time>2019-03-18T12:05:22Z</time>
      </trkpt>
      <trkpt lat="45.96485" lon="6.54263">
        <ele>1960.27</ele>
        <time>2019-03-18T12:05:36Z</time>
      </trkpt>
      <trkpt lat="45.96483" lon="6.54262">
        <ele>1961.23</ele>
        <time>2019-03-18T12:05:39Z</time>
      </trkpt>
      <trkpt lat="45.96475" lon="6.54258">
        <ele>1964.11</ele>
        <time>2019-03-18T12:05:54Z</time>
      </trkpt>
      <trkpt lat="45.96475" lon="6.54264">
        <ele>1966.03</ele>
        <time>2019-03-18T12:06:05Z</time>
      </trkpt>
      <trkpt lat="45.96473" lon="6.54276">
        <ele>1968.92</ele>
        <time>2019-03-18T12:06:20Z</time>
      </trkpt>
      <trkpt lat="45.96471" lon="6.54285">
        <ele>1971.8</ele>
        <time>2019-03-18T12:06:40Z</time>
      </trkpt>
      <trkpt lat="45.96464" lon="6.54284">
        <ele>1975.17</ele>
        <time>2019-03-18T12:06:55Z</time>
      </trkpt>
      <trkpt lat="45.96458" lon="6.5429">
        <ele>1978.05</ele>
        <time>2019-03-18T12:07:10Z</time>
      </trkpt>
      <trkpt lat="45.96455" lon="6.54297">
        <ele>1979.97</ele>
        <time>2019-03-18T12:07:19Z</time>
      </trkpt>
      <trkpt lat="45.96453" lon="6.54304">
        <ele>1981.41</ele>
        <time>2019-03-18T12:07:27Z</time>
      </trkpt>
      <trkpt lat="45.96453" lon="6.54316">
        <ele>1984.3</ele>
        <time>2019-03-18T12:07:43Z</time>
      </trkpt>
      <trkpt lat="45.9646" lon="6.54325">
        <ele>1987.66</ele>
        <time>2019-03-18T12:08:56Z</time>
      </trkpt>
      <trkpt lat="45.96469" lon="6.54335">
        <ele>1990.55</ele>
        <time>2019-03-18T12:09:15Z</time>
      </trkpt>
      <trkpt lat="45.96478" lon="6.5434">
        <ele>1993.91</ele>
        <time>2019-03-18T12:09:38Z</time>
      </trkpt>
      <trkpt lat="45.96478" lon="6.54349">
        <ele>1996.8</ele>
        <time>2019-03-18T12:09:56Z</time>
      </trkpt>
      <trkpt lat="45.9647" lon="6.54351">
        <ele>2000.16</ele>
        <time>2019-03-18T12:10:14Z</time>
      </trkpt>
      <trkpt lat="45.96461" lon="6.54354">
        <ele>2003.04</ele>
        <time>2019-03-18T12:10:33Z</time>
      </trkpt>
      <trkpt lat="45.96453" lon="6.54356">
        <ele>2006.41</ele>
        <time>2019-03-18T12:10:49Z</time>
      </trkpt>
      <trkpt lat="45.96445" lon="6.5436">
        <ele>2009.29</ele>
        <time>2019-03-18T12:11:06Z</time>
      </trkpt>
      <trkpt lat="45.96436" lon="6.54362">
        <ele>2012.66</ele>
        <time>2019-03-18T12:11:24Z</time>
      </trkpt>
      <trkpt lat="45.96427" lon="6.54365">
        <ele>2015.54</ele>
        <time>2019-03-18T12:11:41Z</time>
      </trkpt>
      <trkpt lat="45.96418" lon="6.54369">
        <ele>2018.91</ele>
        <time>2019-03-18T12:11:59Z</time>
      </trkpt>
      <trkpt lat="45.96409" lon="6.54373">
        <ele>2021.79</ele>
        <time>2019-03-18T12:12:16Z</time>
      </trkpt>
      <trkpt lat="45.96401" lon="6.54377">
        <ele>2025.15</ele>
        <time>2019-03-18T12:12:31Z</time>
      </trkpt>
      <trkpt lat="45.96397" lon="6.54377">
        <ele>2026.12</ele>
        <time>2019-03-18T12:12:37Z</time>
      </trkpt>
      <trkpt lat="45.96397" lon="6.54387">
        <ele>2029</ele>
        <time>2019-03-18T12:13:05Z</time>
      </trkpt>
      <trkpt lat="45.96402" lon="6.54397">
        <ele>2032.36</ele>
        <time>2019-03-18T12:13:21Z</time>
      </trkpt>
      <trkpt lat="45.96409" lon="6.54406">
        <ele>2035.25</ele>
        <time>2019-03-18T12:13:37Z</time>
      </trkpt>
      <trkpt lat="45.96413" lon="6.54419">
        <ele>2038.61</ele>
        <time>2019-03-18T12:13:59Z</time>
      </trkpt>
      <trkpt lat="45.96414" lon="6.5442">
        <ele>2038.61</ele>
        <time>2019-03-18T12:14:00Z</time>
      </trkpt>
      <trkpt lat="45.96407" lon="6.54424">
        <ele>2041.98</ele>
        <time>2019-03-18T12:14:22Z</time>
      </trkpt>
      <trkpt lat="45.96398" lon="6.54422">
        <ele>2044.86</ele>
        <time>2019-03-18T12:14:43Z</time>
      </trkpt>
      <trkpt lat="45.96393" lon="6.54425">
        <ele>2047.75</ele>
        <time>2019-03-18T12:15:09Z</time>
      </trkpt>
      <trkpt lat="45.96398" lon="6.54437">
        <ele>2050.63</ele>
        <time>2019-03-18T12:15:30Z</time>
      </trkpt>
      <trkpt lat="45.96403" lon="6.54445">
        <ele>2053.51</ele>
        <time>2019-03-18T12:16:07Z</time>
      </trkpt>
      <trkpt lat="45.96399" lon="6.5445">
        <ele>2056.4</ele>
        <time>2019-03-18T12:17:10Z</time>
      </trkpt>
      <trkpt lat="45.96404" lon="6.54455">
        <ele>2058.32</ele>
        <time>2019-03-18T12:17:39Z</time>
      </trkpt>
      <trkpt lat="45.96409" lon="6.54458">
        <ele>2058.8</ele>
        <time>2019-03-18T12:18:32Z</time>
      </trkpt>
      <trkpt lat="45.96413" lon="6.54461">
        <ele>2059.76</ele>
        <time>2019-03-18T12:19:12Z</time>
      </trkpt>
      <trkpt lat="45.96417" lon="6.54472">
        <ele>2062.65</ele>
        <time>2019-03-18T12:21:03Z</time>
      </trkpt>
      <trkpt lat="45.96414" lon="6.54477">
        <ele>2066.01</ele>
        <time>2019-03-18T12:22:46Z</time>
      </trkpt>
      <trkpt lat="45.96413" lon="6.54479">
        <ele>2069.38</ele>
        <time>2019-03-18T12:23:02Z</time>
      </trkpt>
      <trkpt lat="45.96411" lon="6.54484">
        <ele>2072.26</ele>
        <time>2019-03-18T12:23:34Z</time>
      </trkpt>
      <trkpt lat="45.96408" lon="6.54491">
        <ele>2075.62</ele>
        <time>2019-03-18T12:24:00Z</time>
      </trkpt>
      <trkpt lat="45.96407" lon="6.54493">
        <ele>2078.51</ele>
        <time>2019-03-18T12:24:22Z</time>
      </trkpt>
      <trkpt lat="45.96406" lon="6.54496">
        <ele>2081.39</ele>
        <time>2019-03-18T12:24:44Z</time>
      </trkpt>
      <trkpt lat="45.96404" lon="6.54499">
        <ele>2084.76</ele>
        <time>2019-03-18T12:25:13Z</time>
      </trkpt>
      <trkpt lat="45.96401" lon="6.54506">
        <ele>2087.64</ele>
        <time>2019-03-18T12:25:40Z</time>
      </trkpt>
      <trkpt lat="45.96399" lon="6.54513">
        <ele>2091</ele>
        <time>2019-03-18T12:26:06Z</time>
      </trkpt>
      <trkpt lat="45.96394" lon="6.54523">
        <ele>2093.89</ele>
        <time>2019-03-18T12:27:41Z</time>
      </trkpt>
      <trkpt lat="45.96388" lon="6.54535">
        <ele>2097.25</ele>
        <time>2019-03-18T12:27:59Z</time>
      </trkpt>
      <trkpt lat="45.96385" lon="6.54545">
        <ele>2100.14</ele>
        <time>2019-03-18T12:28:16Z</time>
      </trkpt>
      <trkpt lat="45.96384" lon="6.54557">
        <ele>2103.02</ele>
        <time>2019-03-18T12:28:33Z</time>
      </trkpt>
      <trkpt lat="45.96382" lon="6.54567">
        <ele>2106.39</ele>
        <time>2019-03-18T12:28:50Z</time>
      </trkpt>
      <trkpt lat="45.96375" lon="6.54575">
        <ele>2109.27</ele>
        <time>2019-03-18T12:29:06Z</time>
      </trkpt>
      <trkpt lat="45.96365" lon="6.54581">
        <ele>2112.15</ele>
        <time>2019-03-18T12:29:40Z</time>
      </trkpt>
      <trkpt lat="45.96352" lon="6.54584">
        <ele>2115.04</ele>
        <time>2019-03-18T12:29:58Z</time>
      </trkpt>
      <trkpt lat="45.9634" lon="6.54586">
        <ele>2118.4</ele>
        <time>2019-03-18T12:30:15Z</time>
      </trkpt>
      <trkpt lat="45.96338" lon="6.54587">
        <ele>2118.88</ele>
        <time>2019-03-18T12:30:17Z</time>
      </trkpt>
      <trkpt lat="45.96337" lon="6.54587">
        <ele>2119.36</ele>
        <time>2019-03-18T12:30:19Z</time>
      </trkpt>
      <trkpt lat="45.96325" lon="6.54586">
        <ele>2122.25</ele>
        <time>2019-03-18T12:30:36Z</time>
      </trkpt>
      <trkpt lat="45.9631" lon="6.5458">
        <ele>2125.61</ele>
        <time>2019-03-18T12:30:57Z</time>
      </trkpt>
      <trkpt lat="45.96298" lon="6.54575">
        <ele>2128.5</ele>
        <time>2019-03-18T12:31:18Z</time>
      </trkpt>
      <trkpt lat="45.9629" lon="6.54568">
        <ele>2131.38</ele>
        <time>2019-03-18T12:31:33Z</time>
      </trkpt>
      <trkpt lat="45.96288" lon="6.54566">
        <ele>2132.34</ele>
        <time>2019-03-18T12:31:36Z</time>
      </trkpt>
      <trkpt lat="45.96277" lon="6.54554">
        <ele>2135.23</ele>
        <time>2019-03-18T12:31:56Z</time>
      </trkpt>
      <trkpt lat="45.96269" lon="6.54545">
        <ele>2138.59</ele>
        <time>2019-03-18T12:32:12Z</time>
      </trkpt>
      <trkpt lat="45.96263" lon="6.54538">
        <ele>2140.99</ele>
        <time>2019-03-18T12:32:24Z</time>
      </trkpt>
      <trkpt lat="45.96259" lon="6.54531">
        <ele>2142.44</ele>
        <time>2019-03-18T12:32:34Z</time>
      </trkpt>
      <trkpt lat="45.96257" lon="6.5453">
        <ele>2142.44</ele>
        <time>2019-03-18T12:32:36Z</time>
      </trkpt>
      <trkpt lat="45.96254" lon="6.54527">
        <ele>2143.4</ele>
        <time>2019-03-18T12:32:42Z</time>
      </trkpt>
      <trkpt lat="45.96249" lon="6.54524">
        <ele>2145.32</ele>
        <time>2019-03-18T12:32:51Z</time>
      </trkpt>
      <trkpt lat="45.96245" lon="6.54518">
        <ele>2146.76</ele>
        <time>2019-03-18T12:33:00Z</time>
      </trkpt>
      <trkpt lat="45.96241" lon="6.54511">
        <ele>2148.68</ele>
        <time>2019-03-18T12:33:09Z</time>
      </trkpt>
      <trkpt lat="45.96236" lon="6.54506">
        <ele>2150.61</ele>
        <time>2019-03-18T12:33:18Z</time>
      </trkpt>
      <trkpt lat="45.96232" lon="6.545">
        <ele>2151.57</ele>
        <time>2019-03-18T12:33:26Z</time>
      </trkpt>
      <trkpt lat="45.96228" lon="6.54495">
        <ele>2153.49</ele>
        <time>2019-03-18T12:33:36Z</time>
      </trkpt>
      <trkpt lat="45.96225" lon="6.54491">
        <ele>2155.89</ele>
        <time>2019-03-18T12:33:47Z</time>
      </trkpt>
      <trkpt lat="45.9622" lon="6.54502">
        <ele>2158.3</ele>
        <time>2019-03-18T12:34:02Z</time>
      </trkpt>
      <trkpt lat="45.96216" lon="6.54514">
        <ele>2161.18</ele>
        <time>2019-03-18T12:34:18Z</time>
      </trkpt>
      <trkpt lat="45.96212" lon="6.54526">
        <ele>2164.55</ele>
        <time>2019-03-18T12:34:35Z</time>
      </trkpt>
      <trkpt lat="45.96212" lon="6.5454">
        <ele>2167.43</ele>
        <time>2019-03-18T12:34:53Z</time>
      </trkpt>
      <trkpt lat="45.96204" lon="6.54527">
        <ele>2170.79</ele>
        <time>2019-03-18T12:35:26Z</time>
      </trkpt>
      <trkpt lat="45.96196" lon="6.54511">
        <ele>2173.68</ele>
        <time>2019-03-18T12:35:51Z</time>
      </trkpt>
      <trkpt lat="45.96191" lon="6.54499">
        <ele>2176.56</ele>
        <time>2019-03-18T12:36:10Z</time>
      </trkpt>
      <trkpt lat="45.96184" lon="6.54487">
        <ele>2179.93</ele>
        <time>2019-03-18T12:36:30Z</time>
      </trkpt>
      <trkpt lat="45.96175" lon="6.54479">
        <ele>2183.29</ele>
        <time>2019-03-18T12:36:49Z</time>
      </trkpt>
      <trkpt lat="45.96165" lon="6.54472">
        <ele>2186.18</ele>
        <time>2019-03-18T12:37:08Z</time>
      </trkpt>
      <trkpt lat="45.96157" lon="6.54468">
        <ele>2189.06</ele>
        <time>2019-03-18T12:37:24Z</time>
      </trkpt>
      <trkpt lat="45.96147" lon="6.54465">
        <ele>2191.94</ele>
        <time>2019-03-18T12:37:41Z</time>
      </trkpt>
      <trkpt lat="45.96139" lon="6.54466">
        <ele>2195.31</ele>
        <time>2019-03-18T12:37:59Z</time>
      </trkpt>
      <trkpt lat="45.96135" lon="6.54478">
        <ele>2197.71</ele>
        <time>2019-03-18T12:38:12Z</time>
      </trkpt>
      <trkpt lat="45.96134" lon="6.54479">
        <ele>2198.19</ele>
        <time>2019-03-18T12:38:13Z</time>
      </trkpt>
      <trkpt lat="45.96134" lon="6.5448">
        <ele>2198.19</ele>
        <time>2019-03-18T12:38:14Z</time>
      </trkpt>
      <trkpt lat="45.96134" lon="6.54481">
        <ele>2198.19</ele>
        <time>2019-03-18T12:38:15Z</time>
      </trkpt>
      <trkpt lat="45.9612" lon="6.5451">
        <ele>2200.59</ele>
        <time>2019-03-18T12:38:44Z</time>
      </trkpt>
      <trkpt lat="45.96117" lon="6.54517">
        <ele>2202.04</ele>
        <time>2019-03-18T12:38:51Z</time>
      </trkpt>
      <trkpt lat="45.96111" lon="6.54526">
        <ele>2204.92</ele>
        <time>2019-03-18T12:39:05Z</time>
      </trkpt>
      <trkpt lat="45.96102" lon="6.54537">
        <ele>2207.81</ele>
        <time>2019-03-18T12:39:25Z</time>
      </trkpt>
      <trkpt lat="45.96098" lon="6.54541">
        <ele>2209.73</ele>
        <time>2019-03-18T12:39:32Z</time>
      </trkpt>
      <trkpt lat="45.96096" lon="6.54544">
        <ele>2210.21</ele>
        <time>2019-03-18T12:39:36Z</time>
      </trkpt>
      <trkpt lat="45.96093" lon="6.54548">
        <ele>2211.65</ele>
        <time>2019-03-18T12:39:42Z</time>
      </trkpt>
      <trkpt lat="45.96091" lon="6.54552">
        <ele>2212.61</ele>
        <time>2019-03-18T12:39:47Z</time>
      </trkpt>
      <trkpt lat="45.96084" lon="6.54565">
        <ele>2215.98</ele>
        <time>2019-03-18T12:40:05Z</time>
      </trkpt>
      <trkpt lat="45.96075" lon="6.5459">
        <ele>2218.38</ele>
        <time>2019-03-18T12:40:31Z</time>
      </trkpt>
      <trkpt lat="45.96074" lon="6.54595">
        <ele>2219.34</ele>
        <time>2019-03-18T12:40:40Z</time>
      </trkpt>
      <trkpt lat="45.96074" lon="6.54597">
        <ele>2219.82</ele>
        <time>2019-03-18T12:40:41Z</time>
      </trkpt>
      <trkpt lat="45.96075" lon="6.5462">
        <ele>2221.74</ele>
        <time>2019-03-18T12:41:01Z</time>
      </trkpt>
      <trkpt lat="45.96075" lon="6.54622">
        <ele>2222.22</ele>
        <time>2019-03-18T12:41:03Z</time>
      </trkpt>
      <trkpt lat="45.96075" lon="6.54624">
        <ele>2222.71</ele>
        <time>2019-03-18T12:41:05Z</time>
      </trkpt>
      <trkpt lat="45.96074" lon="6.54625">
        <ele>2222.71</ele>
        <time>2019-03-18T12:41:07Z</time>
      </trkpt>
      <trkpt lat="45.9607" lon="6.54628">
        <ele>2224.15</ele>
        <time>2019-03-18T12:41:13Z</time>
      </trkpt>
      <trkpt lat="45.96061" lon="6.54635">
        <ele>2227.03</ele>
        <time>2019-03-18T12:41:29Z</time>
      </trkpt>
      <trkpt lat="45.96052" lon="6.54638">
        <ele>2230.4</ele>
        <time>2019-03-18T12:41:45Z</time>
      </trkpt>
      <trkpt lat="45.96041" lon="6.54643">
        <ele>2233.28</ele>
        <time>2019-03-18T12:42:02Z</time>
      </trkpt>
      <trkpt lat="45.96031" lon="6.54645">
        <ele>2236.16</ele>
        <time>2019-03-18T12:42:19Z</time>
      </trkpt>
      <trkpt lat="45.96024" lon="6.54647">
        <ele>2238.09</ele>
        <time>2019-03-18T12:42:28Z</time>
      </trkpt>
      <trkpt lat="45.96026" lon="6.54655">
        <ele>2240.49</ele>
        <time>2019-03-18T12:42:45Z</time>
      </trkpt>
      <trkpt lat="45.96028" lon="6.54664">
        <ele>2242.41</ele>
        <time>2019-03-18T12:42:56Z</time>
      </trkpt>
      <trkpt lat="45.96031" lon="6.54674">
        <ele>2244.33</ele>
        <time>2019-03-18T12:43:08Z</time>
      </trkpt>
      <trkpt lat="45.96031" lon="6.54676">
        <ele>2244.82</ele>
        <time>2019-03-18T12:43:10Z</time>
      </trkpt>
      <trkpt lat="45.96033" lon="6.54681">
        <ele>2245.78</ele>
        <time>2019-03-18T12:43:16Z</time>
      </trkpt>
      <trkpt lat="45.96034" lon="6.54683">
        <ele>2245.78</ele>
        <time>2019-03-18T12:43:18Z</time>
      </trkpt>
      <trkpt lat="45.96039" lon="6.54693">
        <ele>2247.7</ele>
        <time>2019-03-18T12:43:31Z</time>
      </trkpt>
      <trkpt lat="45.96044" lon="6.54705">
        <ele>2250.58</ele>
        <time>2019-03-18T12:43:46Z</time>
      </trkpt>
      <trkpt lat="45.96045" lon="6.54706">
        <ele>2251.06</ele>
        <time>2019-03-18T12:43:48Z</time>
      </trkpt>
      <trkpt lat="45.96049" lon="6.5472">
        <ele>2253.95</ele>
        <time>2019-03-18T12:44:05Z</time>
      </trkpt>
      <trkpt lat="45.96056" lon="6.54734">
        <ele>2256.83</ele>
        <time>2019-03-18T12:44:24Z</time>
      </trkpt>
      <trkpt lat="45.96058" lon="6.5474">
        <ele>2258.27</ele>
        <time>2019-03-18T12:44:31Z</time>
      </trkpt>
      <trkpt lat="45.96059" lon="6.54742">
        <ele>2258.75</ele>
        <time>2019-03-18T12:44:33Z</time>
      </trkpt>
      <trkpt lat="45.96062" lon="6.54747">
        <ele>2259.72</ele>
        <time>2019-03-18T12:44:39Z</time>
      </trkpt>
      <trkpt lat="45.96062" lon="6.54753">
        <ele>2260.68</ele>
        <time>2019-03-18T12:44:45Z</time>
      </trkpt>
      <trkpt lat="45.96063" lon="6.54755">
        <ele>2261.16</ele>
        <time>2019-03-18T12:44:47Z</time>
      </trkpt>
      <trkpt lat="45.96064" lon="6.54762">
        <ele>2262.12</ele>
        <time>2019-03-18T12:44:55Z</time>
      </trkpt>
      <trkpt lat="45.96067" lon="6.54772">
        <ele>2264.52</ele>
        <time>2019-03-18T12:45:08Z</time>
      </trkpt>
      <trkpt lat="45.96074" lon="6.54786">
        <ele>2267.41</ele>
        <time>2019-03-18T12:45:26Z</time>
      </trkpt>
      <trkpt lat="45.96078" lon="6.54799">
        <ele>2270.29</ele>
        <time>2019-03-18T12:45:43Z</time>
      </trkpt>
      <trkpt lat="45.96078" lon="6.54801">
        <ele>2270.77</ele>
        <time>2019-03-18T12:45:45Z</time>
      </trkpt>
      <trkpt lat="45.96079" lon="6.54803">
        <ele>2270.77</ele>
        <time>2019-03-18T12:45:47Z</time>
      </trkpt>
      <trkpt lat="45.96079" lon="6.54807">
        <ele>2272.21</ele>
        <time>2019-03-18T12:45:51Z</time>
      </trkpt>
      <trkpt lat="45.96086" lon="6.5482">
        <ele>2275.1</ele>
        <time>2019-03-18T12:46:10Z</time>
      </trkpt>
      <trkpt lat="45.96091" lon="6.54833">
        <ele>2278.46</ele>
        <time>2019-03-18T12:46:26Z</time>
      </trkpt>
      <trkpt lat="45.96096" lon="6.54846">
        <ele>2281.35</ele>
        <time>2019-03-18T12:46:43Z</time>
      </trkpt>
      <trkpt lat="45.96101" lon="6.54859">
        <ele>2284.71</ele>
        <time>2019-03-18T12:47:02Z</time>
      </trkpt>
      <trkpt lat="45.96106" lon="6.54869">
        <ele>2287.59</ele>
        <time>2019-03-18T12:47:24Z</time>
      </trkpt>
      <trkpt lat="45.96097" lon="6.54875">
        <ele>2290.48</ele>
        <time>2019-03-18T12:47:43Z</time>
      </trkpt>
      <trkpt lat="45.96097" lon="6.54891">
        <ele>2293.36</ele>
        <time>2019-03-18T12:48:01Z</time>
      </trkpt>
      <trkpt lat="45.96097" lon="6.54894">
        <ele>2293.84</ele>
        <time>2019-03-18T12:48:03Z</time>
      </trkpt>
      <trkpt lat="45.96099" lon="6.549">
        <ele>2294.8</ele>
        <time>2019-03-18T12:48:10Z</time>
      </trkpt>
      <trkpt lat="45.96102" lon="6.54915">
        <ele>2293.84</ele>
        <time>2019-03-18T12:48:22Z</time>
      </trkpt>
      <trkpt lat="45.96105" lon="6.54928">
        <ele>2297.21</ele>
        <time>2019-03-18T12:48:38Z</time>
      </trkpt>
      <trkpt lat="45.96104" lon="6.54942">
        <ele>2300.09</ele>
        <time>2019-03-18T12:48:54Z</time>
      </trkpt>
      <trkpt lat="45.96099" lon="6.54953">
        <ele>2303.46</ele>
        <time>2019-03-18T12:49:11Z</time>
      </trkpt>
      <trkpt lat="45.96093" lon="6.5497">
        <ele>2306.82</ele>
        <time>2019-03-18T12:49:31Z</time>
      </trkpt>
      <trkpt lat="45.96093" lon="6.54981">
        <ele>2309.7</ele>
        <time>2019-03-18T12:49:54Z</time>
      </trkpt>
      <trkpt lat="45.96102" lon="6.54991">
        <ele>2312.59</ele>
        <time>2019-03-18T12:50:13Z</time>
      </trkpt>
      <trkpt lat="45.96106" lon="6.54996">
        <ele>2314.51</ele>
        <time>2019-03-18T12:50:21Z</time>
      </trkpt>
      <trkpt lat="45.96108" lon="6.54999">
        <ele>2314.99</ele>
        <time>2019-03-18T12:50:25Z</time>
      </trkpt>
      <trkpt lat="45.96111" lon="6.55004">
        <ele>2316.43</ele>
        <time>2019-03-18T12:50:33Z</time>
      </trkpt>
      <trkpt lat="45.96115" lon="6.55014">
        <ele>2318.84</ele>
        <time>2019-03-18T12:50:46Z</time>
      </trkpt>
      <trkpt lat="45.96119" lon="6.55024">
        <ele>2320.76</ele>
        <time>2019-03-18T12:50:56Z</time>
      </trkpt>
      <trkpt lat="45.96122" lon="6.5504">
        <ele>2323.64</ele>
        <time>2019-03-18T12:51:13Z</time>
      </trkpt>
      <trkpt lat="45.96122" lon="6.55044">
        <ele>2324.12</ele>
        <time>2019-03-18T12:51:17Z</time>
      </trkpt>
      <trkpt lat="45.96122" lon="6.55053">
        <ele>2324.61</ele>
        <time>2019-03-18T12:51:25Z</time>
      </trkpt>
      <trkpt lat="45.96122" lon="6.55054">
        <ele>2324.61</ele>
        <time>2019-03-18T12:51:26Z</time>
      </trkpt>
      <trkpt lat="45.96121" lon="6.55055">
        <ele>2324.61</ele>
        <time>2019-03-18T12:51:27Z</time>
      </trkpt>
      <trkpt lat="45.96111" lon="6.55061">
        <ele>2327.49</ele>
        <time>2019-03-18T12:51:47Z</time>
      </trkpt>
      <trkpt lat="45.961" lon="6.55063">
        <ele>2330.37</ele>
        <time>2019-03-18T12:52:05Z</time>
      </trkpt>
      <trkpt lat="45.96092" lon="6.55067">
        <ele>2333.74</ele>
        <time>2019-03-18T12:52:23Z</time>
      </trkpt>
      <trkpt lat="45.96096" lon="6.55079">
        <ele>2336.62</ele>
        <time>2019-03-18T12:52:41Z</time>
      </trkpt>
      <trkpt lat="45.96091" lon="6.5509">
        <ele>2339.99</ele>
        <time>2019-03-18T12:53:00Z</time>
      </trkpt>
      <trkpt lat="45.96084" lon="6.55097">
        <ele>2342.87</ele>
        <time>2019-03-18T12:53:14Z</time>
      </trkpt>
      <trkpt lat="45.96083" lon="6.55106">
        <ele>2346.23</ele>
        <time>2019-03-18T12:53:33Z</time>
      </trkpt>
      <trkpt lat="45.96073" lon="6.55125">
        <ele>2349.12</ele>
        <time>2019-03-18T12:53:56Z</time>
      </trkpt>
      <trkpt lat="45.96063" lon="6.55132">
        <ele>2352</ele>
        <time>2019-03-18T12:54:15Z</time>
      </trkpt>
      <trkpt lat="45.96053" lon="6.55136">
        <ele>2355.37</ele>
        <time>2019-03-18T12:54:33Z</time>
      </trkpt>
      <trkpt lat="45.96042" lon="6.55142">
        <ele>2358.25</ele>
        <time>2019-03-18T12:54:53Z</time>
      </trkpt>
      <trkpt lat="45.96034" lon="6.5515">
        <ele>2361.62</ele>
        <time>2019-03-18T12:55:11Z</time>
      </trkpt>
      <trkpt lat="45.9603" lon="6.55161">
        <ele>2364.5</ele>
        <time>2019-03-18T12:55:27Z</time>
      </trkpt>
      <trkpt lat="45.96037" lon="6.55171">
        <ele>2367.38</ele>
        <time>2019-03-18T12:55:44Z</time>
      </trkpt>
      <trkpt lat="45.96039" lon="6.55179">
        <ele>2368.83</ele>
        <time>2019-03-18T12:56:54Z</time>
      </trkpt>
      <trkpt lat="45.9604" lon="6.55177">
        <ele>2368.83</ele>
        <time>2019-03-18T12:57:29Z</time>
      </trkpt>
      <trkpt lat="45.96052" lon="6.55178">
        <ele>2368.83</ele>
        <time>2019-03-18T12:58:41Z</time>
      </trkpt>
      <trkpt lat="45.96055" lon="6.55178">
        <ele>2368.35</ele>
        <time>2019-03-18T12:58:44Z</time>
      </trkpt>
      <trkpt lat="45.96055" lon="6.55178">
        <ele>2368.35</ele>
        <time>2019-03-18T12:58:45Z</time>
      </trkpt>
      <trkpt lat="45.96056" lon="6.55179">
        <ele>2367.86</ele>
        <time>2019-03-18T12:58:46Z</time>
      </trkpt>
      <trkpt lat="45.96062" lon="6.55179">
        <ele>2367.38</ele>
        <time>2019-03-18T12:58:52Z</time>
      </trkpt>
      <trkpt lat="45.96062" lon="6.55179">
        <ele>2367.86</ele>
        <time>2019-03-18T12:58:53Z</time>
      </trkpt>
      <trkpt lat="45.96076" lon="6.55178">
        <ele>2364.5</ele>
        <time>2019-03-18T12:59:06Z</time>
      </trkpt>
      <trkpt lat="45.96077" lon="6.55178">
        <ele>2364.02</ele>
        <time>2019-03-18T12:59:08Z</time>
      </trkpt>
      <trkpt lat="45.96086" lon="6.55184">
        <ele>2362.1</ele>
        <time>2019-03-18T12:59:24Z</time>
      </trkpt>
      <trkpt lat="45.9609" lon="6.55188">
        <ele>2362.1</ele>
        <time>2019-03-18T12:59:32Z</time>
      </trkpt>
      <trkpt lat="45.96091" lon="6.55193">
        <ele>2362.1</ele>
        <time>2019-03-18T12:59:37Z</time>
      </trkpt>
      <trkpt lat="45.96094" lon="6.55213">
        <ele>2363.54</ele>
        <time>2019-03-18T12:59:58Z</time>
      </trkpt>
      <trkpt lat="45.96094" lon="6.55223">
        <ele>2365.94</ele>
        <time>2019-03-18T13:00:08Z</time>
      </trkpt>
      <trkpt lat="45.96093" lon="6.55227">
        <ele>2366.42</ele>
        <time>2019-03-18T13:00:12Z</time>
      </trkpt>
      <trkpt lat="45.96088" lon="6.55238">
        <ele>2369.79</ele>
        <time>2019-03-18T13:00:27Z</time>
      </trkpt>
      <trkpt lat="45.96084" lon="6.55251">
        <ele>2373.15</ele>
        <time>2019-03-18T13:00:43Z</time>
      </trkpt>
      <trkpt lat="45.9608" lon="6.5527">
        <ele>2376.04</ele>
        <time>2019-03-18T13:01:03Z</time>
      </trkpt>
      <trkpt lat="45.96087" lon="6.55263">
        <ele>2376.04</ele>
        <time>2019-03-18T13:03:16Z</time>
      </trkpt>
      <trkpt lat="45.96089" lon="6.55265">
        <ele>2376.04</ele>
        <time>2019-03-18T13:04:29Z</time>
      </trkpt>
      <trkpt lat="45.96087" lon="6.55267">
        <ele>2376.52</ele>
        <time>2019-03-18T13:05:45Z</time>
      </trkpt>
      <trkpt lat="45.96086" lon="6.55281">
        <ele>2377</ele>
        <time>2019-03-18T13:06:15Z</time>
      </trkpt>
      <trkpt lat="45.96087" lon="6.55283">
        <ele>2377</ele>
        <time>2019-03-18T13:06:16Z</time>
      </trkpt>
      <trkpt lat="45.96087" lon="6.55285">
        <ele>2375.07</ele>
        <time>2019-03-18T13:06:19Z</time>
      </trkpt>
      <trkpt lat="45.96087" lon="6.55297">
        <ele>2375.55</ele>
        <time>2019-03-18T13:06:36Z</time>
      </trkpt>
      <trkpt lat="45.96087" lon="6.55309">
        <ele>2377.96</ele>
        <time>2019-03-18T13:06:49Z</time>
      </trkpt>
      <trkpt lat="45.96087" lon="6.55318">
        <ele>2379.88</ele>
        <time>2019-03-18T13:06:58Z</time>
      </trkpt>
      <trkpt lat="45.96086" lon="6.55332">
        <ele>2382.28</ele>
        <time>2019-03-18T13:07:14Z</time>
      </trkpt>
      <trkpt lat="45.96088" lon="6.55339">
        <ele>2385.17</ele>
        <time>2019-03-18T13:07:30Z</time>
      </trkpt>
      <trkpt lat="45.96092" lon="6.55342">
        <ele>2386.61</ele>
        <time>2019-03-18T13:07:35Z</time>
      </trkpt>
      <trkpt lat="45.96097" lon="6.55354">
        <ele>2389.49</ele>
        <time>2019-03-18T13:07:51Z</time>
      </trkpt>
      <trkpt lat="45.96102" lon="6.55367">
        <ele>2392.86</ele>
        <time>2019-03-18T13:08:05Z</time>
      </trkpt>
      <trkpt lat="45.96103" lon="6.55373">
        <ele>2393.82</ele>
        <time>2019-03-18T13:08:11Z</time>
      </trkpt>
      <trkpt lat="45.96108" lon="6.55385">
        <ele>2397.18</ele>
        <time>2019-03-18T13:08:26Z</time>
      </trkpt>
      <trkpt lat="45.96113" lon="6.55397">
        <ele>2400.07</ele>
        <time>2019-03-18T13:08:42Z</time>
      </trkpt>
      <trkpt lat="45.96104" lon="6.55406">
        <ele>2402.95</ele>
        <time>2019-03-18T13:08:56Z</time>
      </trkpt>
      <trkpt lat="45.96095" lon="6.55412">
        <ele>2406.32</ele>
        <time>2019-03-18T13:09:11Z</time>
      </trkpt>
      <trkpt lat="45.9609" lon="6.55413">
        <ele>2407.28</ele>
        <time>2019-03-18T13:09:17Z</time>
      </trkpt>
      <trkpt lat="45.96088" lon="6.55414">
        <ele>2408.24</ele>
        <time>2019-03-18T13:09:21Z</time>
      </trkpt>
      <trkpt lat="45.96083" lon="6.55417">
        <ele>2409.2</ele>
        <time>2019-03-18T13:09:26Z</time>
      </trkpt>
      <trkpt lat="45.96082" lon="6.55416">
        <ele>2409.68</ele>
        <time>2019-03-18T13:09:28Z</time>
      </trkpt>
      <trkpt lat="45.96081" lon="6.55417">
        <ele>2410.16</ele>
        <time>2019-03-18T13:09:30Z</time>
      </trkpt>
      <trkpt lat="45.96079" lon="6.55417">
        <ele>2410.16</ele>
        <time>2019-03-18T13:09:32Z</time>
      </trkpt>
      <trkpt lat="45.96076" lon="6.55419">
        <ele>2411.6</ele>
        <time>2019-03-18T13:09:38Z</time>
      </trkpt>
      <trkpt lat="45.96069" lon="6.55425">
        <ele>2414.49</ele>
        <time>2019-03-18T13:09:52Z</time>
      </trkpt>
      <trkpt lat="45.9607" lon="6.5543">
        <ele>2416.41</ele>
        <time>2019-03-18T13:10:01Z</time>
      </trkpt>
      <trkpt lat="45.96073" lon="6.55434">
        <ele>2416.89</ele>
        <time>2019-03-18T13:10:06Z</time>
      </trkpt>
      <trkpt lat="45.96073" lon="6.55435">
        <ele>2417.37</ele>
        <time>2019-03-18T13:10:07Z</time>
      </trkpt>
      <trkpt lat="45.96083" lon="6.55449">
        <ele>2420.26</ele>
        <time>2019-03-18T13:10:24Z</time>
      </trkpt>
      <trkpt lat="45.96087" lon="6.55458">
        <ele>2422.18</ele>
        <time>2019-03-18T13:10:34Z</time>
      </trkpt>
      <trkpt lat="45.96088" lon="6.5546">
        <ele>2422.66</ele>
        <time>2019-03-18T13:10:36Z</time>
      </trkpt>
      <trkpt lat="45.9609" lon="6.55465">
        <ele>2423.62</ele>
        <time>2019-03-18T13:10:42Z</time>
      </trkpt>
      <trkpt lat="45.96092" lon="6.55468">
        <ele>2424.58</ele>
        <time>2019-03-18T13:10:45Z</time>
      </trkpt>
      <trkpt lat="45.96094" lon="6.55476">
        <ele>2426.02</ele>
        <time>2019-03-18T13:10:53Z</time>
      </trkpt>
      <trkpt lat="45.96096" lon="6.5548">
        <ele>2426.5</ele>
        <time>2019-03-18T13:10:57Z</time>
      </trkpt>
      <trkpt lat="45.96098" lon="6.55492">
        <ele>2429.39</ele>
        <time>2019-03-18T13:11:16Z</time>
      </trkpt>
      <trkpt lat="45.96094" lon="6.55494">
        <ele>2431.31</ele>
        <time>2019-03-18T13:11:23Z</time>
      </trkpt>
      <trkpt lat="45.96091" lon="6.55494">
        <ele>2431.79</ele>
        <time>2019-03-18T13:11:27Z</time>
      </trkpt>
      <trkpt lat="45.96082" lon="6.55497">
        <ele>2434.68</ele>
        <time>2019-03-18T13:11:43Z</time>
      </trkpt>
      <trkpt lat="45.96075" lon="6.55501">
        <ele>2437.56</ele>
        <time>2019-03-18T13:12:00Z</time>
      </trkpt>
      <trkpt lat="45.96077" lon="6.55506">
        <ele>2439</ele>
        <time>2019-03-18T13:12:06Z</time>
      </trkpt>
      <trkpt lat="45.96083" lon="6.55518">
        <ele>2441.89</ele>
        <time>2019-03-18T13:12:21Z</time>
      </trkpt>
      <trkpt lat="45.96089" lon="6.55531">
        <ele>2444.77</ele>
        <time>2019-03-18T13:12:38Z</time>
      </trkpt>
      <trkpt lat="45.9609" lon="6.55532">
        <ele>2445.25</ele>
        <time>2019-03-18T13:12:39Z</time>
      </trkpt>
      <trkpt lat="45.96091" lon="6.55535">
        <ele>2446.21</ele>
        <time>2019-03-18T13:12:43Z</time>
      </trkpt>
      <trkpt lat="45.96098" lon="6.55547">
        <ele>2449.1</ele>
        <time>2019-03-18T13:12:58Z</time>
      </trkpt>
      <trkpt lat="45.961" lon="6.5555">
        <ele>2449.58</ele>
        <time>2019-03-18T13:13:02Z</time>
      </trkpt>
      <trkpt lat="45.96102" lon="6.55554">
        <ele>2450.54</ele>
        <time>2019-03-18T13:13:06Z</time>
      </trkpt>
      <trkpt lat="45.96103" lon="6.55557">
        <ele>2451.02</ele>
        <time>2019-03-18T13:13:09Z</time>
      </trkpt>
      <trkpt lat="45.96107" lon="6.55564">
        <ele>2451.98</ele>
        <time>2019-03-18T13:13:17Z</time>
      </trkpt>
      <trkpt lat="45.96108" lon="6.55566">
        <ele>2452.46</ele>
        <time>2019-03-18T13:13:19Z</time>
      </trkpt>
      <trkpt lat="45.96111" lon="6.55571">
        <ele>2452.94</ele>
        <time>2019-03-18T13:13:25Z</time>
      </trkpt>
      <trkpt lat="45.96124" lon="6.55598">
        <ele>2455.82</ele>
        <time>2019-03-18T13:13:59Z</time>
      </trkpt>
      <trkpt lat="45.96124" lon="6.556">
        <ele>2456.31</ele>
        <time>2019-03-18T13:14:01Z</time>
      </trkpt>
      <trkpt lat="45.96126" lon="6.55607">
        <ele>2456.79</ele>
        <time>2019-03-18T13:14:06Z</time>
      </trkpt>
      <trkpt lat="45.96126" lon="6.5561">
        <ele>2457.27</ele>
        <time>2019-03-18T13:14:09Z</time>
      </trkpt>
      <trkpt lat="45.96127" lon="6.55616">
        <ele>2458.23</ele>
        <time>2019-03-18T13:14:13Z</time>
      </trkpt>
      <trkpt lat="45.96127" lon="6.55618">
        <ele>2458.23</ele>
        <time>2019-03-18T13:14:14Z</time>
      </trkpt>
      <trkpt lat="45.96128" lon="6.5562">
        <ele>2458.23</ele>
        <time>2019-03-18T13:14:16Z</time>
      </trkpt>
      <trkpt lat="45.96128" lon="6.55622">
        <ele>2458.23</ele>
        <time>2019-03-18T13:14:17Z</time>
      </trkpt>
      <trkpt lat="45.96128" lon="6.55623">
        <ele>2458.23</ele>
        <time>2019-03-18T13:14:18Z</time>
      </trkpt>
      <trkpt lat="45.96128" lon="6.55625">
        <ele>2458.23</ele>
        <time>2019-03-18T13:14:19Z</time>
      </trkpt>
      <trkpt lat="45.96129" lon="6.55626">
        <ele>2458.23</ele>
        <time>2019-03-18T13:14:20Z</time>
      </trkpt>
      <trkpt lat="45.96129" lon="6.55628">
        <ele>2458.23</ele>
        <time>2019-03-18T13:14:21Z</time>
      </trkpt>
      <trkpt lat="45.96129" lon="6.55629">
        <ele>2458.71</ele>
        <time>2019-03-18T13:14:22Z</time>
      </trkpt>
      <trkpt lat="45.96132" lon="6.55645">
        <ele>2460.15</ele>
        <time>2019-03-18T13:14:33Z</time>
      </trkpt>
      <trkpt lat="45.96132" lon="6.55647">
        <ele>2460.15</ele>
        <time>2019-03-18T13:14:35Z</time>
      </trkpt>
      <trkpt lat="45.96133" lon="6.55648">
        <ele>2460.63</ele>
        <time>2019-03-18T13:14:36Z</time>
      </trkpt>
      <trkpt lat="45.96133" lon="6.55653">
        <ele>2461.11</ele>
        <time>2019-03-18T13:14:40Z</time>
      </trkpt>
      <trkpt lat="45.96133" lon="6.55655">
        <ele>2461.59</ele>
        <time>2019-03-18T13:14:42Z</time>
      </trkpt>
      <trkpt lat="45.96133" lon="6.55674">
        <ele>2464.48</ele>
        <time>2019-03-18T13:15:03Z</time>
      </trkpt>
      <trkpt lat="45.96132" lon="6.55689">
        <ele>2467.36</ele>
        <time>2019-03-18T13:15:19Z</time>
      </trkpt>
      <trkpt lat="45.96133" lon="6.55696">
        <ele>2468.8</ele>
        <time>2019-03-18T13:15:27Z</time>
      </trkpt>
      <trkpt lat="45.96134" lon="6.55712">
        <ele>2471.69</ele>
        <time>2019-03-18T13:15:44Z</time>
      </trkpt>
      <trkpt lat="45.96133" lon="6.55721">
        <ele>2473.61</ele>
        <time>2019-03-18T13:15:54Z</time>
      </trkpt>
      <trkpt lat="45.96133" lon="6.55723">
        <ele>2474.09</ele>
        <time>2019-03-18T13:15:56Z</time>
      </trkpt>
      <trkpt lat="45.96134" lon="6.5573">
        <ele>2475.05</ele>
        <time>2019-03-18T13:16:03Z</time>
      </trkpt>
      <trkpt lat="45.96134" lon="6.55741">
        <ele>2476.01</ele>
        <time>2019-03-18T13:16:13Z</time>
      </trkpt>
      <trkpt lat="45.96134" lon="6.55745">
        <ele>2476.97</ele>
        <time>2019-03-18T13:16:17Z</time>
      </trkpt>
      <trkpt lat="45.96127" lon="6.55752">
        <ele>2479.86</ele>
        <time>2019-03-18T13:16:31Z</time>
      </trkpt>
      <trkpt lat="45.96124" lon="6.55762">
        <ele>2483.22</ele>
        <time>2019-03-18T13:16:50Z</time>
      </trkpt>
      <trkpt lat="45.96125" lon="6.55775">
        <ele>2486.11</ele>
        <time>2019-03-18T13:17:05Z</time>
      </trkpt>
      <trkpt lat="45.96115" lon="6.55773">
        <ele>2488.99</ele>
        <time>2019-03-18T13:17:25Z</time>
      </trkpt>
      <trkpt lat="45.96106" lon="6.55771">
        <ele>2491.87</ele>
        <time>2019-03-18T13:17:49Z</time>
      </trkpt>
      <trkpt lat="45.961" lon="6.55771">
        <ele>2493.8</ele>
        <time>2019-03-18T13:17:59Z</time>
      </trkpt>
      <trkpt lat="45.96098" lon="6.55771">
        <ele>2494.28</ele>
        <time>2019-03-18T13:18:01Z</time>
      </trkpt>
      <trkpt lat="45.96096" lon="6.5578">
        <ele>2497.16</ele>
        <time>2019-03-18T13:18:29Z</time>
      </trkpt>
      <trkpt lat="45.961" lon="6.55792">
        <ele>2500.53</ele>
        <time>2019-03-18T13:18:45Z</time>
      </trkpt>
      <trkpt lat="45.96107" lon="6.558">
        <ele>2502.45</ele>
        <time>2019-03-18T13:19:43Z</time>
      </trkpt>
      <trkpt lat="45.96113" lon="6.55805">
        <ele>2504.37</ele>
        <time>2019-03-18T13:20:07Z</time>
      </trkpt>
      <trkpt lat="45.96112" lon="6.55804">
        <ele>2504.37</ele>
        <time>2019-03-18T13:20:32Z</time>
      </trkpt>
      <trkpt lat="45.96112" lon="6.55805">
        <ele>2504.37</ele>
        <time>2019-03-18T13:20:59Z</time>
      </trkpt>
      <trkpt lat="45.96112" lon="6.55805">
        <ele>2503.89</ele>
        <time>2019-03-18T13:21:28Z</time>
      </trkpt>
      <trkpt lat="45.96116" lon="6.55804">
        <ele>2503.41</ele>
        <time>2019-03-18T13:24:50Z</time>
      </trkpt>
      <trkpt lat="45.96117" lon="6.55806">
        <ele>2503.89</ele>
        <time>2019-03-18T13:25:02Z</time>
      </trkpt>
      <trkpt lat="45.96119" lon="6.55815">
        <ele>2506.77</ele>
        <time>2019-03-18T13:25:28Z</time>
      </trkpt>
      <trkpt lat="45.9612" lon="6.55823">
        <ele>2510.14</ele>
        <time>2019-03-18T13:25:38Z</time>
      </trkpt>
      <trkpt lat="45.96122" lon="6.55833">
        <ele>2513.5</ele>
        <time>2019-03-18T13:25:53Z</time>
      </trkpt>
      <trkpt lat="45.96128" lon="6.5585">
        <ele>2516.39</ele>
        <time>2019-03-18T13:26:16Z</time>
      </trkpt>
      <trkpt lat="45.96136" lon="6.55863">
        <ele>2519.75</ele>
        <time>2019-03-18T13:26:37Z</time>
      </trkpt>
      <trkpt lat="45.96141" lon="6.55872">
        <ele>2522.64</ele>
        <time>2019-03-18T13:26:59Z</time>
      </trkpt>
      <trkpt lat="45.96143" lon="6.55878">
        <ele>2526</ele>
        <time>2019-03-18T13:27:18Z</time>
      </trkpt>
      <trkpt lat="45.96145" lon="6.55883">
        <ele>2528.89</ele>
        <time>2019-03-18T13:27:37Z</time>
      </trkpt>
      <trkpt lat="45.96146" lon="6.55889">
        <ele>2531.77</ele>
        <time>2019-03-18T13:27:52Z</time>
      </trkpt>
      <trkpt lat="45.96149" lon="6.55898">
        <ele>2535.13</ele>
        <time>2019-03-18T13:28:10Z</time>
      </trkpt>
      <trkpt lat="45.96149" lon="6.55903">
        <ele>2538.02</ele>
        <time>2019-03-18T13:28:30Z</time>
      </trkpt>
      <trkpt lat="45.96148" lon="6.55906">
        <ele>2539.94</ele>
        <time>2019-03-18T13:28:56Z</time>
      </trkpt>
      <trkpt lat="45.96149" lon="6.55907">
        <ele>2540.42</ele>
        <time>2019-03-18T13:28:57Z</time>
      </trkpt>
      <trkpt lat="45.96147" lon="6.55907">
        <ele>2542.34</ele>
        <time>2019-03-18T13:29:08Z</time>
      </trkpt>
      <trkpt lat="45.96146" lon="6.55909">
        <ele>2545.23</ele>
        <time>2019-03-18T13:29:39Z</time>
      </trkpt>
      <trkpt lat="45.96146" lon="6.55908">
        <ele>2548.11</ele>
        <time>2019-03-18T13:30:13Z</time>
      </trkpt>
      <trkpt lat="45.96149" lon="6.5591">
        <ele>2546.67</ele>
        <time>2019-03-18T13:31:03Z</time>
      </trkpt>
      <trkpt lat="45.96148" lon="6.55911">
        <ele>2547.63</ele>
        <time>2019-03-18T13:31:41Z</time>
      </trkpt>
      <trkpt lat="45.96147" lon="6.5591">
        <ele>2546.19</ele>
        <time>2019-03-18T13:32:22Z</time>
      </trkpt>
      <trkpt lat="45.96147" lon="6.55912">
        <ele>2545.23</ele>
        <time>2019-03-18T13:34:13Z</time>
      </trkpt>
      <trkpt lat="45.96147" lon="6.55911">
        <ele>2545.23</ele>
        <time>2019-03-18T13:34:54Z</time>
      </trkpt>
      <trkpt lat="45.96147" lon="6.55909">
        <ele>2544.75</ele>
        <time>2019-03-18T13:35:33Z</time>
      </trkpt>
      <trkpt lat="45.96147" lon="6.55912">
        <ele>2544.75</ele>
        <time>2019-03-18T13:36:13Z</time>
      </trkpt>
      <trkpt lat="45.96146" lon="6.55912">
        <ele>2544.75</ele>
        <time>2019-03-18T13:36:48Z</time>
      </trkpt>
      <trkpt lat="45.96147" lon="6.55911">
        <ele>2545.71</ele>
        <time>2019-03-18T13:37:39Z</time>
      </trkpt>
      <trkpt lat="45.96147" lon="6.55912">
        <ele>2545.23</ele>
        <time>2019-03-18T13:39:25Z</time>
      </trkpt>
      <trkpt lat="45.96147" lon="6.55911">
        <ele>2545.71</ele>
        <time>2019-03-18T13:40:42Z</time>
      </trkpt>
      <trkpt lat="45.96146" lon="6.55911">
        <ele>2545.71</ele>
        <time>2019-03-18T13:41:24Z</time>
      </trkpt>
      <trkpt lat="45.96146" lon="6.55911">
        <ele>2545.71</ele>
        <time>2019-03-18T13:42:14Z</time>
      </trkpt>
      <trkpt lat="45.96147" lon="6.55912">
        <ele>2545.23</ele>
        <time>2019-03-18T13:43:23Z</time>
      </trkpt>
      <trkpt lat="45.96147" lon="6.55911">
        <ele>2544.75</ele>
        <time>2019-03-18T13:45:19Z</time>
      </trkpt>
      <trkpt lat="45.96151" lon="6.55906">
        <ele>2541.38</ele>
        <time>2019-03-18T13:46:20Z</time>
      </trkpt>
      <trkpt lat="45.96153" lon="6.55906">
        <ele>2540.9</ele>
        <time>2019-03-18T13:46:22Z</time>
      </trkpt>
      <trkpt lat="45.96154" lon="6.55907">
        <ele>2540.9</ele>
        <time>2019-03-18T13:46:23Z</time>
      </trkpt>
      <trkpt lat="45.96157" lon="6.55908">
        <ele>2539.46</ele>
        <time>2019-03-18T13:46:27Z</time>
      </trkpt>
      <trkpt lat="45.96157" lon="6.55906">
        <ele>2538.98</ele>
        <time>2019-03-18T13:46:28Z</time>
      </trkpt>
      <trkpt lat="45.96158" lon="6.55905">
        <ele>2538.5</ele>
        <time>2019-03-18T13:46:29Z</time>
      </trkpt>
      <trkpt lat="45.9616" lon="6.55905">
        <ele>2538.02</ele>
        <time>2019-03-18T13:46:30Z</time>
      </trkpt>
      <trkpt lat="45.96162" lon="6.55906">
        <ele>2536.58</ele>
        <time>2019-03-18T13:46:31Z</time>
      </trkpt>
      <trkpt lat="45.96165" lon="6.55909">
        <ele>2534.17</ele>
        <time>2019-03-18T13:46:41Z</time>
      </trkpt>
      <trkpt lat="45.96166" lon="6.5591">
        <ele>2533.69</ele>
        <time>2019-03-18T13:46:42Z</time>
      </trkpt>
      <trkpt lat="45.96167" lon="6.5591">
        <ele>2532.73</ele>
        <time>2019-03-18T13:46:43Z</time>
      </trkpt>
      <trkpt lat="45.96169" lon="6.55909">
        <ele>2531.77</ele>
        <time>2019-03-18T13:46:44Z</time>
      </trkpt>
      <trkpt lat="45.96171" lon="6.55908">
        <ele>2530.81</ele>
        <time>2019-03-18T13:46:45Z</time>
      </trkpt>
      <trkpt lat="45.96174" lon="6.55908">
        <ele>2530.33</ele>
        <time>2019-03-18T13:46:46Z</time>
      </trkpt>
      <trkpt lat="45.96176" lon="6.55906">
        <ele>2528.89</ele>
        <time>2019-03-18T13:46:47Z</time>
      </trkpt>
      <trkpt lat="45.96177" lon="6.55903">
        <ele>2526.96</ele>
        <time>2019-03-18T13:46:48Z</time>
      </trkpt>
      <trkpt lat="45.96178" lon="6.55901">
        <ele>2526</ele>
        <time>2019-03-18T13:46:49Z</time>
      </trkpt>
      <trkpt lat="45.96179" lon="6.55899">
        <ele>2525.04</ele>
        <time>2019-03-18T13:46:50Z</time>
      </trkpt>
      <trkpt lat="45.9618" lon="6.55898">
        <ele>2523.6</ele>
        <time>2019-03-18T13:46:51Z</time>
      </trkpt>
      <trkpt lat="45.9618" lon="6.55896">
        <ele>2522.16</ele>
        <time>2019-03-18T13:46:52Z</time>
      </trkpt>
      <trkpt lat="45.96181" lon="6.55894">
        <ele>2521.19</ele>
        <time>2019-03-18T13:46:53Z</time>
      </trkpt>
      <trkpt lat="45.9618" lon="6.55891">
        <ele>2519.75</ele>
        <time>2019-03-18T13:46:54Z</time>
      </trkpt>
      <trkpt lat="45.9618" lon="6.55889">
        <ele>2519.27</ele>
        <time>2019-03-18T13:46:55Z</time>
      </trkpt>
      <trkpt lat="45.96181" lon="6.55886">
        <ele>2518.31</ele>
        <time>2019-03-18T13:46:57Z</time>
      </trkpt>
      <trkpt lat="45.96183" lon="6.55885">
        <ele>2517.83</ele>
        <time>2019-03-18T13:46:58Z</time>
      </trkpt>
      <trkpt lat="45.96184" lon="6.55884">
        <ele>2516.39</ele>
        <time>2019-03-18T13:46:59Z</time>
      </trkpt>
      <trkpt lat="45.96185" lon="6.55882">
        <ele>2515.43</ele>
        <time>2019-03-18T13:47:00Z</time>
      </trkpt>
      <trkpt lat="45.96185" lon="6.5588">
        <ele>2514.47</ele>
        <time>2019-03-18T13:47:01Z</time>
      </trkpt>
      <trkpt lat="45.96184" lon="6.55878">
        <ele>2513.98</ele>
        <time>2019-03-18T13:47:02Z</time>
      </trkpt>
      <trkpt lat="45.96183" lon="6.55876">
        <ele>2512.54</ele>
        <time>2019-03-18T13:47:04Z</time>
      </trkpt>
      <trkpt lat="45.96182" lon="6.55873">
        <ele>2511.58</ele>
        <time>2019-03-18T13:47:16Z</time>
      </trkpt>
      <trkpt lat="45.96182" lon="6.55872">
        <ele>2511.58</ele>
        <time>2019-03-18T13:47:17Z</time>
      </trkpt>
      <trkpt lat="45.96182" lon="6.55868">
        <ele>2510.62</ele>
        <time>2019-03-18T13:47:34Z</time>
      </trkpt>
      <trkpt lat="45.96183" lon="6.55867">
        <ele>2510.62</ele>
        <time>2019-03-18T13:47:35Z</time>
      </trkpt>
      <trkpt lat="45.96184" lon="6.55866">
        <ele>2510.14</ele>
        <time>2019-03-18T13:47:36Z</time>
      </trkpt>
      <trkpt lat="45.96189" lon="6.55869">
        <ele>2509.18</ele>
        <time>2019-03-18T13:47:45Z</time>
      </trkpt>
      <trkpt lat="45.96193" lon="6.55867">
        <ele>2506.29</ele>
        <time>2019-03-18T13:47:56Z</time>
      </trkpt>
      <trkpt lat="45.96194" lon="6.55867">
        <ele>2505.81</ele>
        <time>2019-03-18T13:47:57Z</time>
      </trkpt>
      <trkpt lat="45.96196" lon="6.55865">
        <ele>2502.93</ele>
        <time>2019-03-18T13:48:13Z</time>
      </trkpt>
      <trkpt lat="45.962" lon="6.55862">
        <ele>2499.57</ele>
        <time>2019-03-18T13:48:48Z</time>
      </trkpt>
      <trkpt lat="45.96203" lon="6.55858">
        <ele>2496.68</ele>
        <time>2019-03-18T13:49:43Z</time>
      </trkpt>
      <trkpt lat="45.96204" lon="6.55858">
        <ele>2496.2</ele>
        <time>2019-03-18T13:49:51Z</time>
      </trkpt>
      <trkpt lat="45.96204" lon="6.55855">
        <ele>2495.72</ele>
        <time>2019-03-18T13:49:53Z</time>
      </trkpt>
      <trkpt lat="45.96204" lon="6.55853">
        <ele>2495.24</ele>
        <time>2019-03-18T13:49:54Z</time>
      </trkpt>
      <trkpt lat="45.96203" lon="6.55852">
        <ele>2494.76</ele>
        <time>2019-03-18T13:49:55Z</time>
      </trkpt>
      <trkpt lat="45.96202" lon="6.55848">
        <ele>2493.32</ele>
        <time>2019-03-18T13:50:03Z</time>
      </trkpt>
      <trkpt lat="45.96201" lon="6.55847">
        <ele>2493.32</ele>
        <time>2019-03-18T13:50:04Z</time>
      </trkpt>
      <trkpt lat="45.962" lon="6.55846">
        <ele>2493.32</ele>
        <time>2019-03-18T13:50:05Z</time>
      </trkpt>
      <trkpt lat="45.96185" lon="6.55815">
        <ele>2489.95</ele>
        <time>2019-03-18T13:50:28Z</time>
      </trkpt>
      <trkpt lat="45.96179" lon="6.55802">
        <ele>2488.51</ele>
        <time>2019-03-18T13:50:45Z</time>
      </trkpt>
      <trkpt lat="45.9618" lon="6.55799">
        <ele>2488.03</ele>
        <time>2019-03-18T13:50:46Z</time>
      </trkpt>
      <trkpt lat="45.96181" lon="6.55796">
        <ele>2487.55</ele>
        <time>2019-03-18T13:50:47Z</time>
      </trkpt>
      <trkpt lat="45.96182" lon="6.55793">
        <ele>2486.11</ele>
        <time>2019-03-18T13:50:48Z</time>
      </trkpt>
      <trkpt lat="45.96184" lon="6.5579">
        <ele>2484.66</ele>
        <time>2019-03-18T13:50:49Z</time>
      </trkpt>
      <trkpt lat="45.96187" lon="6.5579">
        <ele>2483.22</ele>
        <time>2019-03-18T13:50:50Z</time>
      </trkpt>
      <trkpt lat="45.96189" lon="6.55791">
        <ele>2482.74</ele>
        <time>2019-03-18T13:50:51Z</time>
      </trkpt>
      <trkpt lat="45.96191" lon="6.55792">
        <ele>2482.26</ele>
        <time>2019-03-18T13:50:52Z</time>
      </trkpt>
      <trkpt lat="45.96191" lon="6.55793">
        <ele>2481.78</ele>
        <time>2019-03-18T13:50:53Z</time>
      </trkpt>
      <trkpt lat="45.9619" lon="6.55788">
        <ele>2480.82</ele>
        <time>2019-03-18T13:51:15Z</time>
      </trkpt>
      <trkpt lat="45.96189" lon="6.55785">
        <ele>2480.82</ele>
        <time>2019-03-18T13:51:16Z</time>
      </trkpt>
      <trkpt lat="45.96188" lon="6.55781">
        <ele>2479.86</ele>
        <time>2019-03-18T13:51:17Z</time>
      </trkpt>
      <trkpt lat="45.96188" lon="6.55777">
        <ele>2479.38</ele>
        <time>2019-03-18T13:51:18Z</time>
      </trkpt>
      <trkpt lat="45.96188" lon="6.55773">
        <ele>2477.45</ele>
        <time>2019-03-18T13:51:19Z</time>
      </trkpt>
      <trkpt lat="45.96187" lon="6.55769">
        <ele>2476.49</ele>
        <time>2019-03-18T13:51:20Z</time>
      </trkpt>
      <trkpt lat="45.96182" lon="6.55765">
        <ele>2473.61</ele>
        <time>2019-03-18T13:51:34Z</time>
      </trkpt>
      <trkpt lat="45.96172" lon="6.55761">
        <ele>2471.69</ele>
        <time>2019-03-18T13:52:18Z</time>
      </trkpt>
      <trkpt lat="45.96172" lon="6.5576">
        <ele>2470.24</ele>
        <time>2019-03-18T13:52:21Z</time>
      </trkpt>
      <trkpt lat="45.96175" lon="6.55754">
        <ele>2468.8</ele>
        <time>2019-03-18T13:52:38Z</time>
      </trkpt>
      <trkpt lat="45.96175" lon="6.5575">
        <ele>2467.84</ele>
        <time>2019-03-18T13:52:39Z</time>
      </trkpt>
      <trkpt lat="45.96177" lon="6.55747">
        <ele>2466.88</ele>
        <time>2019-03-18T13:52:40Z</time>
      </trkpt>
      <trkpt lat="45.96178" lon="6.55742">
        <ele>2465.92</ele>
        <time>2019-03-18T13:52:41Z</time>
      </trkpt>
      <trkpt lat="45.96179" lon="6.55737">
        <ele>2464</ele>
        <time>2019-03-18T13:52:42Z</time>
      </trkpt>
      <trkpt lat="45.96181" lon="6.55732">
        <ele>2462.55</ele>
        <time>2019-03-18T13:52:43Z</time>
      </trkpt>
      <trkpt lat="45.96184" lon="6.55728">
        <ele>2460.63</ele>
        <time>2019-03-18T13:52:44Z</time>
      </trkpt>
      <trkpt lat="45.96186" lon="6.55724">
        <ele>2459.67</ele>
        <time>2019-03-18T13:52:45Z</time>
      </trkpt>
      <trkpt lat="45.96189" lon="6.55721">
        <ele>2457.75</ele>
        <time>2019-03-18T13:52:46Z</time>
      </trkpt>
      <trkpt lat="45.96191" lon="6.55719">
        <ele>2456.31</ele>
        <time>2019-03-18T13:52:47Z</time>
      </trkpt>
      <trkpt lat="45.96192" lon="6.55717">
        <ele>2454.86</ele>
        <time>2019-03-18T13:52:48Z</time>
      </trkpt>
      <trkpt lat="45.96197" lon="6.5571">
        <ele>2451.5</ele>
        <time>2019-03-18T13:52:57Z</time>
      </trkpt>
      <trkpt lat="45.962" lon="6.55707">
        <ele>2449.58</ele>
        <time>2019-03-18T13:52:58Z</time>
      </trkpt>
      <trkpt lat="45.96203" lon="6.55705">
        <ele>2447.65</ele>
        <time>2019-03-18T13:52:59Z</time>
      </trkpt>
      <trkpt lat="45.96206" lon="6.55704">
        <ele>2446.69</ele>
        <time>2019-03-18T13:53:00Z</time>
      </trkpt>
      <trkpt lat="45.96207" lon="6.55703">
        <ele>2445.73</ele>
        <time>2019-03-18T13:53:02Z</time>
      </trkpt>
      <trkpt lat="45.9621" lon="6.55693">
        <ele>2444.29</ele>
        <time>2019-03-18T13:53:24Z</time>
      </trkpt>
      <trkpt lat="45.9621" lon="6.55689">
        <ele>2442.85</ele>
        <time>2019-03-18T13:53:25Z</time>
      </trkpt>
      <trkpt lat="45.96211" lon="6.55683">
        <ele>2441.41</ele>
        <time>2019-03-18T13:53:26Z</time>
      </trkpt>
      <trkpt lat="45.96212" lon="6.55677">
        <ele>2439</ele>
        <time>2019-03-18T13:53:27Z</time>
      </trkpt>
      <trkpt lat="45.96214" lon="6.55672">
        <ele>2437.08</ele>
        <time>2019-03-18T13:53:28Z</time>
      </trkpt>
      <trkpt lat="45.96215" lon="6.55668">
        <ele>2435.64</ele>
        <time>2019-03-18T13:53:29Z</time>
      </trkpt>
      <trkpt lat="45.96214" lon="6.55664">
        <ele>2434.2</ele>
        <time>2019-03-18T13:53:30Z</time>
      </trkpt>
      <trkpt lat="45.96215" lon="6.55642">
        <ele>2430.35</ele>
        <time>2019-03-18T13:53:34Z</time>
      </trkpt>
      <trkpt lat="45.9622" lon="6.55626">
        <ele>2426.99</ele>
        <time>2019-03-18T13:53:39Z</time>
      </trkpt>
      <trkpt lat="45.96229" lon="6.5562">
        <ele>2423.62</ele>
        <time>2019-03-18T13:53:43Z</time>
      </trkpt>
      <trkpt lat="45.96229" lon="6.55622">
        <ele>2422.18</ele>
        <time>2019-03-18T13:53:50Z</time>
      </trkpt>
      <trkpt lat="45.96233" lon="6.55626">
        <ele>2423.14</ele>
        <time>2019-03-18T13:54:22Z</time>
      </trkpt>
      <trkpt lat="45.96236" lon="6.55615">
        <ele>2423.14</ele>
        <time>2019-03-18T13:54:36Z</time>
      </trkpt>
      <trkpt lat="45.96226" lon="6.55583">
        <ele>2419.78</ele>
        <time>2019-03-18T13:54:46Z</time>
      </trkpt>
      <trkpt lat="45.96225" lon="6.5558">
        <ele>2419.78</ele>
        <time>2019-03-18T13:54:47Z</time>
      </trkpt>
      <trkpt lat="45.96218" lon="6.55551">
        <ele>2416.41</ele>
        <time>2019-03-18T13:54:54Z</time>
      </trkpt>
      <trkpt lat="45.96212" lon="6.55533">
        <ele>2413.53</ele>
        <time>2019-03-18T13:55:03Z</time>
      </trkpt>
      <trkpt lat="45.96212" lon="6.55527">
        <ele>2414.01</ele>
        <time>2019-03-18T13:55:25Z</time>
      </trkpt>
      <trkpt lat="45.96214" lon="6.55523">
        <ele>2412.57</ele>
        <time>2019-03-18T13:55:34Z</time>
      </trkpt>
      <trkpt lat="45.96216" lon="6.55522">
        <ele>2412.09</ele>
        <time>2019-03-18T13:55:35Z</time>
      </trkpt>
      <trkpt lat="45.96218" lon="6.55522">
        <ele>2411.6</ele>
        <time>2019-03-18T13:55:36Z</time>
      </trkpt>
      <trkpt lat="45.96219" lon="6.5552">
        <ele>2410.64</ele>
        <time>2019-03-18T13:55:37Z</time>
      </trkpt>
      <trkpt lat="45.96221" lon="6.55518">
        <ele>2409.68</ele>
        <time>2019-03-18T13:55:38Z</time>
      </trkpt>
      <trkpt lat="45.96223" lon="6.55515">
        <ele>2408.24</ele>
        <time>2019-03-18T13:55:39Z</time>
      </trkpt>
      <trkpt lat="45.96224" lon="6.55511">
        <ele>2406.8</ele>
        <time>2019-03-18T13:55:40Z</time>
      </trkpt>
      <trkpt lat="45.96225" lon="6.55507">
        <ele>2406.32</ele>
        <time>2019-03-18T13:55:41Z</time>
      </trkpt>
      <trkpt lat="45.96225" lon="6.55503">
        <ele>2405.36</ele>
        <time>2019-03-18T13:55:42Z</time>
      </trkpt>
      <trkpt lat="45.96226" lon="6.55499">
        <ele>2404.88</ele>
        <time>2019-03-18T13:55:43Z</time>
      </trkpt>
      <trkpt lat="45.96228" lon="6.55495">
        <ele>2403.43</ele>
        <time>2019-03-18T13:55:44Z</time>
      </trkpt>
      <trkpt lat="45.9623" lon="6.55492">
        <ele>2402.47</ele>
        <time>2019-03-18T13:55:45Z</time>
      </trkpt>
      <trkpt lat="45.96234" lon="6.55488">
        <ele>2401.99</ele>
        <time>2019-03-18T13:55:46Z</time>
      </trkpt>
      <trkpt lat="45.96236" lon="6.55483">
        <ele>2401.03</ele>
        <time>2019-03-18T13:55:47Z</time>
      </trkpt>
      <trkpt lat="45.96239" lon="6.55476">
        <ele>2400.55</ele>
        <time>2019-03-18T13:55:48Z</time>
      </trkpt>
      <trkpt lat="45.96241" lon="6.55469">
        <ele>2399.11</ele>
        <time>2019-03-18T13:55:49Z</time>
      </trkpt>
      <trkpt lat="45.96246" lon="6.55453">
        <ele>2396.7</ele>
        <time>2019-03-18T13:55:51Z</time>
      </trkpt>
      <trkpt lat="45.96247" lon="6.55446">
        <ele>2395.74</ele>
        <time>2019-03-18T13:55:52Z</time>
      </trkpt>
      <trkpt lat="45.96246" lon="6.5544">
        <ele>2395.26</ele>
        <time>2019-03-18T13:55:53Z</time>
      </trkpt>
      <trkpt lat="45.96249" lon="6.55407">
        <ele>2391.9</ele>
        <time>2019-03-18T13:56:00Z</time>
      </trkpt>
      <trkpt lat="45.9625" lon="6.55401">
        <ele>2391.42</ele>
        <time>2019-03-18T13:56:01Z</time>
      </trkpt>
      <trkpt lat="45.9625" lon="6.55396">
        <ele>2390.94</ele>
        <time>2019-03-18T13:56:02Z</time>
      </trkpt>
      <trkpt lat="45.9625" lon="6.55391">
        <ele>2390.94</ele>
        <time>2019-03-18T13:56:03Z</time>
      </trkpt>
      <trkpt lat="45.96249" lon="6.55387">
        <ele>2390.46</ele>
        <time>2019-03-18T13:56:04Z</time>
      </trkpt>
      <trkpt lat="45.96249" lon="6.55382">
        <ele>2389.97</ele>
        <time>2019-03-18T13:56:05Z</time>
      </trkpt>
      <trkpt lat="45.96249" lon="6.55377">
        <ele>2389.49</ele>
        <time>2019-03-18T13:56:06Z</time>
      </trkpt>
      <trkpt lat="45.9625" lon="6.55373">
        <ele>2389.01</ele>
        <time>2019-03-18T13:56:07Z</time>
      </trkpt>
      <trkpt lat="45.96251" lon="6.55369">
        <ele>2388.53</ele>
        <time>2019-03-18T13:56:08Z</time>
      </trkpt>
      <trkpt lat="45.96258" lon="6.55341">
        <ele>2385.17</ele>
        <time>2019-03-18T13:56:14Z</time>
      </trkpt>
      <trkpt lat="45.96262" lon="6.55328">
        <ele>2383.25</ele>
        <time>2019-03-18T13:56:16Z</time>
      </trkpt>
      <trkpt lat="45.96262" lon="6.55323">
        <ele>2382.76</ele>
        <time>2019-03-18T13:56:17Z</time>
      </trkpt>
      <trkpt lat="45.96262" lon="6.55319">
        <ele>2382.76</ele>
        <time>2019-03-18T13:56:18Z</time>
      </trkpt>
      <trkpt lat="45.96263" lon="6.55315">
        <ele>2382.76</ele>
        <time>2019-03-18T13:56:19Z</time>
      </trkpt>
      <trkpt lat="45.96264" lon="6.55311">
        <ele>2381.8</ele>
        <time>2019-03-18T13:56:20Z</time>
      </trkpt>
      <trkpt lat="45.96265" lon="6.55308">
        <ele>2381.8</ele>
        <time>2019-03-18T13:56:21Z</time>
      </trkpt>
      <trkpt lat="45.96265" lon="6.55305">
        <ele>2381.32</ele>
        <time>2019-03-18T13:56:22Z</time>
      </trkpt>
      <trkpt lat="45.96266" lon="6.55303">
        <ele>2381.8</ele>
        <time>2019-03-18T13:56:23Z</time>
      </trkpt>
      <trkpt lat="45.96289" lon="6.55281">
        <ele>2377.96</ele>
        <time>2019-03-18T13:56:36Z</time>
      </trkpt>
      <trkpt lat="45.963" lon="6.5528">
        <ele>2375.07</ele>
        <time>2019-03-18T13:56:40Z</time>
      </trkpt>
      <trkpt lat="45.96303" lon="6.55277">
        <ele>2374.59</ele>
        <time>2019-03-18T13:56:41Z</time>
      </trkpt>
      <trkpt lat="45.96309" lon="6.55268">
        <ele>2371.71</ele>
        <time>2019-03-18T13:56:43Z</time>
      </trkpt>
      <trkpt lat="45.96311" lon="6.55261">
        <ele>2370.27</ele>
        <time>2019-03-18T13:56:44Z</time>
      </trkpt>
      <trkpt lat="45.96314" lon="6.55254">
        <ele>2367.38</ele>
        <time>2019-03-18T13:56:45Z</time>
      </trkpt>
      <trkpt lat="45.96316" lon="6.55248">
        <ele>2364.98</ele>
        <time>2019-03-18T13:56:46Z</time>
      </trkpt>
      <trkpt lat="45.96317" lon="6.55242">
        <ele>2362.58</ele>
        <time>2019-03-18T13:56:47Z</time>
      </trkpt>
      <trkpt lat="45.96317" lon="6.55238">
        <ele>2359.69</ele>
        <time>2019-03-18T13:56:57Z</time>
      </trkpt>
      <trkpt lat="45.96319" lon="6.55238">
        <ele>2359.69</ele>
        <time>2019-03-18T13:57:08Z</time>
      </trkpt>
      <trkpt lat="45.9632" lon="6.55239">
        <ele>2359.69</ele>
        <time>2019-03-18T13:57:09Z</time>
      </trkpt>
      <trkpt lat="45.96321" lon="6.5524">
        <ele>2359.21</ele>
        <time>2019-03-18T13:57:10Z</time>
      </trkpt>
      <trkpt lat="45.96323" lon="6.55241">
        <ele>2359.21</ele>
        <time>2019-03-18T13:57:11Z</time>
      </trkpt>
      <trkpt lat="45.96325" lon="6.55243">
        <ele>2358.73</ele>
        <time>2019-03-18T13:57:12Z</time>
      </trkpt>
      <trkpt lat="45.96327" lon="6.55244">
        <ele>2357.77</ele>
        <time>2019-03-18T13:57:13Z</time>
      </trkpt>
      <trkpt lat="45.96329" lon="6.55244">
        <ele>2357.77</ele>
        <time>2019-03-18T13:57:14Z</time>
      </trkpt>
      <trkpt lat="45.96331" lon="6.55245">
        <ele>2356.81</ele>
        <time>2019-03-18T13:57:15Z</time>
      </trkpt>
      <trkpt lat="45.96332" lon="6.55245">
        <ele>2356.81</ele>
        <time>2019-03-18T13:57:16Z</time>
      </trkpt>
      <trkpt lat="45.96334" lon="6.55244">
        <ele>2356.33</ele>
        <time>2019-03-18T13:57:17Z</time>
      </trkpt>
      <trkpt lat="45.96336" lon="6.55243">
        <ele>2355.85</ele>
        <time>2019-03-18T13:57:18Z</time>
      </trkpt>
      <trkpt lat="45.96338" lon="6.55241">
        <ele>2355.37</ele>
        <time>2019-03-18T13:57:19Z</time>
      </trkpt>
      <trkpt lat="45.96339" lon="6.5524">
        <ele>2355.37</ele>
        <time>2019-03-18T13:57:20Z</time>
      </trkpt>
      <trkpt lat="45.96344" lon="6.55235">
        <ele>2354.89</ele>
        <time>2019-03-18T13:57:24Z</time>
      </trkpt>
      <trkpt lat="45.96349" lon="6.55243">
        <ele>2354.41</ele>
        <time>2019-03-18T13:57:49Z</time>
      </trkpt>
      <trkpt lat="45.96351" lon="6.55238">
        <ele>2353.44</ele>
        <time>2019-03-18T13:57:59Z</time>
      </trkpt>
      <trkpt lat="45.96352" lon="6.55236">
        <ele>2352.96</ele>
        <time>2019-03-18T13:58:00Z</time>
      </trkpt>
      <trkpt lat="45.96353" lon="6.55234">
        <ele>2352.96</ele>
        <time>2019-03-18T13:58:01Z</time>
      </trkpt>
      <trkpt lat="45.96356" lon="6.55227">
        <ele>2351.04</ele>
        <time>2019-03-18T13:58:05Z</time>
      </trkpt>
      <trkpt lat="45.96357" lon="6.55226">
        <ele>2350.56</ele>
        <time>2019-03-18T13:58:06Z</time>
      </trkpt>
      <trkpt lat="45.96356" lon="6.55224">
        <ele>2350.56</ele>
        <time>2019-03-18T13:58:07Z</time>
      </trkpt>
      <trkpt lat="45.96353" lon="6.5522">
        <ele>2349.12</ele>
        <time>2019-03-18T13:58:09Z</time>
      </trkpt>
      <trkpt lat="45.96353" lon="6.55217">
        <ele>2347.68</ele>
        <time>2019-03-18T13:58:10Z</time>
      </trkpt>
      <trkpt lat="45.96354" lon="6.55215">
        <ele>2347.2</ele>
        <time>2019-03-18T13:58:11Z</time>
      </trkpt>
      <trkpt lat="45.96354" lon="6.55214">
        <ele>2346.72</ele>
        <time>2019-03-18T13:58:12Z</time>
      </trkpt>
      <trkpt lat="45.96354" lon="6.55212">
        <ele>2346.72</ele>
        <time>2019-03-18T13:58:13Z</time>
      </trkpt>
      <trkpt lat="45.96354" lon="6.5521">
        <ele>2346.23</ele>
        <time>2019-03-18T13:58:14Z</time>
      </trkpt>
      <trkpt lat="45.96355" lon="6.55206">
        <ele>2344.79</ele>
        <time>2019-03-18T13:58:17Z</time>
      </trkpt>
      <trkpt lat="45.96355" lon="6.55205">
        <ele>2344.31</ele>
        <time>2019-03-18T13:58:18Z</time>
      </trkpt>
      <trkpt lat="45.9636" lon="6.55191">
        <ele>2341.43</ele>
        <time>2019-03-18T13:58:24Z</time>
      </trkpt>
      <trkpt lat="45.96367" lon="6.55177">
        <ele>2338.06</ele>
        <time>2019-03-18T13:58:31Z</time>
      </trkpt>
      <trkpt lat="45.96376" lon="6.55163">
        <ele>2334.22</ele>
        <time>2019-03-18T13:58:36Z</time>
      </trkpt>
      <trkpt lat="45.96378" lon="6.55158">
        <ele>2333.26</ele>
        <time>2019-03-18T13:58:37Z</time>
      </trkpt>
      <trkpt lat="45.9638" lon="6.55154">
        <ele>2332.3</ele>
        <time>2019-03-18T13:58:38Z</time>
      </trkpt>
      <trkpt lat="45.96394" lon="6.55146">
        <ele>2328.93</ele>
        <time>2019-03-18T13:58:43Z</time>
      </trkpt>
      <trkpt lat="45.96396" lon="6.55144">
        <ele>2328.93</ele>
        <time>2019-03-18T13:58:44Z</time>
      </trkpt>
      <trkpt lat="45.96398" lon="6.5514">
        <ele>2328.93</ele>
        <time>2019-03-18T13:58:45Z</time>
      </trkpt>
      <trkpt lat="45.96401" lon="6.55137">
        <ele>2328.93</ele>
        <time>2019-03-18T13:58:46Z</time>
      </trkpt>
      <trkpt lat="45.96404" lon="6.55135">
        <ele>2326.53</ele>
        <time>2019-03-18T13:58:47Z</time>
      </trkpt>
      <trkpt lat="45.96406" lon="6.5513">
        <ele>2325.09</ele>
        <time>2019-03-18T13:58:48Z</time>
      </trkpt>
      <trkpt lat="45.9641" lon="6.55124">
        <ele>2324.12</ele>
        <time>2019-03-18T13:58:49Z</time>
      </trkpt>
      <trkpt lat="45.96414" lon="6.5512">
        <ele>2322.68</ele>
        <time>2019-03-18T13:58:50Z</time>
      </trkpt>
      <trkpt lat="45.96418" lon="6.55119">
        <ele>2321.24</ele>
        <time>2019-03-18T13:58:51Z</time>
      </trkpt>
      <trkpt lat="45.9642" lon="6.55118">
        <ele>2320.76</ele>
        <time>2019-03-18T13:58:52Z</time>
      </trkpt>
      <trkpt lat="45.96424" lon="6.55119">
        <ele>2319.8</ele>
        <time>2019-03-18T13:58:54Z</time>
      </trkpt>
      <trkpt lat="45.9645" lon="6.55132">
        <ele>2315.95</ele>
        <time>2019-03-18T13:59:04Z</time>
      </trkpt>
      <trkpt lat="45.96454" lon="6.55134">
        <ele>2314.99</ele>
        <time>2019-03-18T13:59:05Z</time>
      </trkpt>
      <trkpt lat="45.96457" lon="6.55137">
        <ele>2313.55</ele>
        <time>2019-03-18T13:59:06Z</time>
      </trkpt>
      <trkpt lat="45.9646" lon="6.55137">
        <ele>2312.59</ele>
        <time>2019-03-18T13:59:07Z</time>
      </trkpt>
      <trkpt lat="45.96463" lon="6.55134">
        <ele>2312.11</ele>
        <time>2019-03-18T13:59:08Z</time>
      </trkpt>
      <trkpt lat="45.96468" lon="6.55133">
        <ele>2309.7</ele>
        <time>2019-03-18T13:59:09Z</time>
      </trkpt>
      <trkpt lat="45.96473" lon="6.55134">
        <ele>2307.3</ele>
        <time>2019-03-18T13:59:10Z</time>
      </trkpt>
      <trkpt lat="45.96478" lon="6.55137">
        <ele>2305.38</ele>
        <time>2019-03-18T13:59:11Z</time>
      </trkpt>
      <trkpt lat="45.96483" lon="6.55139">
        <ele>2303.94</ele>
        <time>2019-03-18T13:59:12Z</time>
      </trkpt>
      <trkpt lat="45.96488" lon="6.5514">
        <ele>2302.01</ele>
        <time>2019-03-18T13:59:13Z</time>
      </trkpt>
      <trkpt lat="45.96492" lon="6.5514">
        <ele>2300.57</ele>
        <time>2019-03-18T13:59:14Z</time>
      </trkpt>
      <trkpt lat="45.96496" lon="6.55142">
        <ele>2299.61</ele>
        <time>2019-03-18T13:59:15Z</time>
      </trkpt>
      <trkpt lat="45.965" lon="6.55144">
        <ele>2299.13</ele>
        <time>2019-03-18T13:59:16Z</time>
      </trkpt>
      <trkpt lat="45.96504" lon="6.55145">
        <ele>2299.13</ele>
        <time>2019-03-18T13:59:17Z</time>
      </trkpt>
      <trkpt lat="45.96519" lon="6.5515">
        <ele>2296.25</ele>
        <time>2019-03-18T13:59:22Z</time>
      </trkpt>
      <trkpt lat="45.9652" lon="6.55147">
        <ele>2295.77</ele>
        <time>2019-03-18T13:59:23Z</time>
      </trkpt>
      <trkpt lat="45.96522" lon="6.55143">
        <ele>2294.8</ele>
        <time>2019-03-18T13:59:24Z</time>
      </trkpt>
      <trkpt lat="45.96524" lon="6.5514">
        <ele>2292.88</ele>
        <time>2019-03-18T13:59:25Z</time>
      </trkpt>
      <trkpt lat="45.96526" lon="6.55136">
        <ele>2291.44</ele>
        <time>2019-03-18T13:59:26Z</time>
      </trkpt>
      <trkpt lat="45.96529" lon="6.55133">
        <ele>2289.52</ele>
        <time>2019-03-18T13:59:27Z</time>
      </trkpt>
      <trkpt lat="45.9653" lon="6.5513">
        <ele>2286.15</ele>
        <time>2019-03-18T13:59:28Z</time>
      </trkpt>
      <trkpt lat="45.96533" lon="6.55131">
        <ele>2284.23</ele>
        <time>2019-03-18T13:59:31Z</time>
      </trkpt>
      <trkpt lat="45.96539" lon="6.5514">
        <ele>2281.35</ele>
        <time>2019-03-18T14:00:02Z</time>
      </trkpt>
      <trkpt lat="45.96539" lon="6.55135">
        <ele>2281.35</ele>
        <time>2019-03-18T14:00:30Z</time>
      </trkpt>
      <trkpt lat="45.96541" lon="6.55132">
        <ele>2280.38</ele>
        <time>2019-03-18T14:00:31Z</time>
      </trkpt>
      <trkpt lat="45.96545" lon="6.55129">
        <ele>2277.98</ele>
        <time>2019-03-18T14:00:32Z</time>
      </trkpt>
      <trkpt lat="45.96548" lon="6.55125">
        <ele>2274.14</ele>
        <time>2019-03-18T14:00:33Z</time>
      </trkpt>
      <trkpt lat="45.96552" lon="6.55118">
        <ele>2269.81</ele>
        <time>2019-03-18T14:00:34Z</time>
      </trkpt>
      <trkpt lat="45.96557" lon="6.55111">
        <ele>2265</ele>
        <time>2019-03-18T14:00:35Z</time>
      </trkpt>
      <trkpt lat="45.96562" lon="6.55102">
        <ele>2260.2</ele>
        <time>2019-03-18T14:00:36Z</time>
      </trkpt>
      <trkpt lat="45.96567" lon="6.55093">
        <ele>2255.39</ele>
        <time>2019-03-18T14:00:37Z</time>
      </trkpt>
      <trkpt lat="45.96573" lon="6.55086">
        <ele>2249.62</ele>
        <time>2019-03-18T14:00:38Z</time>
      </trkpt>
      <trkpt lat="45.96579" lon="6.55079">
        <ele>2244.82</ele>
        <time>2019-03-18T14:00:39Z</time>
      </trkpt>
      <trkpt lat="45.96586" lon="6.55074">
        <ele>2240.49</ele>
        <time>2019-03-18T14:00:40Z</time>
      </trkpt>
      <trkpt lat="45.96592" lon="6.55075">
        <ele>2235.2</ele>
        <time>2019-03-18T14:00:41Z</time>
      </trkpt>
      <trkpt lat="45.96597" lon="6.5508">
        <ele>2231.36</ele>
        <time>2019-03-18T14:00:42Z</time>
      </trkpt>
      <trkpt lat="45.96602" lon="6.55087">
        <ele>2227.51</ele>
        <time>2019-03-18T14:00:43Z</time>
      </trkpt>
      <trkpt lat="45.96606" lon="6.55094">
        <ele>2224.63</ele>
        <time>2019-03-18T14:00:44Z</time>
      </trkpt>
      <trkpt lat="45.96611" lon="6.55096">
        <ele>2222.22</ele>
        <time>2019-03-18T14:00:45Z</time>
      </trkpt>
      <trkpt lat="45.96615" lon="6.55091">
        <ele>2219.82</ele>
        <time>2019-03-18T14:00:46Z</time>
      </trkpt>
      <trkpt lat="45.9662" lon="6.55087">
        <ele>2216.46</ele>
        <time>2019-03-18T14:00:47Z</time>
      </trkpt>
      <trkpt lat="45.96626" lon="6.55078">
        <ele>2213.09</ele>
        <time>2019-03-18T14:00:48Z</time>
      </trkpt>
      <trkpt lat="45.96633" lon="6.55072">
        <ele>2206.84</ele>
        <time>2019-03-18T14:00:49Z</time>
      </trkpt>
      <trkpt lat="45.9664" lon="6.55067">
        <ele>2201.08</ele>
        <time>2019-03-18T14:00:50Z</time>
      </trkpt>
      <trkpt lat="45.96646" lon="6.55058">
        <ele>2196.75</ele>
        <time>2019-03-18T14:00:51Z</time>
      </trkpt>
      <trkpt lat="45.96652" lon="6.5505">
        <ele>2192.42</ele>
        <time>2019-03-18T14:00:52Z</time>
      </trkpt>
      <trkpt lat="45.96657" lon="6.55041">
        <ele>2188.58</ele>
        <time>2019-03-18T14:00:53Z</time>
      </trkpt>
      <trkpt lat="45.96664" lon="6.55032">
        <ele>2184.73</ele>
        <time>2019-03-18T14:00:54Z</time>
      </trkpt>
      <trkpt lat="45.96669" lon="6.55023">
        <ele>2180.41</ele>
        <time>2019-03-18T14:00:55Z</time>
      </trkpt>
      <trkpt lat="45.96675" lon="6.55014">
        <ele>2177.52</ele>
        <time>2019-03-18T14:00:56Z</time>
      </trkpt>
      <trkpt lat="45.96682" lon="6.55009">
        <ele>2174.64</ele>
        <time>2019-03-18T14:00:57Z</time>
      </trkpt>
      <trkpt lat="45.96687" lon="6.55011">
        <ele>2169.35</ele>
        <time>2019-03-18T14:00:58Z</time>
      </trkpt>
      <trkpt lat="45.96691" lon="6.55015">
        <ele>2166.47</ele>
        <time>2019-03-18T14:00:59Z</time>
      </trkpt>
      <trkpt lat="45.96696" lon="6.55018">
        <ele>2164.55</ele>
        <time>2019-03-18T14:01:00Z</time>
      </trkpt>
      <trkpt lat="45.967" lon="6.55018">
        <ele>2162.62</ele>
        <time>2019-03-18T14:01:01Z</time>
      </trkpt>
      <trkpt lat="45.96703" lon="6.55013">
        <ele>2161.18</ele>
        <time>2019-03-18T14:01:02Z</time>
      </trkpt>
      <trkpt lat="45.96707" lon="6.55008">
        <ele>2157.34</ele>
        <time>2019-03-18T14:01:03Z</time>
      </trkpt>
      <trkpt lat="45.96712" lon="6.55003">
        <ele>2153.97</ele>
        <time>2019-03-18T14:01:04Z</time>
      </trkpt>
      <trkpt lat="45.96713" lon="6.54992">
        <ele>2149.16</ele>
        <time>2019-03-18T14:01:05Z</time>
      </trkpt>
      <trkpt lat="45.96718" lon="6.54984">
        <ele>2146.28</ele>
        <time>2019-03-18T14:01:06Z</time>
      </trkpt>
      <trkpt lat="45.96724" lon="6.54978">
        <ele>2139.07</ele>
        <time>2019-03-18T14:01:07Z</time>
      </trkpt>
      <trkpt lat="45.96732" lon="6.54976">
        <ele>2135.23</ele>
        <time>2019-03-18T14:01:08Z</time>
      </trkpt>
      <trkpt lat="45.96737" lon="6.54969">
        <ele>2128.98</ele>
        <time>2019-03-18T14:01:09Z</time>
      </trkpt>
      <trkpt lat="45.96741" lon="6.54959">
        <ele>2122.73</ele>
        <time>2019-03-18T14:01:10Z</time>
      </trkpt>
      <trkpt lat="45.96752" lon="6.54953">
        <ele>2116.96</ele>
        <time>2019-03-18T14:01:11Z</time>
      </trkpt>
      <trkpt lat="45.96764" lon="6.5495">
        <ele>2111.67</ele>
        <time>2019-03-18T14:01:12Z</time>
      </trkpt>
      <trkpt lat="45.96769" lon="6.5494">
        <ele>2104.46</ele>
        <time>2019-03-18T14:01:13Z</time>
      </trkpt>
      <trkpt lat="45.96775" lon="6.54929">
        <ele>2098.21</ele>
        <time>2019-03-18T14:01:14Z</time>
      </trkpt>
      <trkpt lat="45.96785" lon="6.54922">
        <ele>2093.89</ele>
        <time>2019-03-18T14:01:15Z</time>
      </trkpt>
      <trkpt lat="45.96795" lon="6.5492">
        <ele>2087.64</ele>
        <time>2019-03-18T14:01:16Z</time>
      </trkpt>
      <trkpt lat="45.96807" lon="6.54913">
        <ele>2080.43</ele>
        <time>2019-03-18T14:01:17Z</time>
      </trkpt>
      <trkpt lat="45.96815" lon="6.54907">
        <ele>2073.22</ele>
        <time>2019-03-18T14:01:18Z</time>
      </trkpt>
      <trkpt lat="45.96824" lon="6.549">
        <ele>2068.41</ele>
        <time>2019-03-18T14:01:19Z</time>
      </trkpt>
      <trkpt lat="45.96829" lon="6.54886">
        <ele>2062.65</ele>
        <time>2019-03-18T14:01:20Z</time>
      </trkpt>
      <trkpt lat="45.96836" lon="6.54873">
        <ele>2055.44</ele>
        <time>2019-03-18T14:01:21Z</time>
      </trkpt>
      <trkpt lat="45.96846" lon="6.54866">
        <ele>2048.23</ele>
        <time>2019-03-18T14:01:22Z</time>
      </trkpt>
      <trkpt lat="45.96855" lon="6.54858">
        <ele>2042.94</ele>
        <time>2019-03-18T14:01:23Z</time>
      </trkpt>
      <trkpt lat="45.96864" lon="6.54849">
        <ele>2036.69</ele>
        <time>2019-03-18T14:01:24Z</time>
      </trkpt>
      <trkpt lat="45.96876" lon="6.54844">
        <ele>2025.15</ele>
        <time>2019-03-18T14:01:25Z</time>
      </trkpt>
      <trkpt lat="45.96885" lon="6.54837">
        <ele>2019.87</ele>
        <time>2019-03-18T14:01:26Z</time>
      </trkpt>
      <trkpt lat="45.96895" lon="6.54826">
        <ele>2010.73</ele>
        <time>2019-03-18T14:01:27Z</time>
      </trkpt>
      <trkpt lat="45.96908" lon="6.54819">
        <ele>2000.64</ele>
        <time>2019-03-18T14:01:28Z</time>
      </trkpt>
      <trkpt lat="45.96918" lon="6.54808">
        <ele>1993.91</ele>
        <time>2019-03-18T14:01:29Z</time>
      </trkpt>
      <trkpt lat="45.96942" lon="6.54811">
        <ele>1983.82</ele>
        <time>2019-03-18T14:01:30Z</time>
      </trkpt>
      <trkpt lat="45.96958" lon="6.54808">
        <ele>1975.17</ele>
        <time>2019-03-18T14:01:31Z</time>
      </trkpt>
      <trkpt lat="45.96972" lon="6.54804">
        <ele>1970.84</ele>
        <time>2019-03-18T14:01:32Z</time>
      </trkpt>
      <trkpt lat="45.96983" lon="6.54802">
        <ele>1964.59</ele>
        <time>2019-03-18T14:01:33Z</time>
      </trkpt>
      <trkpt lat="45.9699" lon="6.54798">
        <ele>1961.71</ele>
        <time>2019-03-18T14:01:34Z</time>
      </trkpt>
      <trkpt lat="45.96998" lon="6.54792">
        <ele>1959.3</ele>
        <time>2019-03-18T14:01:35Z</time>
      </trkpt>
      <trkpt lat="45.97001" lon="6.54785">
        <ele>1956.9</ele>
        <time>2019-03-18T14:01:36Z</time>
      </trkpt>
      <trkpt lat="45.97001" lon="6.54779">
        <ele>1954.98</ele>
        <time>2019-03-18T14:01:37Z</time>
      </trkpt>
      <trkpt lat="45.97" lon="6.54774">
        <ele>1953.54</ele>
        <time>2019-03-18T14:01:38Z</time>
      </trkpt>
      <trkpt lat="45.96999" lon="6.54775">
        <ele>1952.57</ele>
        <time>2019-03-18T14:01:39Z</time>
      </trkpt>
      <trkpt lat="45.96972" lon="6.5478">
        <ele>1951.61</ele>
        <time>2019-03-18T14:01:49Z</time>
      </trkpt>
      <trkpt lat="45.9697" lon="6.54781">
        <ele>1951.61</ele>
        <time>2019-03-18T14:01:51Z</time>
      </trkpt>
      <trkpt lat="45.96966" lon="6.54778">
        <ele>1951.61</ele>
        <time>2019-03-18T14:02:18Z</time>
      </trkpt>
      <trkpt lat="45.96968" lon="6.54774">
        <ele>1950.17</ele>
        <time>2019-03-18T14:02:32Z</time>
      </trkpt>
      <trkpt lat="45.96968" lon="6.54773">
        <ele>1950.17</ele>
        <time>2019-03-18T14:02:33Z</time>
      </trkpt>
      <trkpt lat="45.96969" lon="6.54772">
        <ele>1947.77</ele>
        <time>2019-03-18T14:02:34Z</time>
      </trkpt>
      <trkpt lat="45.9697" lon="6.54771">
        <ele>1945.85</ele>
        <time>2019-03-18T14:02:35Z</time>
      </trkpt>
      <trkpt lat="45.96971" lon="6.54767">
        <ele>1944.88</ele>
        <time>2019-03-18T14:02:36Z</time>
      </trkpt>
      <trkpt lat="45.96973" lon="6.54763">
        <ele>1942.96</ele>
        <time>2019-03-18T14:02:37Z</time>
      </trkpt>
      <trkpt lat="45.96978" lon="6.5476">
        <ele>1939.6</ele>
        <time>2019-03-18T14:02:38Z</time>
      </trkpt>
      <trkpt lat="45.96984" lon="6.54757">
        <ele>1936.23</ele>
        <time>2019-03-18T14:02:39Z</time>
      </trkpt>
      <trkpt lat="45.96992" lon="6.54755">
        <ele>1932.39</ele>
        <time>2019-03-18T14:02:40Z</time>
      </trkpt>
      <trkpt lat="45.97001" lon="6.54753">
        <ele>1928.06</ele>
        <time>2019-03-18T14:02:41Z</time>
      </trkpt>
      <trkpt lat="45.97009" lon="6.54749">
        <ele>1922.29</ele>
        <time>2019-03-18T14:02:42Z</time>
      </trkpt>
      <trkpt lat="45.97017" lon="6.54749">
        <ele>1917.01</ele>
        <time>2019-03-18T14:02:43Z</time>
      </trkpt>
      <trkpt lat="45.97023" lon="6.5475">
        <ele>1914.12</ele>
        <time>2019-03-18T14:02:44Z</time>
      </trkpt>
      <trkpt lat="45.97028" lon="6.54754">
        <ele>1912.2</ele>
        <time>2019-03-18T14:02:45Z</time>
      </trkpt>
      <trkpt lat="45.97033" lon="6.54755">
        <ele>1910.28</ele>
        <time>2019-03-18T14:02:46Z</time>
      </trkpt>
      <trkpt lat="45.97038" lon="6.54757">
        <ele>1909.32</ele>
        <time>2019-03-18T14:02:47Z</time>
      </trkpt>
      <trkpt lat="45.97041" lon="6.54759">
        <ele>1907.39</ele>
        <time>2019-03-18T14:02:48Z</time>
      </trkpt>
      <trkpt lat="45.97043" lon="6.54759">
        <ele>1905.95</ele>
        <time>2019-03-18T14:02:49Z</time>
      </trkpt>
      <trkpt lat="45.97045" lon="6.54756">
        <ele>1904.51</ele>
        <time>2019-03-18T14:02:50Z</time>
      </trkpt>
      <trkpt lat="45.97048" lon="6.54753">
        <ele>1902.59</ele>
        <time>2019-03-18T14:02:51Z</time>
      </trkpt>
      <trkpt lat="45.97055" lon="6.54754">
        <ele>1900.18</ele>
        <time>2019-03-18T14:02:52Z</time>
      </trkpt>
      <trkpt lat="45.97061" lon="6.54755">
        <ele>1896.82</ele>
        <time>2019-03-18T14:02:53Z</time>
      </trkpt>
      <trkpt lat="45.97068" lon="6.54754">
        <ele>1892.49</ele>
        <time>2019-03-18T14:02:54Z</time>
      </trkpt>
      <trkpt lat="45.97075" lon="6.54752">
        <ele>1889.13</ele>
        <time>2019-03-18T14:02:55Z</time>
      </trkpt>
      <trkpt lat="45.97081" lon="6.54748">
        <ele>1884.32</ele>
        <time>2019-03-18T14:02:56Z</time>
      </trkpt>
      <trkpt lat="45.97089" lon="6.54745">
        <ele>1879.03</ele>
        <time>2019-03-18T14:02:57Z</time>
      </trkpt>
      <trkpt lat="45.97095" lon="6.54741">
        <ele>1873.75</ele>
        <time>2019-03-18T14:02:58Z</time>
      </trkpt>
      <trkpt lat="45.97102" lon="6.54738">
        <ele>1869.42</ele>
        <time>2019-03-18T14:02:59Z</time>
      </trkpt>
      <trkpt lat="45.9711" lon="6.54734">
        <ele>1864.61</ele>
        <time>2019-03-18T14:03:00Z</time>
      </trkpt>
      <trkpt lat="45.97118" lon="6.5473">
        <ele>1860.77</ele>
        <time>2019-03-18T14:03:01Z</time>
      </trkpt>
      <trkpt lat="45.97125" lon="6.54726">
        <ele>1857.4</ele>
        <time>2019-03-18T14:03:02Z</time>
      </trkpt>
      <trkpt lat="45.97131" lon="6.54723">
        <ele>1855</ele>
        <time>2019-03-18T14:03:03Z</time>
      </trkpt>
      <trkpt lat="45.97135" lon="6.54719">
        <ele>1853.08</ele>
        <time>2019-03-18T14:03:04Z</time>
      </trkpt>
      <trkpt lat="45.97139" lon="6.54713">
        <ele>1851.64</ele>
        <time>2019-03-18T14:03:05Z</time>
      </trkpt>
      <trkpt lat="45.97144" lon="6.54708">
        <ele>1850.19</ele>
        <time>2019-03-18T14:03:06Z</time>
      </trkpt>
      <trkpt lat="45.97149" lon="6.54702">
        <ele>1849.23</ele>
        <time>2019-03-18T14:03:07Z</time>
      </trkpt>
      <trkpt lat="45.97154" lon="6.54695">
        <ele>1846.83</ele>
        <time>2019-03-18T14:03:08Z</time>
      </trkpt>
      <trkpt lat="45.97166" lon="6.54682">
        <ele>1842.5</ele>
        <time>2019-03-18T14:03:10Z</time>
      </trkpt>
      <trkpt lat="45.97172" lon="6.54679">
        <ele>1840.58</ele>
        <time>2019-03-18T14:03:11Z</time>
      </trkpt>
      <trkpt lat="45.97185" lon="6.54676">
        <ele>1836.74</ele>
        <time>2019-03-18T14:03:13Z</time>
      </trkpt>
      <trkpt lat="45.9719" lon="6.54676">
        <ele>1834.81</ele>
        <time>2019-03-18T14:03:14Z</time>
      </trkpt>
      <trkpt lat="45.97195" lon="6.54675">
        <ele>1832.89</ele>
        <time>2019-03-18T14:03:15Z</time>
      </trkpt>
      <trkpt lat="45.972" lon="6.54675">
        <ele>1830.01</ele>
        <time>2019-03-18T14:03:16Z</time>
      </trkpt>
      <trkpt lat="45.97205" lon="6.54673">
        <ele>1828.08</ele>
        <time>2019-03-18T14:03:17Z</time>
      </trkpt>
      <trkpt lat="45.9721" lon="6.54671">
        <ele>1825.68</ele>
        <time>2019-03-18T14:03:18Z</time>
      </trkpt>
      <trkpt lat="45.97216" lon="6.54667">
        <ele>1823.28</ele>
        <time>2019-03-18T14:03:19Z</time>
      </trkpt>
      <trkpt lat="45.97221" lon="6.5466">
        <ele>1818.95</ele>
        <time>2019-03-18T14:03:20Z</time>
      </trkpt>
      <trkpt lat="45.97225" lon="6.5465">
        <ele>1816.07</ele>
        <time>2019-03-18T14:03:21Z</time>
      </trkpt>
      <trkpt lat="45.9723" lon="6.54641">
        <ele>1810.3</ele>
        <time>2019-03-18T14:03:22Z</time>
      </trkpt>
      <trkpt lat="45.97235" lon="6.54631">
        <ele>1805.01</ele>
        <time>2019-03-18T14:03:23Z</time>
      </trkpt>
      <trkpt lat="45.97241" lon="6.54622">
        <ele>1798.76</ele>
        <time>2019-03-18T14:03:24Z</time>
      </trkpt>
      <trkpt lat="45.9725" lon="6.54606">
        <ele>1798.76</ele>
        <time>2019-03-18T14:03:26Z</time>
      </trkpt>
      <trkpt lat="45.97255" lon="6.54597">
        <ele>1796.84</ele>
        <time>2019-03-18T14:03:27Z</time>
      </trkpt>
      <trkpt lat="45.97262" lon="6.54594">
        <ele>1787.71</ele>
        <time>2019-03-18T14:03:28Z</time>
      </trkpt>
      <trkpt lat="45.9727" lon="6.54594">
        <ele>1779.06</ele>
        <time>2019-03-18T14:03:29Z</time>
      </trkpt>
      <trkpt lat="45.97277" lon="6.54593">
        <ele>1773.77</ele>
        <time>2019-03-18T14:03:30Z</time>
      </trkpt>
      <trkpt lat="45.97286" lon="6.54593">
        <ele>1768.96</ele>
        <time>2019-03-18T14:03:31Z</time>
      </trkpt>
      <trkpt lat="45.97294" lon="6.54594">
        <ele>1764.64</ele>
        <time>2019-03-18T14:03:32Z</time>
      </trkpt>
      <trkpt lat="45.97301" lon="6.5459">
        <ele>1760.79</ele>
        <time>2019-03-18T14:03:33Z</time>
      </trkpt>
      <trkpt lat="45.97309" lon="6.54585">
        <ele>1755.02</ele>
        <time>2019-03-18T14:03:34Z</time>
      </trkpt>
      <trkpt lat="45.97317" lon="6.54581">
        <ele>1751.18</ele>
        <time>2019-03-18T14:03:35Z</time>
      </trkpt>
      <trkpt lat="45.97325" lon="6.54573">
        <ele>1749.74</ele>
        <time>2019-03-18T14:03:36Z</time>
      </trkpt>
      <trkpt lat="45.97331" lon="6.54561">
        <ele>1743.01</ele>
        <time>2019-03-18T14:03:37Z</time>
      </trkpt>
      <trkpt lat="45.97337" lon="6.54551">
        <ele>1738.68</ele>
        <time>2019-03-18T14:03:38Z</time>
      </trkpt>
      <trkpt lat="45.97341" lon="6.54541">
        <ele>1735.8</ele>
        <time>2019-03-18T14:03:39Z</time>
      </trkpt>
      <trkpt lat="45.97343" lon="6.54527">
        <ele>1731.95</ele>
        <time>2019-03-18T14:03:40Z</time>
      </trkpt>
      <trkpt lat="45.97348" lon="6.54517">
        <ele>1726.18</ele>
        <time>2019-03-18T14:03:41Z</time>
      </trkpt>
      <trkpt lat="45.97352" lon="6.54507">
        <ele>1723.78</ele>
        <time>2019-03-18T14:03:42Z</time>
      </trkpt>
      <trkpt lat="45.97355" lon="6.54497">
        <ele>1720.9</ele>
        <time>2019-03-18T14:03:43Z</time>
      </trkpt>
      <trkpt lat="45.97359" lon="6.54488">
        <ele>1716.57</ele>
        <time>2019-03-18T14:03:44Z</time>
      </trkpt>
      <trkpt lat="45.9736" lon="6.54476">
        <ele>1713.21</ele>
        <time>2019-03-18T14:03:45Z</time>
      </trkpt>
      <trkpt lat="45.97362" lon="6.54464">
        <ele>1708.88</ele>
        <time>2019-03-18T14:03:46Z</time>
      </trkpt>
      <trkpt lat="45.97365" lon="6.54456">
        <ele>1705.52</ele>
        <time>2019-03-18T14:03:47Z</time>
      </trkpt>
      <trkpt lat="45.97367" lon="6.54446">
        <ele>1703.11</ele>
        <time>2019-03-18T14:03:48Z</time>
      </trkpt>
      <trkpt lat="45.97369" lon="6.5444">
        <ele>1699.75</ele>
        <time>2019-03-18T14:03:49Z</time>
      </trkpt>
      <trkpt lat="45.97371" lon="6.54437">
        <ele>1697.83</ele>
        <time>2019-03-18T14:03:50Z</time>
      </trkpt>
      <trkpt lat="45.97371" lon="6.54436">
        <ele>1697.34</ele>
        <time>2019-03-18T14:03:51Z</time>
      </trkpt>
      <trkpt lat="45.97372" lon="6.54437">
        <ele>1696.86</ele>
        <time>2019-03-18T14:03:52Z</time>
      </trkpt>
      <trkpt lat="45.97372" lon="6.54439">
        <ele>1696.86</ele>
        <time>2019-03-18T14:03:53Z</time>
      </trkpt>
      <trkpt lat="45.97363" lon="6.54429">
        <ele>1695.9</ele>
        <time>2019-03-18T14:04:48Z</time>
      </trkpt>
      <trkpt lat="45.97361" lon="6.54422">
        <ele>1694.46</ele>
        <time>2019-03-18T14:04:49Z</time>
      </trkpt>
      <trkpt lat="45.97363" lon="6.54416">
        <ele>1692.06</ele>
        <time>2019-03-18T14:04:50Z</time>
      </trkpt>
      <trkpt lat="45.97366" lon="6.54411">
        <ele>1690.14</ele>
        <time>2019-03-18T14:04:51Z</time>
      </trkpt>
      <trkpt lat="45.97369" lon="6.54405">
        <ele>1688.21</ele>
        <time>2019-03-18T14:04:52Z</time>
      </trkpt>
      <trkpt lat="45.9737" lon="6.54398">
        <ele>1685.81</ele>
        <time>2019-03-18T14:04:53Z</time>
      </trkpt>
      <trkpt lat="45.97372" lon="6.54389">
        <ele>1681.96</ele>
        <time>2019-03-18T14:04:54Z</time>
      </trkpt>
      <trkpt lat="45.97376" lon="6.54381">
        <ele>1678.6</ele>
        <time>2019-03-18T14:04:55Z</time>
      </trkpt>
      <trkpt lat="45.97379" lon="6.54373">
        <ele>1675.23</ele>
        <time>2019-03-18T14:04:56Z</time>
      </trkpt>
      <trkpt lat="45.97378" lon="6.54364">
        <ele>1672.83</ele>
        <time>2019-03-18T14:04:57Z</time>
      </trkpt>
      <trkpt lat="45.97379" lon="6.54355">
        <ele>1671.39</ele>
        <time>2019-03-18T14:04:58Z</time>
      </trkpt>
      <trkpt lat="45.97379" lon="6.54346">
        <ele>1668.51</ele>
        <time>2019-03-18T14:04:59Z</time>
      </trkpt>
      <trkpt lat="45.97377" lon="6.54337">
        <ele>1666.1</ele>
        <time>2019-03-18T14:05:00Z</time>
      </trkpt>
      <trkpt lat="45.97379" lon="6.54328">
        <ele>1662.74</ele>
        <time>2019-03-18T14:05:01Z</time>
      </trkpt>
      <trkpt lat="45.97381" lon="6.54318">
        <ele>1659.37</ele>
        <time>2019-03-18T14:05:02Z</time>
      </trkpt>
      <trkpt lat="45.97382" lon="6.54307">
        <ele>1654.57</ele>
        <time>2019-03-18T14:05:03Z</time>
      </trkpt>
      <trkpt lat="45.97384" lon="6.54298">
        <ele>1652.16</ele>
        <time>2019-03-18T14:05:04Z</time>
      </trkpt>
      <trkpt lat="45.97387" lon="6.54291">
        <ele>1650.24</ele>
        <time>2019-03-18T14:05:05Z</time>
      </trkpt>
      <trkpt lat="45.97389" lon="6.54284">
        <ele>1646.88</ele>
        <time>2019-03-18T14:05:06Z</time>
      </trkpt>
      <trkpt lat="45.97392" lon="6.54277">
        <ele>1644.95</ele>
        <time>2019-03-18T14:05:07Z</time>
      </trkpt>
      <trkpt lat="45.97394" lon="6.54269">
        <ele>1643.03</ele>
        <time>2019-03-18T14:05:08Z</time>
      </trkpt>
      <trkpt lat="45.97398" lon="6.54263">
        <ele>1640.63</ele>
        <time>2019-03-18T14:05:09Z</time>
      </trkpt>
      <trkpt lat="45.97403" lon="6.54257">
        <ele>1638.22</ele>
        <time>2019-03-18T14:05:10Z</time>
      </trkpt>
      <trkpt lat="45.97409" lon="6.54248">
        <ele>1635.34</ele>
        <time>2019-03-18T14:05:11Z</time>
      </trkpt>
      <trkpt lat="45.97413" lon="6.54238">
        <ele>1632.94</ele>
        <time>2019-03-18T14:05:12Z</time>
      </trkpt>
      <trkpt lat="45.97415" lon="6.54225">
        <ele>1626.69</ele>
        <time>2019-03-18T14:05:13Z</time>
      </trkpt>
      <trkpt lat="45.97414" lon="6.54211">
        <ele>1623.8</ele>
        <time>2019-03-18T14:05:14Z</time>
      </trkpt>
      <trkpt lat="45.97412" lon="6.54199">
        <ele>1621.88</ele>
        <time>2019-03-18T14:05:15Z</time>
      </trkpt>
      <trkpt lat="45.97407" lon="6.54188">
        <ele>1620.92</ele>
        <time>2019-03-18T14:05:16Z</time>
      </trkpt>
      <trkpt lat="45.97402" lon="6.54179">
        <ele>1619.48</ele>
        <time>2019-03-18T14:05:17Z</time>
      </trkpt>
      <trkpt lat="45.97397" lon="6.54172">
        <ele>1619</ele>
        <time>2019-03-18T14:05:18Z</time>
      </trkpt>
      <trkpt lat="45.97391" lon="6.54167">
        <ele>1618.52</ele>
        <time>2019-03-18T14:05:19Z</time>
      </trkpt>
      <trkpt lat="45.97386" lon="6.54163">
        <ele>1617.56</ele>
        <time>2019-03-18T14:05:20Z</time>
      </trkpt>
      <trkpt lat="45.97379" lon="6.54158">
        <ele>1616.59</ele>
        <time>2019-03-18T14:05:21Z</time>
      </trkpt>
      <trkpt lat="45.97371" lon="6.54154">
        <ele>1614.67</ele>
        <time>2019-03-18T14:05:22Z</time>
      </trkpt>
      <trkpt lat="45.97362" lon="6.54149">
        <ele>1610.83</ele>
        <time>2019-03-18T14:05:23Z</time>
      </trkpt>
      <trkpt lat="45.97353" lon="6.54142">
        <ele>1606.98</ele>
        <time>2019-03-18T14:05:24Z</time>
      </trkpt>
      <trkpt lat="45.97346" lon="6.54133">
        <ele>1605.54</ele>
        <time>2019-03-18T14:05:25Z</time>
      </trkpt>
      <trkpt lat="45.9734" lon="6.54124">
        <ele>1604.1</ele>
        <time>2019-03-18T14:05:26Z</time>
      </trkpt>
      <trkpt lat="45.97334" lon="6.54114">
        <ele>1603.14</ele>
        <time>2019-03-18T14:05:27Z</time>
      </trkpt>
      <trkpt lat="45.97328" lon="6.54105">
        <ele>1602.17</ele>
        <time>2019-03-18T14:05:28Z</time>
      </trkpt>
      <trkpt lat="45.97322" lon="6.54097">
        <ele>1601.21</ele>
        <time>2019-03-18T14:05:29Z</time>
      </trkpt>
      <trkpt lat="45.97317" lon="6.5409">
        <ele>1600.73</ele>
        <time>2019-03-18T14:05:30Z</time>
      </trkpt>
      <trkpt lat="45.97278" lon="6.54046">
        <ele>1599.29</ele>
        <time>2019-03-18T14:05:42Z</time>
      </trkpt>
      <trkpt lat="45.97266" lon="6.54027">
        <ele>1597.37</ele>
        <time>2019-03-18T14:05:48Z</time>
      </trkpt>
      <trkpt lat="45.97263" lon="6.54023">
        <ele>1597.37</ele>
        <time>2019-03-18T14:05:49Z</time>
      </trkpt>
      <trkpt lat="45.97259" lon="6.54022">
        <ele>1596.41</ele>
        <time>2019-03-18T14:05:50Z</time>
      </trkpt>
      <trkpt lat="45.97256" lon="6.5402">
        <ele>1595.93</ele>
        <time>2019-03-18T14:05:51Z</time>
      </trkpt>
      <trkpt lat="45.97253" lon="6.54017">
        <ele>1595.45</ele>
        <time>2019-03-18T14:05:52Z</time>
      </trkpt>
      <trkpt lat="45.97252" lon="6.54015">
        <ele>1594.96</ele>
        <time>2019-03-18T14:05:53Z</time>
      </trkpt>
      <trkpt lat="45.97251" lon="6.54012">
        <ele>1594.96</ele>
        <time>2019-03-18T14:05:54Z</time>
      </trkpt>
      <trkpt lat="45.9725" lon="6.54007">
        <ele>1594.96</ele>
        <time>2019-03-18T14:05:55Z</time>
      </trkpt>
      <trkpt lat="45.97249" lon="6.54002">
        <ele>1594.48</ele>
        <time>2019-03-18T14:05:56Z</time>
      </trkpt>
      <trkpt lat="45.97246" lon="6.53994">
        <ele>1592.56</ele>
        <time>2019-03-18T14:05:57Z</time>
      </trkpt>
      <trkpt lat="45.97244" lon="6.53986">
        <ele>1590.64</ele>
        <time>2019-03-18T14:05:58Z</time>
      </trkpt>
      <trkpt lat="45.9724" lon="6.53969">
        <ele>1588.72</ele>
        <time>2019-03-18T14:06:00Z</time>
      </trkpt>
      <trkpt lat="45.97232" lon="6.53953">
        <ele>1584.87</ele>
        <time>2019-03-18T14:06:02Z</time>
      </trkpt>
      <trkpt lat="45.97224" lon="6.53938">
        <ele>1581.51</ele>
        <time>2019-03-18T14:06:04Z</time>
      </trkpt>
      <trkpt lat="45.97217" lon="6.53917">
        <ele>1577.66</ele>
        <time>2019-03-18T14:06:06Z</time>
      </trkpt>
      <trkpt lat="45.97214" lon="6.53904">
        <ele>1574.78</ele>
        <time>2019-03-18T14:06:07Z</time>
      </trkpt>
      <trkpt lat="45.97212" lon="6.53891">
        <ele>1571.41</ele>
        <time>2019-03-18T14:06:08Z</time>
      </trkpt>
      <trkpt lat="45.97212" lon="6.53878">
        <ele>1568.53</ele>
        <time>2019-03-18T14:06:09Z</time>
      </trkpt>
      <trkpt lat="45.97213" lon="6.53867">
        <ele>1567.09</ele>
        <time>2019-03-18T14:06:10Z</time>
      </trkpt>
      <trkpt lat="45.97211" lon="6.53859">
        <ele>1565.16</ele>
        <time>2019-03-18T14:06:11Z</time>
      </trkpt>
      <trkpt lat="45.9721" lon="6.53852">
        <ele>1564.68</ele>
        <time>2019-03-18T14:06:12Z</time>
      </trkpt>
      <trkpt lat="45.97209" lon="6.53845">
        <ele>1564.2</ele>
        <time>2019-03-18T14:06:13Z</time>
      </trkpt>
      <trkpt lat="45.9721" lon="6.53838">
        <ele>1563.24</ele>
        <time>2019-03-18T14:06:14Z</time>
      </trkpt>
      <trkpt lat="45.9721" lon="6.53832">
        <ele>1562.76</ele>
        <time>2019-03-18T14:06:15Z</time>
      </trkpt>
      <trkpt lat="45.97208" lon="6.53826">
        <ele>1561.8</ele>
        <time>2019-03-18T14:06:16Z</time>
      </trkpt>
      <trkpt lat="45.97204" lon="6.53821">
        <ele>1560.36</ele>
        <time>2019-03-18T14:06:17Z</time>
      </trkpt>
      <trkpt lat="45.972" lon="6.53818">
        <ele>1559.88</ele>
        <time>2019-03-18T14:06:18Z</time>
      </trkpt>
      <trkpt lat="45.97196" lon="6.53816">
        <ele>1558.43</ele>
        <time>2019-03-18T14:06:19Z</time>
      </trkpt>
      <trkpt lat="45.97191" lon="6.53813">
        <ele>1556.51</ele>
        <time>2019-03-18T14:06:20Z</time>
      </trkpt>
      <trkpt lat="45.97187" lon="6.53807">
        <ele>1554.59</ele>
        <time>2019-03-18T14:06:21Z</time>
      </trkpt>
      <trkpt lat="45.97185" lon="6.53798">
        <ele>1553.15</ele>
        <time>2019-03-18T14:06:22Z</time>
      </trkpt>
      <trkpt lat="45.97185" lon="6.53787">
        <ele>1551.22</ele>
        <time>2019-03-18T14:06:23Z</time>
      </trkpt>
      <trkpt lat="45.97184" lon="6.53777">
        <ele>1550.74</ele>
        <time>2019-03-18T14:06:24Z</time>
      </trkpt>
      <trkpt lat="45.97185" lon="6.5377">
        <ele>1547.86</ele>
        <time>2019-03-18T14:06:25Z</time>
      </trkpt>
      <trkpt lat="45.97187" lon="6.53767">
        <ele>1546.42</ele>
        <time>2019-03-18T14:06:26Z</time>
      </trkpt>
      <trkpt lat="45.97189" lon="6.5376">
        <ele>1544.98</ele>
        <time>2019-03-18T14:06:27Z</time>
      </trkpt>
      <trkpt lat="45.97195" lon="6.53757">
        <ele>1542.57</ele>
        <time>2019-03-18T14:06:28Z</time>
      </trkpt>
      <trkpt lat="45.972" lon="6.53754">
        <ele>1540.65</ele>
        <time>2019-03-18T14:06:29Z</time>
      </trkpt>
      <trkpt lat="45.97204" lon="6.53747">
        <ele>1539.69</ele>
        <time>2019-03-18T14:06:30Z</time>
      </trkpt>
      <trkpt lat="45.97208" lon="6.53742">
        <ele>1538.25</ele>
        <time>2019-03-18T14:06:31Z</time>
      </trkpt>
      <trkpt lat="45.97211" lon="6.53736">
        <ele>1535.36</ele>
        <time>2019-03-18T14:06:32Z</time>
      </trkpt>
      <trkpt lat="45.97216" lon="6.53731">
        <ele>1532</ele>
        <time>2019-03-18T14:06:33Z</time>
      </trkpt>
      <trkpt lat="45.97221" lon="6.53727">
        <ele>1529.59</ele>
        <time>2019-03-18T14:06:34Z</time>
      </trkpt>
      <trkpt lat="45.97226" lon="6.53723">
        <ele>1528.15</ele>
        <time>2019-03-18T14:06:35Z</time>
      </trkpt>
      <trkpt lat="45.97231" lon="6.53719">
        <ele>1527.19</ele>
        <time>2019-03-18T14:06:36Z</time>
      </trkpt>
      <trkpt lat="45.97236" lon="6.53717">
        <ele>1525.75</ele>
        <time>2019-03-18T14:06:37Z</time>
      </trkpt>
      <trkpt lat="45.9725" lon="6.53709">
        <ele>1521.9</ele>
        <time>2019-03-18T14:06:39Z</time>
      </trkpt>
      <trkpt lat="45.97258" lon="6.53706">
        <ele>1519.02</ele>
        <time>2019-03-18T14:06:40Z</time>
      </trkpt>
      <trkpt lat="45.97268" lon="6.53705">
        <ele>1516.62</ele>
        <time>2019-03-18T14:06:41Z</time>
      </trkpt>
      <trkpt lat="45.97277" lon="6.53705">
        <ele>1514.69</ele>
        <time>2019-03-18T14:06:42Z</time>
      </trkpt>
      <trkpt lat="45.97285" lon="6.53705">
        <ele>1512.29</ele>
        <time>2019-03-18T14:06:43Z</time>
      </trkpt>
      <trkpt lat="45.97302" lon="6.53704">
        <ele>1507</ele>
        <time>2019-03-18T14:06:45Z</time>
      </trkpt>
      <trkpt lat="45.97311" lon="6.53703">
        <ele>1505.08</ele>
        <time>2019-03-18T14:06:46Z</time>
      </trkpt>
      <trkpt lat="45.9732" lon="6.53702">
        <ele>1502.2</ele>
        <time>2019-03-18T14:06:47Z</time>
      </trkpt>
      <trkpt lat="45.97337" lon="6.53701">
        <ele>1499.31</ele>
        <time>2019-03-18T14:06:49Z</time>
      </trkpt>
      <trkpt lat="45.97345" lon="6.537">
        <ele>1495.47</ele>
        <time>2019-03-18T14:06:50Z</time>
      </trkpt>
      <trkpt lat="45.97353" lon="6.537">
        <ele>1493.55</ele>
        <time>2019-03-18T14:06:51Z</time>
      </trkpt>
      <trkpt lat="45.97361" lon="6.537">
        <ele>1492.58</ele>
        <time>2019-03-18T14:06:52Z</time>
      </trkpt>
      <trkpt lat="45.9737" lon="6.53696">
        <ele>1491.62</ele>
        <time>2019-03-18T14:06:53Z</time>
      </trkpt>
      <trkpt lat="45.97378" lon="6.5369">
        <ele>1489.7</ele>
        <time>2019-03-18T14:06:54Z</time>
      </trkpt>
      <trkpt lat="45.97387" lon="6.53683">
        <ele>1486.82</ele>
        <time>2019-03-18T14:06:55Z</time>
      </trkpt>
      <trkpt lat="45.97395" lon="6.53676">
        <ele>1481.53</ele>
        <time>2019-03-18T14:06:56Z</time>
      </trkpt>
      <trkpt lat="45.97411" lon="6.53662">
        <ele>1476.24</ele>
        <time>2019-03-18T14:06:58Z</time>
      </trkpt>
      <trkpt lat="45.97419" lon="6.53657">
        <ele>1475.28</ele>
        <time>2019-03-18T14:06:59Z</time>
      </trkpt>
      <trkpt lat="45.97427" lon="6.53653">
        <ele>1474.8</ele>
        <time>2019-03-18T14:07:00Z</time>
      </trkpt>
      <trkpt lat="45.97434" lon="6.53652">
        <ele>1475.76</ele>
        <time>2019-03-18T14:07:01Z</time>
      </trkpt>
      <trkpt lat="45.97439" lon="6.53652">
        <ele>1476.24</ele>
        <time>2019-03-18T14:07:02Z</time>
      </trkpt>
      <trkpt lat="45.97443" lon="6.53653">
        <ele>1477.2</ele>
        <time>2019-03-18T14:07:03Z</time>
      </trkpt>
      <trkpt lat="45.97462" lon="6.53651">
        <ele>1480.09</ele>
        <time>2019-03-18T14:07:14Z</time>
      </trkpt>
      <trkpt lat="45.9747" lon="6.53649">
        <ele>1479.61</ele>
        <time>2019-03-18T14:07:22Z</time>
      </trkpt>
      <trkpt lat="45.97473" lon="6.53651">
        <ele>1479.13</ele>
        <time>2019-03-18T14:07:23Z</time>
      </trkpt>
      <trkpt lat="45.97475" lon="6.53654">
        <ele>1478.65</ele>
        <time>2019-03-18T14:07:24Z</time>
      </trkpt>
      <trkpt lat="45.97477" lon="6.53655">
        <ele>1478.65</ele>
        <time>2019-03-18T14:07:25Z</time>
      </trkpt>
      <trkpt lat="45.97477" lon="6.53655">
        <ele>1478.65</ele>
        <time>2019-03-18T14:07:26Z</time>
      </trkpt>
      <trkpt lat="45.97489" lon="6.53657">
        <ele>1478.65</ele>
        <time>2019-03-18T14:07:43Z</time>
      </trkpt>
      <trkpt lat="45.9749" lon="6.53658">
        <ele>1478.65</ele>
        <time>2019-03-18T14:07:44Z</time>
      </trkpt>
      <trkpt lat="45.97493" lon="6.5366">
        <ele>1479.13</ele>
        <time>2019-03-18T14:07:52Z</time>
      </trkpt>
      <trkpt lat="45.97495" lon="6.53664">
        <ele>1479.13</ele>
        <time>2019-03-18T14:07:56Z</time>
      </trkpt>
      <trkpt lat="45.97525" lon="6.53717">
        <ele>1476.72</ele>
        <time>2019-03-18T14:08:26Z</time>
      </trkpt>
      <trkpt lat="45.9757" lon="6.53746">
        <ele>1475.28</ele>
        <time>2019-03-18T14:08:55Z</time>
      </trkpt>
      <trkpt lat="45.97598" lon="6.53764">
        <ele>1469.99</ele>
        <time>2019-03-18T14:09:01Z</time>
      </trkpt>
      <trkpt lat="45.97605" lon="6.53768">
        <ele>1467.59</ele>
        <time>2019-03-18T14:09:02Z</time>
      </trkpt>
      <trkpt lat="45.97618" lon="6.53775">
        <ele>1464.23</ele>
        <time>2019-03-18T14:09:04Z</time>
      </trkpt>
      <trkpt lat="45.97632" lon="6.53784">
        <ele>1460.86</ele>
        <time>2019-03-18T14:09:06Z</time>
      </trkpt>
      <trkpt lat="45.97647" lon="6.53796">
        <ele>1457.02</ele>
        <time>2019-03-18T14:09:08Z</time>
      </trkpt>
      <trkpt lat="45.97667" lon="6.53817">
        <ele>1453.65</ele>
        <time>2019-03-18T14:09:11Z</time>
      </trkpt>
      <trkpt lat="45.97673" lon="6.53823">
        <ele>1452.69</ele>
        <time>2019-03-18T14:09:12Z</time>
      </trkpt>
      <trkpt lat="45.9768" lon="6.53827">
        <ele>1452.69</ele>
        <time>2019-03-18T14:09:13Z</time>
      </trkpt>
      <trkpt lat="45.97697" lon="6.53837">
        <ele>1454.13</ele>
        <time>2019-03-18T14:09:16Z</time>
      </trkpt>
      <trkpt lat="45.97742" lon="6.53865">
        <ele>1452.21</ele>
        <time>2019-03-18T14:09:32Z</time>
      </trkpt>
      <trkpt lat="45.9778" lon="6.53903">
        <ele>1449.81</ele>
        <time>2019-03-18T14:09:54Z</time>
      </trkpt>
      <trkpt lat="45.97825" lon="6.53936">
        <ele>1445.96</ele>
        <time>2019-03-18T14:10:12Z</time>
      </trkpt>
      <trkpt lat="45.97841" lon="6.53949">
        <ele>1442.6</ele>
        <time>2019-03-18T14:10:16Z</time>
      </trkpt>
      <trkpt lat="45.97844" lon="6.53951">
        <ele>1442.6</ele>
        <time>2019-03-18T14:10:17Z</time>
      </trkpt>
      <trkpt lat="45.9789" lon="6.53968">
        <ele>1440.19</ele>
        <time>2019-03-18T14:10:33Z</time>
      </trkpt>
      <trkpt lat="45.97917" lon="6.53978">
        <ele>1436.83</ele>
        <time>2019-03-18T14:10:40Z</time>
      </trkpt>
      <trkpt lat="45.97934" lon="6.53987">
        <ele>1434.91</ele>
        <time>2019-03-18T14:10:44Z</time>
      </trkpt>
      <trkpt lat="45.97939" lon="6.53989">
        <ele>1434.42</ele>
        <time>2019-03-18T14:10:45Z</time>
      </trkpt>
      <trkpt lat="45.97945" lon="6.53991">
        <ele>1433.94</ele>
        <time>2019-03-18T14:10:46Z</time>
      </trkpt>
      <trkpt lat="45.97951" lon="6.53994">
        <ele>1432.98</ele>
        <time>2019-03-18T14:10:47Z</time>
      </trkpt>
      <trkpt lat="45.97957" lon="6.53997">
        <ele>1432.02</ele>
        <time>2019-03-18T14:10:48Z</time>
      </trkpt>
      <trkpt lat="45.97977" lon="6.54007">
        <ele>1427.21</ele>
        <time>2019-03-18T14:10:51Z</time>
      </trkpt>
      <trkpt lat="45.97983" lon="6.54012">
        <ele>1425.77</ele>
        <time>2019-03-18T14:10:52Z</time>
      </trkpt>
      <trkpt lat="45.97987" lon="6.5402">
        <ele>1424.33</ele>
        <time>2019-03-18T14:10:53Z</time>
      </trkpt>
      <trkpt lat="45.97991" lon="6.54029">
        <ele>1422.89</ele>
        <time>2019-03-18T14:10:54Z</time>
      </trkpt>
      <trkpt lat="45.97997" lon="6.54033">
        <ele>1420.97</ele>
        <time>2019-03-18T14:10:55Z</time>
      </trkpt>
      <trkpt lat="45.98" lon="6.54039">
        <ele>1419.04</ele>
        <time>2019-03-18T14:10:56Z</time>
      </trkpt>
      <trkpt lat="45.98002" lon="6.54046">
        <ele>1416.64</ele>
        <time>2019-03-18T14:10:57Z</time>
      </trkpt>
      <trkpt lat="45.98002" lon="6.54054">
        <ele>1415.2</ele>
        <time>2019-03-18T14:10:58Z</time>
      </trkpt>
      <trkpt lat="45.98002" lon="6.5406">
        <ele>1412.79</ele>
        <time>2019-03-18T14:10:59Z</time>
      </trkpt>
      <trkpt lat="45.98002" lon="6.54067">
        <ele>1410.87</ele>
        <time>2019-03-18T14:11:00Z</time>
      </trkpt>
      <trkpt lat="45.98003" lon="6.54076">
        <ele>1407.99</ele>
        <time>2019-03-18T14:11:01Z</time>
      </trkpt>
      <trkpt lat="45.98005" lon="6.54086">
        <ele>1405.58</ele>
        <time>2019-03-18T14:11:02Z</time>
      </trkpt>
      <trkpt lat="45.98008" lon="6.54095">
        <ele>1403.18</ele>
        <time>2019-03-18T14:11:03Z</time>
      </trkpt>
      <trkpt lat="45.98014" lon="6.54099">
        <ele>1400.3</ele>
        <time>2019-03-18T14:11:04Z</time>
      </trkpt>
      <trkpt lat="45.9802" lon="6.54101">
        <ele>1397.41</ele>
        <time>2019-03-18T14:11:05Z</time>
      </trkpt>
      <trkpt lat="45.98024" lon="6.54106">
        <ele>1395.49</ele>
        <time>2019-03-18T14:11:06Z</time>
      </trkpt>
      <trkpt lat="45.98028" lon="6.54109">
        <ele>1393.57</ele>
        <time>2019-03-18T14:11:07Z</time>
      </trkpt>
      <trkpt lat="45.98032" lon="6.5411">
        <ele>1392.61</ele>
        <time>2019-03-18T14:11:08Z</time>
      </trkpt>
      <trkpt lat="45.98037" lon="6.5411">
        <ele>1390.68</ele>
        <time>2019-03-18T14:11:09Z</time>
      </trkpt>
      <trkpt lat="45.98043" lon="6.54111">
        <ele>1388.76</ele>
        <time>2019-03-18T14:11:10Z</time>
      </trkpt>
      <trkpt lat="45.98048" lon="6.54116">
        <ele>1387.32</ele>
        <time>2019-03-18T14:11:11Z</time>
      </trkpt>
      <trkpt lat="45.98052" lon="6.54121">
        <ele>1385.4</ele>
        <time>2019-03-18T14:11:12Z</time>
      </trkpt>
      <trkpt lat="45.98064" lon="6.54135">
        <ele>1382.03</ele>
        <time>2019-03-18T14:11:14Z</time>
      </trkpt>
      <trkpt lat="45.98069" lon="6.54143">
        <ele>1378.19</ele>
        <time>2019-03-18T14:11:15Z</time>
      </trkpt>
      <trkpt lat="45.98086" lon="6.54165">
        <ele>1374.34</ele>
        <time>2019-03-18T14:11:18Z</time>
      </trkpt>
      <trkpt lat="45.98092" lon="6.54171">
        <ele>1372.9</ele>
        <time>2019-03-18T14:11:19Z</time>
      </trkpt>
      <trkpt lat="45.98097" lon="6.54176">
        <ele>1372.42</ele>
        <time>2019-03-18T14:11:20Z</time>
      </trkpt>
      <trkpt lat="45.98107" lon="6.54185">
        <ele>1370.98</ele>
        <time>2019-03-18T14:11:22Z</time>
      </trkpt>
      <trkpt lat="45.98112" lon="6.54189">
        <ele>1370.02</ele>
        <time>2019-03-18T14:11:23Z</time>
      </trkpt>
      <trkpt lat="45.98134" lon="6.54209">
        <ele>1367.13</ele>
        <time>2019-03-18T14:11:27Z</time>
      </trkpt>
      <trkpt lat="45.98139" lon="6.54213">
        <ele>1367.13</ele>
        <time>2019-03-18T14:11:28Z</time>
      </trkpt>
      <trkpt lat="45.98144" lon="6.54215">
        <ele>1367.61</ele>
        <time>2019-03-18T14:11:29Z</time>
      </trkpt>
      <trkpt lat="45.98192" lon="6.54234">
        <ele>1365.21</ele>
        <time>2019-03-18T14:11:39Z</time>
      </trkpt>
      <trkpt lat="45.98218" lon="6.5424">
        <ele>1364.25</ele>
        <time>2019-03-18T14:11:46Z</time>
      </trkpt>
      <trkpt lat="45.98222" lon="6.54241">
        <ele>1364.25</ele>
        <time>2019-03-18T14:11:47Z</time>
      </trkpt>
      <trkpt lat="45.98269" lon="6.54257">
        <ele>1362.33</ele>
        <time>2019-03-18T14:12:01Z</time>
      </trkpt>
      <trkpt lat="45.98314" lon="6.5428">
        <ele>1359.44</ele>
        <time>2019-03-18T14:12:18Z</time>
      </trkpt>
      <trkpt lat="45.98342" lon="6.54285">
        <ele>1356.56</ele>
        <time>2019-03-18T14:12:28Z</time>
      </trkpt>
      <trkpt lat="45.98387" lon="6.54283">
        <ele>1354.15</ele>
        <time>2019-03-18T14:12:45Z</time>
      </trkpt>
      <trkpt lat="45.98412" lon="6.54283">
        <ele>1351.27</ele>
        <time>2019-03-18T14:12:51Z</time>
      </trkpt>
      <trkpt lat="45.9842" lon="6.54284">
        <ele>1350.79</ele>
        <time>2019-03-18T14:12:53Z</time>
      </trkpt>
      <trkpt lat="45.98424" lon="6.54283">
        <ele>1350.79</ele>
        <time>2019-03-18T14:12:54Z</time>
      </trkpt>
      <trkpt lat="45.98446" lon="6.54281">
        <ele>1348.39</ele>
        <time>2019-03-18T14:12:59Z</time>
      </trkpt>
      <trkpt lat="45.98451" lon="6.54282">
        <ele>1347.91</ele>
        <time>2019-03-18T14:13:00Z</time>
      </trkpt>
      <trkpt lat="45.98457" lon="6.54286">
        <ele>1347.43</ele>
        <time>2019-03-18T14:13:01Z</time>
      </trkpt>
      <trkpt lat="45.98462" lon="6.54291">
        <ele>1345.98</ele>
        <time>2019-03-18T14:13:02Z</time>
      </trkpt>
      <trkpt lat="45.98467" lon="6.54297">
        <ele>1344.06</ele>
        <time>2019-03-18T14:13:03Z</time>
      </trkpt>
      <trkpt lat="45.98476" lon="6.54309">
        <ele>1342.62</ele>
        <time>2019-03-18T14:13:05Z</time>
      </trkpt>
      <trkpt lat="45.98501" lon="6.54348">
        <ele>1345.02</ele>
        <time>2019-03-18T14:13:21Z</time>
      </trkpt>
      <trkpt lat="45.98503" lon="6.54348">
        <ele>1345.02</ele>
        <time>2019-03-18T14:13:22Z</time>
      </trkpt>
      <trkpt lat="45.98504" lon="6.54349">
        <ele>1345.02</ele>
        <time>2019-03-18T14:13:23Z</time>
      </trkpt>
      <trkpt lat="45.98506" lon="6.54349">
        <ele>1345.5</ele>
        <time>2019-03-18T14:13:24Z</time>
      </trkpt>
      <trkpt lat="45.98507" lon="6.5435">
        <ele>1345.5</ele>
        <time>2019-03-18T14:13:25Z</time>
      </trkpt>
      <trkpt lat="45.98521" lon="6.54354">
        <ele>1346.46</ele>
        <time>2019-03-18T14:14:04Z</time>
      </trkpt>
      <trkpt lat="45.98526" lon="6.54352">
        <ele>1346.46</ele>
        <time>2019-03-18T14:14:30Z</time>
      </trkpt>
      <trkpt lat="45.98573" lon="6.54364">
        <ele>1344.06</ele>
        <time>2019-03-18T14:14:53Z</time>
      </trkpt>
      <trkpt lat="45.98597" lon="6.54379">
        <ele>1341.18</ele>
        <time>2019-03-18T14:15:01Z</time>
      </trkpt>
      <trkpt lat="45.98601" lon="6.54381">
        <ele>1340.22</ele>
        <time>2019-03-18T14:15:02Z</time>
      </trkpt>
      <trkpt lat="45.98605" lon="6.54383">
        <ele>1340.22</ele>
        <time>2019-03-18T14:15:03Z</time>
      </trkpt>
      <trkpt lat="45.98608" lon="6.54385">
        <ele>1339.25</ele>
        <time>2019-03-18T14:15:04Z</time>
      </trkpt>
      <trkpt lat="45.98612" lon="6.54386">
        <ele>1338.77</ele>
        <time>2019-03-18T14:15:05Z</time>
      </trkpt>
      <trkpt lat="45.98616" lon="6.54388">
        <ele>1337.81</ele>
        <time>2019-03-18T14:15:06Z</time>
      </trkpt>
      <trkpt lat="45.98627" lon="6.54388">
        <ele>1334.45</ele>
        <time>2019-03-18T14:15:08Z</time>
      </trkpt>
      <trkpt lat="45.9864" lon="6.54387">
        <ele>1330.6</ele>
        <time>2019-03-18T14:15:10Z</time>
      </trkpt>
      <trkpt lat="45.98663" lon="6.54386">
        <ele>1328.2</ele>
        <time>2019-03-18T14:15:14Z</time>
      </trkpt>
      <trkpt lat="45.98667" lon="6.54386">
        <ele>1327.24</ele>
        <time>2019-03-18T14:15:15Z</time>
      </trkpt>
      <trkpt lat="45.9867" lon="6.54387">
        <ele>1326.28</ele>
        <time>2019-03-18T14:15:16Z</time>
      </trkpt>
      <trkpt lat="45.98691" lon="6.54393">
        <ele>1324.35</ele>
        <time>2019-03-18T14:15:20Z</time>
      </trkpt>
      <trkpt lat="45.98696" lon="6.54396">
        <ele>1324.35</ele>
        <time>2019-03-18T14:15:21Z</time>
      </trkpt>
      <trkpt lat="45.98701" lon="6.544">
        <ele>1324.35</ele>
        <time>2019-03-18T14:15:22Z</time>
      </trkpt>
      <trkpt lat="45.98705" lon="6.54402">
        <ele>1323.87</ele>
        <time>2019-03-18T14:15:23Z</time>
      </trkpt>
      <trkpt lat="45.9871" lon="6.54405">
        <ele>1323.39</ele>
        <time>2019-03-18T14:15:24Z</time>
      </trkpt>
      <trkpt lat="45.98725" lon="6.54411">
        <ele>1320.99</ele>
        <time>2019-03-18T14:15:27Z</time>
      </trkpt>
      <trkpt lat="45.9873" lon="6.54413">
        <ele>1320.99</ele>
        <time>2019-03-18T14:15:28Z</time>
      </trkpt>
      <trkpt lat="45.98746" lon="6.54417">
        <ele>1320.03</ele>
        <time>2019-03-18T14:15:30Z</time>
      </trkpt>
      <trkpt lat="45.98761" lon="6.54423">
        <ele>1318.59</ele>
        <time>2019-03-18T14:15:33Z</time>
      </trkpt>
      <trkpt lat="45.98765" lon="6.54424">
        <ele>1318.59</ele>
        <time>2019-03-18T14:15:34Z</time>
      </trkpt>
      <trkpt lat="45.98769" lon="6.54426">
        <ele>1318.59</ele>
        <time>2019-03-18T14:15:35Z</time>
      </trkpt>
      <trkpt lat="45.9878" lon="6.5443">
        <ele>1318.59</ele>
        <time>2019-03-18T14:15:37Z</time>
      </trkpt>
      <trkpt lat="45.98794" lon="6.54436">
        <ele>1317.14</ele>
        <time>2019-03-18T14:15:40Z</time>
      </trkpt>
      <trkpt lat="45.98797" lon="6.54438">
        <ele>1316.66</ele>
        <time>2019-03-18T14:15:41Z</time>
      </trkpt>
      <trkpt lat="45.988" lon="6.54439">
        <ele>1316.18</ele>
        <time>2019-03-18T14:15:42Z</time>
      </trkpt>
      <trkpt lat="45.98804" lon="6.5444">
        <ele>1316.18</ele>
        <time>2019-03-18T14:15:43Z</time>
      </trkpt>
      <trkpt lat="45.98807" lon="6.54441">
        <ele>1315.22</ele>
        <time>2019-03-18T14:15:44Z</time>
      </trkpt>
      <trkpt lat="45.98824" lon="6.54442">
        <ele>1312.34</ele>
        <time>2019-03-18T14:15:49Z</time>
      </trkpt>
      <trkpt lat="45.9885" lon="6.54446">
        <ele>1308.97</ele>
        <time>2019-03-18T14:15:55Z</time>
      </trkpt>
      <trkpt lat="45.98884" lon="6.54441">
        <ele>1305.61</ele>
        <time>2019-03-18T14:16:07Z</time>
      </trkpt>
      <trkpt lat="45.98887" lon="6.54439">
        <ele>1305.13</ele>
        <time>2019-03-18T14:16:08Z</time>
      </trkpt>
      <trkpt lat="45.9889" lon="6.54438">
        <ele>1303.69</ele>
        <time>2019-03-18T14:16:09Z</time>
      </trkpt>
      <trkpt lat="45.98892" lon="6.54436">
        <ele>1302.72</ele>
        <time>2019-03-18T14:16:10Z</time>
      </trkpt>
      <trkpt lat="45.98895" lon="6.54434">
        <ele>1301.76</ele>
        <time>2019-03-18T14:16:11Z</time>
      </trkpt>
      <trkpt lat="45.98897" lon="6.54432">
        <ele>1300.8</ele>
        <time>2019-03-18T14:16:12Z</time>
      </trkpt>
      <trkpt lat="45.989" lon="6.5443">
        <ele>1299.84</ele>
        <time>2019-03-18T14:16:13Z</time>
      </trkpt>
      <trkpt lat="45.98902" lon="6.54429">
        <ele>1298.88</ele>
        <time>2019-03-18T14:16:14Z</time>
      </trkpt>
      <trkpt lat="45.9891" lon="6.54428">
        <ele>1295.99</ele>
        <time>2019-03-18T14:16:17Z</time>
      </trkpt>
      <trkpt lat="45.98913" lon="6.54428">
        <ele>1295.03</ele>
        <time>2019-03-18T14:16:18Z</time>
      </trkpt>
      <trkpt lat="45.98916" lon="6.54428">
        <ele>1293.59</ele>
        <time>2019-03-18T14:16:19Z</time>
      </trkpt>
      <trkpt lat="45.9892" lon="6.54429">
        <ele>1292.15</ele>
        <time>2019-03-18T14:16:20Z</time>
      </trkpt>
      <trkpt lat="45.98923" lon="6.5443">
        <ele>1290.23</ele>
        <time>2019-03-18T14:16:21Z</time>
      </trkpt>
      <trkpt lat="45.98926" lon="6.5443">
        <ele>1288.78</ele>
        <time>2019-03-18T14:16:22Z</time>
      </trkpt>
      <trkpt lat="45.98928" lon="6.54427">
        <ele>1286.86</ele>
        <time>2019-03-18T14:16:23Z</time>
      </trkpt>
      <trkpt lat="45.9893" lon="6.54424">
        <ele>1285.42</ele>
        <time>2019-03-18T14:16:24Z</time>
      </trkpt>
      <trkpt lat="45.98933" lon="6.54419">
        <ele>1283.98</ele>
        <time>2019-03-18T14:16:25Z</time>
      </trkpt>
      <trkpt lat="45.98935" lon="6.54415">
        <ele>1281.57</ele>
        <time>2019-03-18T14:16:26Z</time>
      </trkpt>
      <trkpt lat="45.98939" lon="6.54412">
        <ele>1280.13</ele>
        <time>2019-03-18T14:16:27Z</time>
      </trkpt>
      <trkpt lat="45.98944" lon="6.5441">
        <ele>1278.69</ele>
        <time>2019-03-18T14:16:28Z</time>
      </trkpt>
      <trkpt lat="45.98952" lon="6.5441">
        <ele>1277.25</ele>
        <time>2019-03-18T14:16:29Z</time>
      </trkpt>
      <trkpt lat="45.98958" lon="6.54409">
        <ele>1275.81</ele>
        <time>2019-03-18T14:16:30Z</time>
      </trkpt>
      <trkpt lat="45.98964" lon="6.54409">
        <ele>1273.88</ele>
        <time>2019-03-18T14:16:31Z</time>
      </trkpt>
      <trkpt lat="45.98969" lon="6.5441">
        <ele>1272.44</ele>
        <time>2019-03-18T14:16:32Z</time>
      </trkpt>
      <trkpt lat="45.98978" lon="6.54408">
        <ele>1271</ele>
        <time>2019-03-18T14:16:33Z</time>
      </trkpt>
      <trkpt lat="45.98985" lon="6.54406">
        <ele>1269.56</ele>
        <time>2019-03-18T14:16:34Z</time>
      </trkpt>
      <trkpt lat="45.98991" lon="6.54405">
        <ele>1267.64</ele>
        <time>2019-03-18T14:16:35Z</time>
      </trkpt>
      <trkpt lat="45.99002" lon="6.544">
        <ele>1265.71</ele>
        <time>2019-03-18T14:16:36Z</time>
      </trkpt>
      <trkpt lat="45.99008" lon="6.54397">
        <ele>1264.27</ele>
        <time>2019-03-18T14:16:37Z</time>
      </trkpt>
      <trkpt lat="45.99022" lon="6.54388">
        <ele>1259.46</ele>
        <time>2019-03-18T14:16:40Z</time>
      </trkpt>
      <trkpt lat="45.99027" lon="6.54386">
        <ele>1257.54</ele>
        <time>2019-03-18T14:16:41Z</time>
      </trkpt>
      <trkpt lat="45.99034" lon="6.54387">
        <ele>1256.58</ele>
        <time>2019-03-18T14:16:42Z</time>
      </trkpt>
      <trkpt lat="45.99042" lon="6.54386">
        <ele>1255.62</ele>
        <time>2019-03-18T14:16:44Z</time>
      </trkpt>
      <trkpt lat="45.99045" lon="6.54385">
        <ele>1255.62</ele>
        <time>2019-03-18T14:16:46Z</time>
      </trkpt>
      <trkpt lat="45.99046" lon="6.54385">
        <ele>1255.62</ele>
        <time>2019-03-18T14:16:47Z</time>
      </trkpt>
      <trkpt lat="45.99049" lon="6.54381">
        <ele>1255.14</ele>
        <time>2019-03-18T14:16:52Z</time>
      </trkpt>
      <trkpt lat="45.99051" lon="6.5438">
        <ele>1254.66</ele>
        <time>2019-03-18T14:16:53Z</time>
      </trkpt>
      <trkpt lat="45.99053" lon="6.54378">
        <ele>1253.7</ele>
        <time>2019-03-18T14:16:54Z</time>
      </trkpt>
      <trkpt lat="45.99067" lon="6.54367">
        <ele>1250.81</ele>
        <time>2019-03-18T14:16:59Z</time>
      </trkpt>
      <trkpt lat="45.9907" lon="6.54364">
        <ele>1250.33</ele>
        <time>2019-03-18T14:17:00Z</time>
      </trkpt>
      <trkpt lat="45.99072" lon="6.54363">
        <ele>1249.85</ele>
        <time>2019-03-18T14:17:01Z</time>
      </trkpt>
      <trkpt lat="45.99082" lon="6.54348">
        <ele>1246.97</ele>
        <time>2019-03-18T14:17:05Z</time>
      </trkpt>
      <trkpt lat="45.99084" lon="6.54343">
        <ele>1245.53</ele>
        <time>2019-03-18T14:17:06Z</time>
      </trkpt>
      <trkpt lat="45.99087" lon="6.54337">
        <ele>1244.08</ele>
        <time>2019-03-18T14:17:07Z</time>
      </trkpt>
      <trkpt lat="45.9909" lon="6.54331">
        <ele>1242.64</ele>
        <time>2019-03-18T14:17:08Z</time>
      </trkpt>
      <trkpt lat="45.99091" lon="6.54326">
        <ele>1241.2</ele>
        <time>2019-03-18T14:17:09Z</time>
      </trkpt>
      <trkpt lat="45.99092" lon="6.54321">
        <ele>1240.24</ele>
        <time>2019-03-18T14:17:10Z</time>
      </trkpt>
      <trkpt lat="45.99095" lon="6.54319">
        <ele>1238.8</ele>
        <time>2019-03-18T14:17:11Z</time>
      </trkpt>
      <trkpt lat="45.99097" lon="6.54316">
        <ele>1237.83</ele>
        <time>2019-03-18T14:17:12Z</time>
      </trkpt>
      <trkpt lat="45.99098" lon="6.54312">
        <ele>1236.87</ele>
        <time>2019-03-18T14:17:13Z</time>
      </trkpt>
      <trkpt lat="45.99105" lon="6.54303">
        <ele>1233.99</ele>
        <time>2019-03-18T14:17:16Z</time>
      </trkpt>
      <trkpt lat="45.99106" lon="6.54302">
        <ele>1233.51</ele>
        <time>2019-03-18T14:17:17Z</time>
      </trkpt>
      <trkpt lat="45.99121" lon="6.54295">
        <ele>1232.55</ele>
        <time>2019-03-18T14:17:23Z</time>
      </trkpt>
      <trkpt lat="45.99122" lon="6.5429">
        <ele>1231.11</ele>
        <time>2019-03-18T14:17:26Z</time>
      </trkpt>
      <trkpt lat="45.99125" lon="6.54287">
        <ele>1230.14</ele>
        <time>2019-03-18T14:17:29Z</time>
      </trkpt>
      <trkpt lat="45.99127" lon="6.54286">
        <ele>1229.18</ele>
        <time>2019-03-18T14:17:30Z</time>
      </trkpt>
      <trkpt lat="45.99128" lon="6.54284">
        <ele>1228.7</ele>
        <time>2019-03-18T14:17:31Z</time>
      </trkpt>
      <trkpt lat="45.99129" lon="6.54282">
        <ele>1228.22</ele>
        <time>2019-03-18T14:17:32Z</time>
      </trkpt>
      <trkpt lat="45.9913" lon="6.54282">
        <ele>1228.22</ele>
        <time>2019-03-18T14:17:33Z</time>
      </trkpt>
      <trkpt lat="45.99131" lon="6.54281">
        <ele>1227.74</ele>
        <time>2019-03-18T14:17:34Z</time>
      </trkpt>
      <trkpt lat="45.99131" lon="6.54279">
        <ele>1227.26</ele>
        <time>2019-03-18T14:17:35Z</time>
      </trkpt>
      <trkpt lat="45.99132" lon="6.54277">
        <ele>1226.78</ele>
        <time>2019-03-18T14:17:36Z</time>
      </trkpt>
      <trkpt lat="45.99132" lon="6.54274">
        <ele>1226.3</ele>
        <time>2019-03-18T14:17:37Z</time>
      </trkpt>
      <trkpt lat="45.99133" lon="6.54271">
        <ele>1226.3</ele>
        <time>2019-03-18T14:17:38Z</time>
      </trkpt>
      <trkpt lat="45.99135" lon="6.54268">
        <ele>1225.34</ele>
        <time>2019-03-18T14:17:39Z</time>
      </trkpt>
      <trkpt lat="45.99138" lon="6.54265">
        <ele>1224.38</ele>
        <time>2019-03-18T14:17:40Z</time>
      </trkpt>
      <trkpt lat="45.99138" lon="6.54263">
        <ele>1223.42</ele>
        <time>2019-03-18T14:17:41Z</time>
      </trkpt>
      <trkpt lat="45.99142" lon="6.54253">
        <ele>1221.01</ele>
        <time>2019-03-18T14:17:46Z</time>
      </trkpt>
      <trkpt lat="45.99148" lon="6.54244">
        <ele>1219.09</ele>
        <time>2019-03-18T14:17:50Z</time>
      </trkpt>
      <trkpt lat="45.99151" lon="6.54228">
        <ele>1216.21</ele>
        <time>2019-03-18T14:17:55Z</time>
      </trkpt>
      <trkpt lat="45.99153" lon="6.54224">
        <ele>1215.24</ele>
        <time>2019-03-18T14:17:56Z</time>
      </trkpt>
      <trkpt lat="45.99154" lon="6.54221">
        <ele>1214.76</ele>
        <time>2019-03-18T14:17:57Z</time>
      </trkpt>
      <trkpt lat="45.99155" lon="6.54217">
        <ele>1214.28</ele>
        <time>2019-03-18T14:17:58Z</time>
      </trkpt>
      <trkpt lat="45.99158" lon="6.54213">
        <ele>1213.8</ele>
        <time>2019-03-18T14:17:59Z</time>
      </trkpt>
      <trkpt lat="45.99158" lon="6.54206">
        <ele>1212.84</ele>
        <time>2019-03-18T14:18:00Z</time>
      </trkpt>
      <trkpt lat="45.99159" lon="6.54199">
        <ele>1212.36</ele>
        <time>2019-03-18T14:18:01Z</time>
      </trkpt>
      <trkpt lat="45.9916" lon="6.54192">
        <ele>1211.4</ele>
        <time>2019-03-18T14:18:02Z</time>
      </trkpt>
      <trkpt lat="45.99165" lon="6.54169">
        <ele>1208.51</ele>
        <time>2019-03-18T14:18:06Z</time>
      </trkpt>
      <trkpt lat="45.99171" lon="6.54141">
        <ele>1205.15</ele>
        <time>2019-03-18T14:18:14Z</time>
      </trkpt>
      <trkpt lat="45.99175" lon="6.54138">
        <ele>1204.19</ele>
        <time>2019-03-18T14:18:15Z</time>
      </trkpt>
      <trkpt lat="45.99178" lon="6.54135">
        <ele>1203.71</ele>
        <time>2019-03-18T14:18:16Z</time>
      </trkpt>
      <trkpt lat="45.99181" lon="6.54133">
        <ele>1203.23</ele>
        <time>2019-03-18T14:18:17Z</time>
      </trkpt>
      <trkpt lat="45.99183" lon="6.54132">
        <ele>1202.75</ele>
        <time>2019-03-18T14:18:18Z</time>
      </trkpt>
      <trkpt lat="45.99186" lon="6.54132">
        <ele>1202.27</ele>
        <time>2019-03-18T14:18:20Z</time>
      </trkpt>
      <trkpt lat="45.9919" lon="6.54132">
        <ele>1202.27</ele>
        <time>2019-03-18T14:18:25Z</time>
      </trkpt>
      <trkpt lat="45.99197" lon="6.54136">
        <ele>1201.79</ele>
        <time>2019-03-18T14:18:47Z</time>
      </trkpt>
      <trkpt lat="45.99203" lon="6.5413">
        <ele>1201.79</ele>
        <time>2019-03-18T14:18:55Z</time>
      </trkpt>
      <trkpt lat="45.99204" lon="6.54129">
        <ele>1201.79</ele>
        <time>2019-03-18T14:18:56Z</time>
      </trkpt>
      <trkpt lat="45.99216" lon="6.54122">
        <ele>1198.9</ele>
        <time>2019-03-18T14:19:09Z</time>
      </trkpt>
      <trkpt lat="45.99217" lon="6.54111">
        <ele>1196.5</ele>
        <time>2019-03-18T14:19:16Z</time>
      </trkpt>
      <trkpt lat="45.99218" lon="6.5411">
        <ele>1196.5</ele>
        <time>2019-03-18T14:19:17Z</time>
      </trkpt>
      <trkpt lat="45.99225" lon="6.54101">
        <ele>1195.06</ele>
        <time>2019-03-18T14:19:26Z</time>
      </trkpt>
      <trkpt lat="45.99227" lon="6.541">
        <ele>1195.06</ele>
        <time>2019-03-18T14:19:27Z</time>
      </trkpt>
      <trkpt lat="45.99228" lon="6.54099">
        <ele>1195.06</ele>
        <time>2019-03-18T14:19:28Z</time>
      </trkpt>
      <trkpt lat="45.99241" lon="6.54081">
        <ele>1191.69</ele>
        <time>2019-03-18T14:19:46Z</time>
      </trkpt>
      <trkpt lat="45.99243" lon="6.54079">
        <ele>1191.21</ele>
        <time>2019-03-18T14:19:49Z</time>
      </trkpt>
      <trkpt lat="45.99244" lon="6.54078">
        <ele>1190.73</ele>
        <time>2019-03-18T14:19:50Z</time>
      </trkpt>
      <trkpt lat="45.99262" lon="6.5406">
        <ele>1187.85</ele>
        <time>2019-03-18T14:20:05Z</time>
      </trkpt>
      <trkpt lat="45.99275" lon="6.54048">
        <ele>1185.92</ele>
        <time>2019-03-18T14:20:16Z</time>
      </trkpt>
      <trkpt lat="45.99275" lon="6.54047">
        <ele>1185.44</ele>
        <time>2019-03-18T14:20:17Z</time>
      </trkpt>
      <trkpt lat="45.99275" lon="6.54046">
        <ele>1184.96</ele>
        <time>2019-03-18T14:20:18Z</time>
      </trkpt>
      <trkpt lat="45.99276" lon="6.54045">
        <ele>1184.48</ele>
        <time>2019-03-18T14:20:19Z</time>
      </trkpt>
      <trkpt lat="45.99277" lon="6.54044">
        <ele>1184.48</ele>
        <time>2019-03-18T14:20:20Z</time>
      </trkpt>
      <trkpt lat="45.99285" lon="6.54035">
        <ele>1181.6</ele>
        <time>2019-03-18T14:20:30Z</time>
      </trkpt>
      <trkpt lat="45.99285" lon="6.54033">
        <ele>1181.12</ele>
        <time>2019-03-18T14:20:32Z</time>
      </trkpt>
      <trkpt lat="45.99286" lon="6.54033">
        <ele>1180.64</ele>
        <time>2019-03-18T14:20:33Z</time>
      </trkpt>
      <trkpt lat="45.99287" lon="6.54032">
        <ele>1180.64</ele>
        <time>2019-03-18T14:20:34Z</time>
      </trkpt>
      <trkpt lat="45.99288" lon="6.54031">
        <ele>1180.16</ele>
        <time>2019-03-18T14:20:35Z</time>
      </trkpt>
      <trkpt lat="45.99293" lon="6.54023">
        <ele>1178.23</ele>
        <time>2019-03-18T14:20:41Z</time>
      </trkpt>
      <trkpt lat="45.99295" lon="6.54021">
        <ele>1178.23</ele>
        <time>2019-03-18T14:20:43Z</time>
      </trkpt>
      <trkpt lat="45.99296" lon="6.5402">
        <ele>1177.75</ele>
        <time>2019-03-18T14:20:44Z</time>
      </trkpt>
      <trkpt lat="45.99297" lon="6.54019">
        <ele>1177.27</ele>
        <time>2019-03-18T14:20:45Z</time>
      </trkpt>
      <trkpt lat="45.99299" lon="6.54018">
        <ele>1177.27</ele>
        <time>2019-03-18T14:20:46Z</time>
      </trkpt>
      <trkpt lat="45.993" lon="6.54017">
        <ele>1176.79</ele>
        <time>2019-03-18T14:20:47Z</time>
      </trkpt>
      <trkpt lat="45.99302" lon="6.54017">
        <ele>1176.79</ele>
        <time>2019-03-18T14:20:48Z</time>
      </trkpt>
      <trkpt lat="45.99304" lon="6.54015">
        <ele>1176.79</ele>
        <time>2019-03-18T14:20:49Z</time>
      </trkpt>
      <trkpt lat="45.99306" lon="6.54015">
        <ele>1176.31</ele>
        <time>2019-03-18T14:20:50Z</time>
      </trkpt>
      <trkpt lat="45.99324" lon="6.53991">
        <ele>1173.43</ele>
        <time>2019-03-18T14:21:07Z</time>
      </trkpt>
      <trkpt lat="45.99325" lon="6.5399">
        <ele>1172.95</ele>
        <time>2019-03-18T14:21:08Z</time>
      </trkpt>
      <trkpt lat="45.99327" lon="6.53989">
        <ele>1172.95</ele>
        <time>2019-03-18T14:21:09Z</time>
      </trkpt>
      <trkpt lat="45.99328" lon="6.53989">
        <ele>1172.47</ele>
        <time>2019-03-18T14:21:10Z</time>
      </trkpt>
      <trkpt lat="45.99329" lon="6.53988">
        <ele>1171.98</ele>
        <time>2019-03-18T14:21:11Z</time>
      </trkpt>
      <trkpt lat="45.9933" lon="6.53986">
        <ele>1171.98</ele>
        <time>2019-03-18T14:21:12Z</time>
      </trkpt>
      <trkpt lat="45.9933" lon="6.53984">
        <ele>1171.5</ele>
        <time>2019-03-18T14:21:13Z</time>
      </trkpt>
      <trkpt lat="45.99331" lon="6.53982">
        <ele>1171.02</ele>
        <time>2019-03-18T14:21:14Z</time>
      </trkpt>
      <trkpt lat="45.99333" lon="6.5398">
        <ele>1171.02</ele>
        <time>2019-03-18T14:21:15Z</time>
      </trkpt>
      <trkpt lat="45.99335" lon="6.53978">
        <ele>1170.54</ele>
        <time>2019-03-18T14:21:16Z</time>
      </trkpt>
      <trkpt lat="45.99336" lon="6.53977">
        <ele>1170.06</ele>
        <time>2019-03-18T14:21:17Z</time>
      </trkpt>
      <trkpt lat="45.99338" lon="6.53975">
        <ele>1170.06</ele>
        <time>2019-03-18T14:21:18Z</time>
      </trkpt>
      <trkpt lat="45.99346" lon="6.53963">
        <ele>1167.18</ele>
        <time>2019-03-18T14:21:29Z</time>
      </trkpt>
      <trkpt lat="45.99355" lon="6.53967">
        <ele>1163.81</ele>
        <time>2019-03-18T14:21:50Z</time>
      </trkpt>
      <trkpt lat="45.99358" lon="6.53971">
        <ele>1162.85</ele>
        <time>2019-03-18T14:21:51Z</time>
      </trkpt>
      <trkpt lat="45.99361" lon="6.53974">
        <ele>1161.41</ele>
        <time>2019-03-18T14:21:52Z</time>
      </trkpt>
      <trkpt lat="45.9937" lon="6.53976">
        <ele>1159.97</ele>
        <time>2019-03-18T14:21:53Z</time>
      </trkpt>
      <trkpt lat="45.99376" lon="6.53976">
        <ele>1158.53</ele>
        <time>2019-03-18T14:21:54Z</time>
      </trkpt>
      <trkpt lat="45.99382" lon="6.53976">
        <ele>1156.6</ele>
        <time>2019-03-18T14:21:55Z</time>
      </trkpt>
      <trkpt lat="45.99389" lon="6.53974">
        <ele>1155.16</ele>
        <time>2019-03-18T14:21:56Z</time>
      </trkpt>
      <trkpt lat="45.99395" lon="6.53973">
        <ele>1153.24</ele>
        <time>2019-03-18T14:21:57Z</time>
      </trkpt>
      <trkpt lat="45.99402" lon="6.53972">
        <ele>1152.28</ele>
        <time>2019-03-18T14:21:58Z</time>
      </trkpt>
      <trkpt lat="45.99408" lon="6.53972">
        <ele>1151.32</ele>
        <time>2019-03-18T14:21:59Z</time>
      </trkpt>
      <trkpt lat="45.99415" lon="6.53971">
        <ele>1149.39</ele>
        <time>2019-03-18T14:22:00Z</time>
      </trkpt>
      <trkpt lat="45.99421" lon="6.53971">
        <ele>1147.95</ele>
        <time>2019-03-18T14:22:01Z</time>
      </trkpt>
      <trkpt lat="45.99426" lon="6.53971">
        <ele>1146.99</ele>
        <time>2019-03-18T14:22:02Z</time>
      </trkpt>
      <trkpt lat="45.99429" lon="6.53969">
        <ele>1146.99</ele>
        <time>2019-03-18T14:22:03Z</time>
      </trkpt>
      <trkpt lat="45.9943" lon="6.53968">
        <ele>1146.51</ele>
        <time>2019-03-18T14:22:04Z</time>
      </trkpt>
      <trkpt lat="45.99444" lon="6.53961">
        <ele>1145.55</ele>
        <time>2019-03-18T14:22:38Z</time>
      </trkpt>
      <trkpt lat="45.99453" lon="6.53959">
        <ele>1144.11</ele>
        <time>2019-03-18T14:22:53Z</time>
      </trkpt>
      <trkpt lat="45.99454" lon="6.53959">
        <ele>1144.11</ele>
        <time>2019-03-18T14:22:54Z</time>
      </trkpt>
      <trkpt lat="45.9948" lon="6.53956">
        <ele>1142.18</ele>
        <time>2019-03-18T14:23:18Z</time>
      </trkpt>
      <trkpt lat="45.99482" lon="6.53957">
        <ele>1142.18</ele>
        <time>2019-03-18T14:23:19Z</time>
      </trkpt>
      <trkpt lat="45.99484" lon="6.53957">
        <ele>1142.18</ele>
        <time>2019-03-18T14:23:20Z</time>
      </trkpt>
      <trkpt lat="45.99517" lon="6.53962">
        <ele>1139.3</ele>
        <time>2019-03-18T14:23:29Z</time>
      </trkpt>
      <trkpt lat="45.99535" lon="6.53965">
        <ele>1136.9</ele>
        <time>2019-03-18T14:23:33Z</time>
      </trkpt>
      <trkpt lat="45.9954" lon="6.53965">
        <ele>1135.94</ele>
        <time>2019-03-18T14:23:34Z</time>
      </trkpt>
      <trkpt lat="45.99546" lon="6.53965">
        <ele>1134.49</ele>
        <time>2019-03-18T14:23:35Z</time>
      </trkpt>
      <trkpt lat="45.99553" lon="6.53967">
        <ele>1134.01</ele>
        <time>2019-03-18T14:23:36Z</time>
      </trkpt>
      <trkpt lat="45.99559" lon="6.53971">
        <ele>1132.57</ele>
        <time>2019-03-18T14:23:37Z</time>
      </trkpt>
      <trkpt lat="45.99568" lon="6.53974">
        <ele>1131.61</ele>
        <time>2019-03-18T14:23:38Z</time>
      </trkpt>
      <trkpt lat="45.99577" lon="6.53975">
        <ele>1130.17</ele>
        <time>2019-03-18T14:23:39Z</time>
      </trkpt>
      <trkpt lat="45.99585" lon="6.53977">
        <ele>1127.76</ele>
        <time>2019-03-18T14:23:40Z</time>
      </trkpt>
      <trkpt lat="45.99593" lon="6.53982">
        <ele>1126.32</ele>
        <time>2019-03-18T14:23:41Z</time>
      </trkpt>
      <trkpt lat="45.99601" lon="6.53988">
        <ele>1124.88</ele>
        <time>2019-03-18T14:23:42Z</time>
      </trkpt>
      <trkpt lat="45.99618" lon="6.53995">
        <ele>1122</ele>
        <time>2019-03-18T14:23:44Z</time>
      </trkpt>
      <trkpt lat="45.99627" lon="6.53998">
        <ele>1120.07</ele>
        <time>2019-03-18T14:23:45Z</time>
      </trkpt>
      <trkpt lat="45.99635" lon="6.54004">
        <ele>1117.19</ele>
        <time>2019-03-18T14:23:46Z</time>
      </trkpt>
      <trkpt lat="45.99644" lon="6.54011">
        <ele>1115.75</ele>
        <time>2019-03-18T14:23:47Z</time>
      </trkpt>
      <trkpt lat="45.99652" lon="6.54017">
        <ele>1113.82</ele>
        <time>2019-03-18T14:23:48Z</time>
      </trkpt>
      <trkpt lat="45.99661" lon="6.54021">
        <ele>1112.38</ele>
        <time>2019-03-18T14:23:49Z</time>
      </trkpt>
      <trkpt lat="45.9968" lon="6.54029">
        <ele>1108.06</ele>
        <time>2019-03-18T14:23:51Z</time>
      </trkpt>
      <trkpt lat="45.99688" lon="6.54031">
        <ele>1107.1</ele>
        <time>2019-03-18T14:23:52Z</time>
      </trkpt>
      <trkpt lat="45.99698" lon="6.54031">
        <ele>1106.61</ele>
        <time>2019-03-18T14:23:53Z</time>
      </trkpt>
      <trkpt lat="45.99707" lon="6.54033">
        <ele>1104.21</ele>
        <time>2019-03-18T14:23:54Z</time>
      </trkpt>
      <trkpt lat="45.99715" lon="6.54039">
        <ele>1101.81</ele>
        <time>2019-03-18T14:23:55Z</time>
      </trkpt>
      <trkpt lat="45.99724" lon="6.54042">
        <ele>1100.85</ele>
        <time>2019-03-18T14:23:56Z</time>
      </trkpt>
      <trkpt lat="45.99734" lon="6.54044">
        <ele>1100.37</ele>
        <time>2019-03-18T14:23:57Z</time>
      </trkpt>
      <trkpt lat="45.99743" lon="6.54047">
        <ele>1097.96</ele>
        <time>2019-03-18T14:23:58Z</time>
      </trkpt>
      <trkpt lat="45.99751" lon="6.54053">
        <ele>1095.08</ele>
        <time>2019-03-18T14:23:59Z</time>
      </trkpt>
      <trkpt lat="45.99761" lon="6.54057">
        <ele>1093.16</ele>
        <time>2019-03-18T14:24:00Z</time>
      </trkpt>
      <trkpt lat="45.9977" lon="6.54061">
        <ele>1090.27</ele>
        <time>2019-03-18T14:24:01Z</time>
      </trkpt>
      <trkpt lat="45.99779" lon="6.54065">
        <ele>1088.83</ele>
        <time>2019-03-18T14:24:02Z</time>
      </trkpt>
      <trkpt lat="45.99789" lon="6.54066">
        <ele>1087.39</ele>
        <time>2019-03-18T14:24:03Z</time>
      </trkpt>
      <trkpt lat="45.99798" lon="6.54065">
        <ele>1086.43</ele>
        <time>2019-03-18T14:24:04Z</time>
      </trkpt>
      <trkpt lat="45.99806" lon="6.54066">
        <ele>1084.02</ele>
        <time>2019-03-18T14:24:05Z</time>
      </trkpt>
      <trkpt lat="45.99813" lon="6.54071">
        <ele>1083.06</ele>
        <time>2019-03-18T14:24:06Z</time>
      </trkpt>
      <trkpt lat="45.99817" lon="6.54078">
        <ele>1082.1</ele>
        <time>2019-03-18T14:24:07Z</time>
      </trkpt>
      <trkpt lat="45.99818" lon="6.54085">
        <ele>1081.62</ele>
        <time>2019-03-18T14:24:08Z</time>
      </trkpt>
      <trkpt lat="45.99818" lon="6.5409">
        <ele>1081.14</ele>
        <time>2019-03-18T14:24:09Z</time>
      </trkpt>
      <trkpt lat="45.99818" lon="6.54095">
        <ele>1080.66</ele>
        <time>2019-03-18T14:24:10Z</time>
      </trkpt>
      <trkpt lat="45.99817" lon="6.54099">
        <ele>1080.66</ele>
        <time>2019-03-18T14:24:11Z</time>
      </trkpt>
      <trkpt lat="45.99815" lon="6.54101">
        <ele>1080.18</ele>
        <time>2019-03-18T14:24:14Z</time>
      </trkpt>
      <trkpt lat="45.9982" lon="6.5411">
        <ele>1079.7</ele>
        <time>2019-03-18T14:24:43Z</time>
      </trkpt>
      <trkpt lat="45.99821" lon="6.54112">
        <ele>1079.7</ele>
        <time>2019-03-18T14:24:44Z</time>
      </trkpt>
      <trkpt lat="45.99827" lon="6.5412">
        <ele>1080.66</ele>
        <time>2019-03-18T14:24:56Z</time>
      </trkpt>
      <trkpt lat="45.99829" lon="6.54119">
        <ele>1080.66</ele>
        <time>2019-03-18T14:24:58Z</time>
      </trkpt>
      <trkpt lat="45.9983" lon="6.54119">
        <ele>1080.66</ele>
        <time>2019-03-18T14:25:00Z</time>
      </trkpt>
      <trkpt lat="45.99832" lon="6.54119">
        <ele>1080.66</ele>
        <time>2019-03-18T14:25:01Z</time>
      </trkpt>
      <trkpt lat="45.99831" lon="6.54119">
        <ele>1080.18</ele>
        <time>2019-03-18T14:25:05Z</time>
      </trkpt>
      <trkpt lat="45.99834" lon="6.54116">
        <ele>1080.66</ele>
        <time>2019-03-18T14:25:21Z</time>
      </trkpt>
      <trkpt lat="45.99856" lon="6.54125">
        <ele>1077.29</ele>
        <time>2019-03-18T14:25:30Z</time>
      </trkpt>
      <trkpt lat="45.9986" lon="6.54125">
        <ele>1076.81</ele>
        <time>2019-03-18T14:25:31Z</time>
      </trkpt>
      <trkpt lat="45.99864" lon="6.54124">
        <ele>1076.81</ele>
        <time>2019-03-18T14:25:32Z</time>
      </trkpt>
      <trkpt lat="45.99895" lon="6.54129">
        <ele>1073.45</ele>
        <time>2019-03-18T14:25:39Z</time>
      </trkpt>
      <trkpt lat="45.99907" lon="6.54135">
        <ele>1073.93</ele>
        <time>2019-03-18T14:25:42Z</time>
      </trkpt>
      <trkpt lat="45.99911" lon="6.54138">
        <ele>1073.45</ele>
        <time>2019-03-18T14:25:43Z</time>
      </trkpt>
      <trkpt lat="45.99915" lon="6.5414">
        <ele>1072.97</ele>
        <time>2019-03-18T14:25:44Z</time>
      </trkpt>
      <trkpt lat="45.99964" lon="6.54139">
        <ele>1070.57</ele>
        <time>2019-03-18T14:26:01Z</time>
      </trkpt>
      <trkpt lat="45.99984" lon="6.54135">
        <ele>1069.6</ele>
        <time>2019-03-18T14:26:10Z</time>
      </trkpt>
      <trkpt lat="45.99986" lon="6.54134">
        <ele>1069.6</ele>
        <time>2019-03-18T14:26:11Z</time>
      </trkpt>
      <trkpt lat="45.99988" lon="6.54134">
        <ele>1069.6</ele>
        <time>2019-03-18T14:26:12Z</time>
      </trkpt>
      <trkpt lat="46" lon="6.5413">
        <ele>1069.12</ele>
        <time>2019-03-18T14:26:19Z</time>
      </trkpt>
      <trkpt lat="46.00056" lon="6.54103">
        <ele>1065.76</ele>
        <time>2019-03-18T14:26:38Z</time>
      </trkpt>
      <trkpt lat="46.0009" lon="6.54094">
        <ele>1063.36</ele>
        <time>2019-03-18T14:26:47Z</time>
      </trkpt>
      <trkpt lat="46.00092" lon="6.5409">
        <ele>1062.87</ele>
        <time>2019-03-18T14:26:48Z</time>
      </trkpt>
      <trkpt lat="46.00093" lon="6.54088">
        <ele>1062.87</ele>
        <time>2019-03-18T14:26:49Z</time>
      </trkpt>
      <trkpt lat="46.00093" lon="6.54086">
        <ele>1062.87</ele>
        <time>2019-03-18T14:26:50Z</time>
      </trkpt>
      <trkpt lat="46.00093" lon="6.54084">
        <ele>1062.87</ele>
        <time>2019-03-18T14:26:51Z</time>
      </trkpt>
      <trkpt lat="46.00096" lon="6.5408">
        <ele>1062.39</ele>
        <time>2019-03-18T14:27:09Z</time>
      </trkpt>
    </trkseg>
  </trk>
</gpx>